<?xml version="1.0" encoding="UTF-8" standalone="no" ?>
<gpx xmlns="http://www.topografix.com/GPX/1/1" xmlns:xsi="http://www.w3.org/2001/XMLSchema-instance" xsi:schemaLocation="http://www.topografix.com/GPX/1/1 http://www.topografix.com/GPX/1/1/gpx.xsd" version="1.1" creator="VisuGPX - https://www.visugpx.com">
  <metadata>
    <name>Ronde des Roches  45Kms 2013</name>
    <desc><![CDATA[Ronde des Roches  45Kms 2013]]></desc>
  </metadata>
  <trk>
    <name><![CDATA[2013-05-05 08:42]]></name>
    <desc><![CDATA[<h1>OruxMaps</h1><br /><hr align="center" width="480" style="height: 2px; width: 517px"/><h2>Nom: 2013-05-05 08:42</h2><br /><p>Temps de départ: 05/05/2013 08:42</p><p>Temps d'arrivée: 05/05/2013 13:03</p><p>Distance: 43,9 km (04:21)</p><p>Temps déplacement: 03:47</p><p>Vitesse moyenne: 10,1 km/h</p><p>Vitesse moyenne: 11,6 km/h</p><p>Vitess Max.: 57,3 km/h</p><p>Altitude minimale: 3 m</p><p>Altitude maximale: 155 m</p><p>Vitesse d'élévation: 435,4 m/h</p><p>Vitesse de descente: -757 m/h</p><p>Gain Altitude: 1076 m</p><p>Perte Altitude: -1076 m</p><p>Temps d'élévation: 02:28</p><p>Temps de descente: 01:25</p><hr align="center" width="480" style="height: 2px; width: 517px"/>]]></desc>
    <trkseg>
      <trkpt lat="49.38879" lon="1.14088">
        <ele>142</ele>
        <time>2013-05-05T06:42:16Z</time>
      </trkpt>
      <trkpt lat="49.38881" lon="1.1406">
        <ele>142</ele>
        <time>2013-05-05T06:48:24Z</time>
      </trkpt>
      <trkpt lat="49.38898" lon="1.14047">
        <ele>142</ele>
        <time>2013-05-05T06:49:40Z</time>
      </trkpt>
      <trkpt lat="49.38901" lon="1.14017">
        <ele>142</ele>
        <time>2013-05-05T06:49:49Z</time>
      </trkpt>
      <trkpt lat="49.38893" lon="1.13989">
        <ele>142</ele>
        <time>2013-05-05T06:49:55Z</time>
      </trkpt>
      <trkpt lat="49.38885" lon="1.13961">
        <ele>142</ele>
        <time>2013-05-05T06:50:01Z</time>
      </trkpt>
      <trkpt lat="49.38876" lon="1.13932">
        <ele>142</ele>
        <time>2013-05-05T06:50:07Z</time>
      </trkpt>
      <trkpt lat="49.38869" lon="1.13907">
        <ele>141</ele>
        <time>2013-05-05T06:50:12Z</time>
      </trkpt>
      <trkpt lat="49.38861" lon="1.13877">
        <ele>141</ele>
        <time>2013-05-05T06:50:18Z</time>
      </trkpt>
      <trkpt lat="49.38854" lon="1.1385">
        <ele>141</ele>
        <time>2013-05-05T06:50:23Z</time>
      </trkpt>
      <trkpt lat="49.38845" lon="1.13822">
        <ele>140</ele>
        <time>2013-05-05T06:50:28Z</time>
      </trkpt>
      <trkpt lat="49.38836" lon="1.13794">
        <ele>140</ele>
        <time>2013-05-05T06:50:32Z</time>
      </trkpt>
      <trkpt lat="49.38828" lon="1.13765">
        <ele>138</ele>
        <time>2013-05-05T06:50:36Z</time>
      </trkpt>
      <trkpt lat="49.38816" lon="1.13737">
        <ele>132</ele>
        <time>2013-05-05T06:50:40Z</time>
      </trkpt>
      <trkpt lat="49.38797" lon="1.13715">
        <ele>132</ele>
        <time>2013-05-05T06:50:44Z</time>
      </trkpt>
      <trkpt lat="49.38776" lon="1.13708">
        <ele>132</ele>
        <time>2013-05-05T06:50:47Z</time>
      </trkpt>
      <trkpt lat="49.38755" lon="1.13704">
        <ele>132</ele>
        <time>2013-05-05T06:50:50Z</time>
      </trkpt>
      <trkpt lat="49.38734" lon="1.13698">
        <ele>134</ele>
        <time>2013-05-05T06:50:53Z</time>
      </trkpt>
      <trkpt lat="49.38711" lon="1.1369">
        <ele>134</ele>
        <time>2013-05-05T06:50:56Z</time>
      </trkpt>
      <trkpt lat="49.38687" lon="1.13677">
        <ele>134</ele>
        <time>2013-05-05T06:50:59Z</time>
      </trkpt>
      <trkpt lat="49.3867" lon="1.13663">
        <ele>123</ele>
        <time>2013-05-05T06:51:01Z</time>
      </trkpt>
      <trkpt lat="49.38649" lon="1.13652">
        <ele>132</ele>
        <time>2013-05-05T06:51:04Z</time>
      </trkpt>
      <trkpt lat="49.38632" lon="1.13635">
        <ele>132</ele>
        <time>2013-05-05T06:51:07Z</time>
      </trkpt>
      <trkpt lat="49.38616" lon="1.13615">
        <ele>132</ele>
        <time>2013-05-05T06:51:10Z</time>
      </trkpt>
      <trkpt lat="49.386" lon="1.13599">
        <ele>132</ele>
        <time>2013-05-05T06:51:13Z</time>
      </trkpt>
      <trkpt lat="49.38583" lon="1.13587">
        <ele>133</ele>
        <time>2013-05-05T06:51:18Z</time>
      </trkpt>
      <trkpt lat="49.38566" lon="1.13575">
        <ele>132</ele>
        <time>2013-05-05T06:51:24Z</time>
      </trkpt>
      <trkpt lat="49.38552" lon="1.13557">
        <ele>132</ele>
        <time>2013-05-05T06:51:30Z</time>
      </trkpt>
      <trkpt lat="49.38536" lon="1.13539">
        <ele>132</ele>
        <time>2013-05-05T06:51:36Z</time>
      </trkpt>
      <trkpt lat="49.38519" lon="1.13525">
        <ele>132</ele>
        <time>2013-05-05T06:51:41Z</time>
      </trkpt>
      <trkpt lat="49.38499" lon="1.1351">
        <ele>132</ele>
        <time>2013-05-05T06:51:46Z</time>
      </trkpt>
      <trkpt lat="49.3848" lon="1.13499">
        <ele>130</ele>
        <time>2013-05-05T06:51:50Z</time>
      </trkpt>
      <trkpt lat="49.38459" lon="1.13485">
        <ele>130</ele>
        <time>2013-05-05T06:51:54Z</time>
      </trkpt>
      <trkpt lat="49.3844" lon="1.1347">
        <ele>130</ele>
        <time>2013-05-05T06:51:58Z</time>
      </trkpt>
      <trkpt lat="49.38424" lon="1.13455">
        <ele>130</ele>
        <time>2013-05-05T06:52:01Z</time>
      </trkpt>
      <trkpt lat="49.38405" lon="1.13433">
        <ele>134</ele>
        <time>2013-05-05T06:52:05Z</time>
      </trkpt>
      <trkpt lat="49.3839" lon="1.13417">
        <ele>134</ele>
        <time>2013-05-05T06:52:09Z</time>
      </trkpt>
      <trkpt lat="49.38371" lon="1.13403">
        <ele>131</ele>
        <time>2013-05-05T06:52:14Z</time>
      </trkpt>
      <trkpt lat="49.38352" lon="1.13401">
        <ele>131</ele>
        <time>2013-05-05T06:52:19Z</time>
      </trkpt>
      <trkpt lat="49.38334" lon="1.13396">
        <ele>131</ele>
        <time>2013-05-05T06:52:25Z</time>
      </trkpt>
      <trkpt lat="49.38337" lon="1.13368">
        <ele>131</ele>
        <time>2013-05-05T06:52:32Z</time>
      </trkpt>
      <trkpt lat="49.38344" lon="1.1334">
        <ele>131</ele>
        <time>2013-05-05T06:52:39Z</time>
      </trkpt>
      <trkpt lat="49.38347" lon="1.13312">
        <ele>131</ele>
        <time>2013-05-05T06:53:02Z</time>
      </trkpt>
      <trkpt lat="49.38341" lon="1.13285">
        <ele>131</ele>
        <time>2013-05-05T06:53:29Z</time>
      </trkpt>
      <trkpt lat="49.3834" lon="1.13256">
        <ele>131</ele>
        <time>2013-05-05T06:53:47Z</time>
      </trkpt>
      <trkpt lat="49.38338" lon="1.13221">
        <ele>123</ele>
        <time>2013-05-05T06:53:52Z</time>
      </trkpt>
      <trkpt lat="49.38336" lon="1.1319">
        <ele>123</ele>
        <time>2013-05-05T06:53:57Z</time>
      </trkpt>
      <trkpt lat="49.38337" lon="1.13162">
        <ele>109</ele>
        <time>2013-05-05T06:54:04Z</time>
      </trkpt>
      <trkpt lat="49.3832" lon="1.13171">
        <ele>103</ele>
        <time>2013-05-05T06:54:16Z</time>
      </trkpt>
      <trkpt lat="49.38291" lon="1.13198">
        <ele>103</ele>
        <time>2013-05-05T06:54:21Z</time>
      </trkpt>
      <trkpt lat="49.38274" lon="1.13206">
        <ele>103</ele>
        <time>2013-05-05T06:54:24Z</time>
      </trkpt>
      <trkpt lat="49.38254" lon="1.13204">
        <ele>103</ele>
        <time>2013-05-05T06:54:28Z</time>
      </trkpt>
      <trkpt lat="49.38238" lon="1.13189">
        <ele>104</ele>
        <time>2013-05-05T06:54:42Z</time>
      </trkpt>
      <trkpt lat="49.38227" lon="1.13164">
        <ele>97</ele>
        <time>2013-05-05T06:54:50Z</time>
      </trkpt>
      <trkpt lat="49.38216" lon="1.13136">
        <ele>97</ele>
        <time>2013-05-05T06:54:56Z</time>
      </trkpt>
      <trkpt lat="49.38206" lon="1.13105">
        <ele>97</ele>
        <time>2013-05-05T06:55:01Z</time>
      </trkpt>
      <trkpt lat="49.38201" lon="1.13076">
        <ele>95</ele>
        <time>2013-05-05T06:55:05Z</time>
      </trkpt>
      <trkpt lat="49.38194" lon="1.13047">
        <ele>95</ele>
        <time>2013-05-05T06:55:10Z</time>
      </trkpt>
      <trkpt lat="49.38192" lon="1.13016">
        <ele>95</ele>
        <time>2013-05-05T06:55:18Z</time>
      </trkpt>
      <trkpt lat="49.38191" lon="1.12987">
        <ele>95</ele>
        <time>2013-05-05T06:55:26Z</time>
      </trkpt>
      <trkpt lat="49.38189" lon="1.12958">
        <ele>95</ele>
        <time>2013-05-05T06:55:36Z</time>
      </trkpt>
      <trkpt lat="49.38196" lon="1.12932">
        <ele>95</ele>
        <time>2013-05-05T06:56:00Z</time>
      </trkpt>
      <trkpt lat="49.38207" lon="1.12908">
        <ele>93</ele>
        <time>2013-05-05T06:56:13Z</time>
      </trkpt>
      <trkpt lat="49.38226" lon="1.12893">
        <ele>93</ele>
        <time>2013-05-05T06:56:20Z</time>
      </trkpt>
      <trkpt lat="49.38231" lon="1.12863">
        <ele>93</ele>
        <time>2013-05-05T06:56:25Z</time>
      </trkpt>
      <trkpt lat="49.38232" lon="1.12833">
        <ele>93</ele>
        <time>2013-05-05T06:56:30Z</time>
      </trkpt>
      <trkpt lat="49.3824" lon="1.12808">
        <ele>82</ele>
        <time>2013-05-05T06:56:56Z</time>
      </trkpt>
      <trkpt lat="49.38231" lon="1.12784">
        <ele>82</ele>
        <time>2013-05-05T06:57:19Z</time>
      </trkpt>
      <trkpt lat="49.38213" lon="1.12787">
        <ele>82</ele>
        <time>2013-05-05T06:57:49Z</time>
      </trkpt>
      <trkpt lat="49.38193" lon="1.12798">
        <ele>82</ele>
        <time>2013-05-05T06:58:04Z</time>
      </trkpt>
      <trkpt lat="49.38175" lon="1.12809">
        <ele>82</ele>
        <time>2013-05-05T06:58:09Z</time>
      </trkpt>
      <trkpt lat="49.38157" lon="1.12816">
        <ele>79</ele>
        <time>2013-05-05T06:58:13Z</time>
      </trkpt>
      <trkpt lat="49.38144" lon="1.12835">
        <ele>94</ele>
        <time>2013-05-05T06:58:18Z</time>
      </trkpt>
      <trkpt lat="49.3813" lon="1.12855">
        <ele>94</ele>
        <time>2013-05-05T06:58:26Z</time>
      </trkpt>
      <trkpt lat="49.38117" lon="1.12878">
        <ele>94</ele>
        <time>2013-05-05T06:58:34Z</time>
      </trkpt>
      <trkpt lat="49.38098" lon="1.12888">
        <ele>94</ele>
        <time>2013-05-05T06:58:39Z</time>
      </trkpt>
      <trkpt lat="49.38078" lon="1.12892">
        <ele>76</ele>
        <time>2013-05-05T06:58:46Z</time>
      </trkpt>
      <trkpt lat="49.3806" lon="1.12904">
        <ele>76</ele>
        <time>2013-05-05T06:58:56Z</time>
      </trkpt>
      <trkpt lat="49.38062" lon="1.12932">
        <ele>87</ele>
        <time>2013-05-05T06:59:11Z</time>
      </trkpt>
      <trkpt lat="49.38057" lon="1.12963">
        <ele>87</ele>
        <time>2013-05-05T06:59:21Z</time>
      </trkpt>
      <trkpt lat="49.38058" lon="1.12991">
        <ele>87</ele>
        <time>2013-05-05T06:59:32Z</time>
      </trkpt>
      <trkpt lat="49.38062" lon="1.1302">
        <ele>101</ele>
        <time>2013-05-05T06:59:42Z</time>
      </trkpt>
      <trkpt lat="49.38069" lon="1.13047">
        <ele>101</ele>
        <time>2013-05-05T07:00:03Z</time>
      </trkpt>
      <trkpt lat="49.38068" lon="1.13075">
        <ele>101</ele>
        <time>2013-05-05T07:00:19Z</time>
      </trkpt>
      <trkpt lat="49.38055" lon="1.13095">
        <ele>117</ele>
        <time>2013-05-05T07:00:34Z</time>
      </trkpt>
      <trkpt lat="49.38054" lon="1.13123">
        <ele>117</ele>
        <time>2013-05-05T07:00:47Z</time>
      </trkpt>
      <trkpt lat="49.38047" lon="1.13149">
        <ele>117</ele>
        <time>2013-05-05T07:01:01Z</time>
      </trkpt>
      <trkpt lat="49.38042" lon="1.13177">
        <ele>129</ele>
        <time>2013-05-05T07:01:30Z</time>
      </trkpt>
      <trkpt lat="49.38045" lon="1.13208">
        <ele>129</ele>
        <time>2013-05-05T07:01:38Z</time>
      </trkpt>
      <trkpt lat="49.38042" lon="1.13236">
        <ele>129</ele>
        <time>2013-05-05T07:01:51Z</time>
      </trkpt>
      <trkpt lat="49.38046" lon="1.13263">
        <ele>135</ele>
        <time>2013-05-05T07:02:04Z</time>
      </trkpt>
      <trkpt lat="49.38047" lon="1.13293">
        <ele>135</ele>
        <time>2013-05-05T07:02:15Z</time>
      </trkpt>
      <trkpt lat="49.38047" lon="1.13322">
        <ele>135</ele>
        <time>2013-05-05T07:02:27Z</time>
      </trkpt>
      <trkpt lat="49.38053" lon="1.13351">
        <ele>138</ele>
        <time>2013-05-05T07:02:37Z</time>
      </trkpt>
      <trkpt lat="49.3806" lon="1.13379">
        <ele>138</ele>
        <time>2013-05-05T07:02:45Z</time>
      </trkpt>
      <trkpt lat="49.38072" lon="1.13407">
        <ele>138</ele>
        <time>2013-05-05T07:02:53Z</time>
      </trkpt>
      <trkpt lat="49.38087" lon="1.13431">
        <ele>135</ele>
        <time>2013-05-05T07:02:58Z</time>
      </trkpt>
      <trkpt lat="49.381" lon="1.13452">
        <ele>135</ele>
        <time>2013-05-05T07:03:02Z</time>
      </trkpt>
      <trkpt lat="49.38119" lon="1.1347">
        <ele>135</ele>
        <time>2013-05-05T07:03:06Z</time>
      </trkpt>
      <trkpt lat="49.38135" lon="1.13488">
        <ele>135</ele>
        <time>2013-05-05T07:03:11Z</time>
      </trkpt>
      <trkpt lat="49.38152" lon="1.13505">
        <ele>136</ele>
        <time>2013-05-05T07:03:16Z</time>
      </trkpt>
      <trkpt lat="49.38169" lon="1.13523">
        <ele>136</ele>
        <time>2013-05-05T07:03:21Z</time>
      </trkpt>
      <trkpt lat="49.38185" lon="1.13543">
        <ele>136</ele>
        <time>2013-05-05T07:03:26Z</time>
      </trkpt>
      <trkpt lat="49.38202" lon="1.13562">
        <ele>136</ele>
        <time>2013-05-05T07:03:32Z</time>
      </trkpt>
      <trkpt lat="49.38215" lon="1.13585">
        <ele>137</ele>
        <time>2013-05-05T07:03:39Z</time>
      </trkpt>
      <trkpt lat="49.38225" lon="1.13609">
        <ele>137</ele>
        <time>2013-05-05T07:03:47Z</time>
      </trkpt>
      <trkpt lat="49.3823" lon="1.13636">
        <ele>137</ele>
        <time>2013-05-05T07:03:52Z</time>
      </trkpt>
      <trkpt lat="49.38241" lon="1.13663">
        <ele>137</ele>
        <time>2013-05-05T07:03:56Z</time>
      </trkpt>
      <trkpt lat="49.3825" lon="1.13687">
        <ele>133</ele>
        <time>2013-05-05T07:04:00Z</time>
      </trkpt>
      <trkpt lat="49.38261" lon="1.13709">
        <ele>137</ele>
        <time>2013-05-05T07:04:04Z</time>
      </trkpt>
      <trkpt lat="49.38275" lon="1.13734">
        <ele>137</ele>
        <time>2013-05-05T07:04:09Z</time>
      </trkpt>
      <trkpt lat="49.3829" lon="1.13756">
        <ele>135</ele>
        <time>2013-05-05T07:04:14Z</time>
      </trkpt>
      <trkpt lat="49.38307" lon="1.13771">
        <ele>135</ele>
        <time>2013-05-05T07:04:18Z</time>
      </trkpt>
      <trkpt lat="49.38322" lon="1.13791">
        <ele>135</ele>
        <time>2013-05-05T07:04:23Z</time>
      </trkpt>
      <trkpt lat="49.38339" lon="1.13808">
        <ele>137</ele>
        <time>2013-05-05T07:04:28Z</time>
      </trkpt>
      <trkpt lat="49.38356" lon="1.13827">
        <ele>137</ele>
        <time>2013-05-05T07:04:33Z</time>
      </trkpt>
      <trkpt lat="49.38372" lon="1.13846">
        <ele>138</ele>
        <time>2013-05-05T07:04:38Z</time>
      </trkpt>
      <trkpt lat="49.38387" lon="1.13867">
        <ele>138</ele>
        <time>2013-05-05T07:04:43Z</time>
      </trkpt>
      <trkpt lat="49.38402" lon="1.13887">
        <ele>138</ele>
        <time>2013-05-05T07:04:48Z</time>
      </trkpt>
      <trkpt lat="49.38417" lon="1.13911">
        <ele>139</ele>
        <time>2013-05-05T07:04:53Z</time>
      </trkpt>
      <trkpt lat="49.38429" lon="1.13931">
        <ele>139</ele>
        <time>2013-05-05T07:04:57Z</time>
      </trkpt>
      <trkpt lat="49.38422" lon="1.13957">
        <ele>139</ele>
        <time>2013-05-05T07:05:05Z</time>
      </trkpt>
      <trkpt lat="49.38409" lon="1.13976">
        <ele>139</ele>
        <time>2013-05-05T07:05:10Z</time>
      </trkpt>
      <trkpt lat="49.38396" lon="1.13997">
        <ele>139</ele>
        <time>2013-05-05T07:05:14Z</time>
      </trkpt>
      <trkpt lat="49.38381" lon="1.1402">
        <ele>139</ele>
        <time>2013-05-05T07:05:18Z</time>
      </trkpt>
      <trkpt lat="49.38366" lon="1.14044">
        <ele>139</ele>
        <time>2013-05-05T07:05:22Z</time>
      </trkpt>
      <trkpt lat="49.3835" lon="1.1407">
        <ele>139</ele>
        <time>2013-05-05T07:05:26Z</time>
      </trkpt>
      <trkpt lat="49.38337" lon="1.1409">
        <ele>137</ele>
        <time>2013-05-05T07:05:29Z</time>
      </trkpt>
      <trkpt lat="49.38322" lon="1.14115">
        <ele>135</ele>
        <time>2013-05-05T07:05:33Z</time>
      </trkpt>
      <trkpt lat="49.38311" lon="1.1414">
        <ele>135</ele>
        <time>2013-05-05T07:05:37Z</time>
      </trkpt>
      <trkpt lat="49.38323" lon="1.14162">
        <ele>135</ele>
        <time>2013-05-05T07:05:41Z</time>
      </trkpt>
      <trkpt lat="49.38335" lon="1.14186">
        <ele>136</ele>
        <time>2013-05-05T07:05:45Z</time>
      </trkpt>
      <trkpt lat="49.38345" lon="1.14209">
        <ele>136</ele>
        <time>2013-05-05T07:05:49Z</time>
      </trkpt>
      <trkpt lat="49.38352" lon="1.14235">
        <ele>136</ele>
        <time>2013-05-05T07:05:53Z</time>
      </trkpt>
      <trkpt lat="49.38358" lon="1.14263">
        <ele>131</ele>
        <time>2013-05-05T07:05:58Z</time>
      </trkpt>
      <trkpt lat="49.38369" lon="1.14285">
        <ele>131</ele>
        <time>2013-05-05T07:06:02Z</time>
      </trkpt>
      <trkpt lat="49.3838" lon="1.14313">
        <ele>131</ele>
        <time>2013-05-05T07:06:07Z</time>
      </trkpt>
      <trkpt lat="49.38399" lon="1.14323">
        <ele>131</ele>
        <time>2013-05-05T07:06:12Z</time>
      </trkpt>
      <trkpt lat="49.38413" lon="1.14348">
        <ele>128</ele>
        <time>2013-05-05T07:06:16Z</time>
      </trkpt>
      <trkpt lat="49.38415" lon="1.14376">
        <ele>128</ele>
        <time>2013-05-05T07:06:19Z</time>
      </trkpt>
      <trkpt lat="49.38423" lon="1.14401">
        <ele>139</ele>
        <time>2013-05-05T07:06:22Z</time>
      </trkpt>
      <trkpt lat="49.38441" lon="1.14422">
        <ele>136</ele>
        <time>2013-05-05T07:06:26Z</time>
      </trkpt>
      <trkpt lat="49.38457" lon="1.14437">
        <ele>136</ele>
        <time>2013-05-05T07:06:31Z</time>
      </trkpt>
      <trkpt lat="49.38472" lon="1.14459">
        <ele>136</ele>
        <time>2013-05-05T07:06:35Z</time>
      </trkpt>
      <trkpt lat="49.38491" lon="1.14453">
        <ele>136</ele>
        <time>2013-05-05T07:06:39Z</time>
      </trkpt>
      <trkpt lat="49.38509" lon="1.14448">
        <ele>140</ele>
        <time>2013-05-05T07:06:43Z</time>
      </trkpt>
      <trkpt lat="49.38528" lon="1.1446">
        <ele>140</ele>
        <time>2013-05-05T07:06:48Z</time>
      </trkpt>
      <trkpt lat="49.3854" lon="1.14484">
        <ele>140</ele>
        <time>2013-05-05T07:06:52Z</time>
      </trkpt>
      <trkpt lat="49.38557" lon="1.14504">
        <ele>141</ele>
        <time>2013-05-05T07:06:57Z</time>
      </trkpt>
      <trkpt lat="49.38572" lon="1.14521">
        <ele>141</ele>
        <time>2013-05-05T07:07:01Z</time>
      </trkpt>
      <trkpt lat="49.38587" lon="1.1454">
        <ele>141</ele>
        <time>2013-05-05T07:07:06Z</time>
      </trkpt>
      <trkpt lat="49.38592" lon="1.14569">
        <ele>141</ele>
        <time>2013-05-05T07:07:13Z</time>
      </trkpt>
      <trkpt lat="49.38585" lon="1.14596">
        <ele>140</ele>
        <time>2013-05-05T07:07:18Z</time>
      </trkpt>
      <trkpt lat="49.38598" lon="1.14618">
        <ele>140</ele>
        <time>2013-05-05T07:07:44Z</time>
      </trkpt>
      <trkpt lat="49.38616" lon="1.14635">
        <ele>140</ele>
        <time>2013-05-05T07:07:50Z</time>
      </trkpt>
      <trkpt lat="49.38633" lon="1.14649">
        <ele>140</ele>
        <time>2013-05-05T07:07:56Z</time>
      </trkpt>
      <trkpt lat="49.38649" lon="1.14662">
        <ele>140</ele>
        <time>2013-05-05T07:08:01Z</time>
      </trkpt>
      <trkpt lat="49.38659" lon="1.14686">
        <ele>134</ele>
        <time>2013-05-05T07:08:12Z</time>
      </trkpt>
      <trkpt lat="49.38642" lon="1.14701">
        <ele>134</ele>
        <time>2013-05-05T07:08:22Z</time>
      </trkpt>
      <trkpt lat="49.38639" lon="1.14729">
        <ele>134</ele>
        <time>2013-05-05T07:08:30Z</time>
      </trkpt>
      <trkpt lat="49.38643" lon="1.14759">
        <ele>110</ele>
        <time>2013-05-05T07:08:38Z</time>
      </trkpt>
      <trkpt lat="49.38651" lon="1.14788">
        <ele>110</ele>
        <time>2013-05-05T07:08:44Z</time>
      </trkpt>
      <trkpt lat="49.38658" lon="1.14814">
        <ele>110</ele>
        <time>2013-05-05T07:08:52Z</time>
      </trkpt>
      <trkpt lat="49.38662" lon="1.14842">
        <ele>89</ele>
        <time>2013-05-05T07:09:17Z</time>
      </trkpt>
      <trkpt lat="49.38676" lon="1.14867">
        <ele>100</ele>
        <time>2013-05-05T07:09:22Z</time>
      </trkpt>
      <trkpt lat="49.3869" lon="1.14885">
        <ele>100</ele>
        <time>2013-05-05T07:09:29Z</time>
      </trkpt>
      <trkpt lat="49.38704" lon="1.14903">
        <ele>100</ele>
        <time>2013-05-05T07:09:50Z</time>
      </trkpt>
      <trkpt lat="49.38707" lon="1.14931">
        <ele>82</ele>
        <time>2013-05-05T07:10:21Z</time>
      </trkpt>
      <trkpt lat="49.38688" lon="1.14937">
        <ele>82</ele>
        <time>2013-05-05T07:10:31Z</time>
      </trkpt>
      <trkpt lat="49.38669" lon="1.14922">
        <ele>82</ele>
        <time>2013-05-05T07:10:36Z</time>
      </trkpt>
      <trkpt lat="49.38648" lon="1.14911">
        <ele>89</ele>
        <time>2013-05-05T07:10:41Z</time>
      </trkpt>
      <trkpt lat="49.3863" lon="1.14903">
        <ele>89</ele>
        <time>2013-05-05T07:10:45Z</time>
      </trkpt>
      <trkpt lat="49.38611" lon="1.14899">
        <ele>89</ele>
        <time>2013-05-05T07:10:50Z</time>
      </trkpt>
      <trkpt lat="49.38593" lon="1.14896">
        <ele>89</ele>
        <time>2013-05-05T07:10:56Z</time>
      </trkpt>
      <trkpt lat="49.38574" lon="1.1489">
        <ele>83</ele>
        <time>2013-05-05T07:11:02Z</time>
      </trkpt>
      <trkpt lat="49.38556" lon="1.14889">
        <ele>83</ele>
        <time>2013-05-05T07:11:09Z</time>
      </trkpt>
      <trkpt lat="49.38537" lon="1.14884">
        <ele>83</ele>
        <time>2013-05-05T07:11:20Z</time>
      </trkpt>
      <trkpt lat="49.38516" lon="1.14891">
        <ele>83</ele>
        <time>2013-05-05T07:11:27Z</time>
      </trkpt>
      <trkpt lat="49.38497" lon="1.14889">
        <ele>74</ele>
        <time>2013-05-05T07:11:41Z</time>
      </trkpt>
      <trkpt lat="49.38478" lon="1.14889">
        <ele>74</ele>
        <time>2013-05-05T07:11:47Z</time>
      </trkpt>
      <trkpt lat="49.3846" lon="1.1489">
        <ele>74</ele>
        <time>2013-05-05T07:11:52Z</time>
      </trkpt>
      <trkpt lat="49.38439" lon="1.14888">
        <ele>74</ele>
        <time>2013-05-05T07:12:00Z</time>
      </trkpt>
      <trkpt lat="49.38419" lon="1.1489">
        <ele>74</ele>
        <time>2013-05-05T07:12:05Z</time>
      </trkpt>
      <trkpt lat="49.384" lon="1.14891">
        <ele>66</ele>
        <time>2013-05-05T07:12:10Z</time>
      </trkpt>
      <trkpt lat="49.38384" lon="1.14879">
        <ele>66</ele>
        <time>2013-05-05T07:12:20Z</time>
      </trkpt>
      <trkpt lat="49.38368" lon="1.14858">
        <ele>66</ele>
        <time>2013-05-05T07:12:27Z</time>
      </trkpt>
      <trkpt lat="49.38352" lon="1.14837">
        <ele>66</ele>
        <time>2013-05-05T07:12:32Z</time>
      </trkpt>
      <trkpt lat="49.38338" lon="1.14818">
        <ele>69</ele>
        <time>2013-05-05T07:12:36Z</time>
      </trkpt>
      <trkpt lat="49.38324" lon="1.14793">
        <ele>70</ele>
        <time>2013-05-05T07:12:40Z</time>
      </trkpt>
      <trkpt lat="49.38311" lon="1.14764">
        <ele>70</ele>
        <time>2013-05-05T07:12:43Z</time>
      </trkpt>
      <trkpt lat="49.38303" lon="1.14739">
        <ele>61</ele>
        <time>2013-05-05T07:12:46Z</time>
      </trkpt>
      <trkpt lat="49.38285" lon="1.14718">
        <ele>61</ele>
        <time>2013-05-05T07:12:50Z</time>
      </trkpt>
      <trkpt lat="49.38272" lon="1.14694">
        <ele>61</ele>
        <time>2013-05-05T07:12:54Z</time>
      </trkpt>
      <trkpt lat="49.3826" lon="1.14671">
        <ele>61</ele>
        <time>2013-05-05T07:12:58Z</time>
      </trkpt>
      <trkpt lat="49.38247" lon="1.14647">
        <ele>71</ele>
        <time>2013-05-05T07:13:04Z</time>
      </trkpt>
      <trkpt lat="49.38237" lon="1.14618">
        <ele>71</ele>
        <time>2013-05-05T07:13:10Z</time>
      </trkpt>
      <trkpt lat="49.38228" lon="1.14592">
        <ele>71</ele>
        <time>2013-05-05T07:13:13Z</time>
      </trkpt>
      <trkpt lat="49.38218" lon="1.14565">
        <ele>59</ele>
        <time>2013-05-05T07:13:17Z</time>
      </trkpt>
      <trkpt lat="49.38204" lon="1.14538">
        <ele>59</ele>
        <time>2013-05-05T07:13:21Z</time>
      </trkpt>
      <trkpt lat="49.38196" lon="1.14512">
        <ele>59</ele>
        <time>2013-05-05T07:13:25Z</time>
      </trkpt>
      <trkpt lat="49.38182" lon="1.14487">
        <ele>56</ele>
        <time>2013-05-05T07:13:29Z</time>
      </trkpt>
      <trkpt lat="49.38169" lon="1.14461">
        <ele>56</ele>
        <time>2013-05-05T07:13:33Z</time>
      </trkpt>
      <trkpt lat="49.38152" lon="1.14438">
        <ele>61</ele>
        <time>2013-05-05T07:13:37Z</time>
      </trkpt>
      <trkpt lat="49.38137" lon="1.14419">
        <ele>61</ele>
        <time>2013-05-05T07:13:41Z</time>
      </trkpt>
      <trkpt lat="49.38121" lon="1.14396">
        <ele>53</ele>
        <time>2013-05-05T07:13:45Z</time>
      </trkpt>
      <trkpt lat="49.38108" lon="1.14371">
        <ele>53</ele>
        <time>2013-05-05T07:13:49Z</time>
      </trkpt>
      <trkpt lat="49.38091" lon="1.1435">
        <ele>53</ele>
        <time>2013-05-05T07:13:54Z</time>
      </trkpt>
      <trkpt lat="49.38075" lon="1.14336">
        <ele>56</ele>
        <time>2013-05-05T07:13:58Z</time>
      </trkpt>
      <trkpt lat="49.38058" lon="1.14323">
        <ele>49</ele>
        <time>2013-05-05T07:14:02Z</time>
      </trkpt>
      <trkpt lat="49.38042" lon="1.14299">
        <ele>49</ele>
        <time>2013-05-05T07:14:05Z</time>
      </trkpt>
      <trkpt lat="49.38025" lon="1.14273">
        <ele>49</ele>
        <time>2013-05-05T07:14:10Z</time>
      </trkpt>
      <trkpt lat="49.38006" lon="1.14256">
        <ele>49</ele>
        <time>2013-05-05T07:14:15Z</time>
      </trkpt>
      <trkpt lat="49.37991" lon="1.14239">
        <ele>46</ele>
        <time>2013-05-05T07:14:18Z</time>
      </trkpt>
      <trkpt lat="49.37971" lon="1.14218">
        <ele>46</ele>
        <time>2013-05-05T07:14:22Z</time>
      </trkpt>
      <trkpt lat="49.37953" lon="1.14199">
        <ele>46</ele>
        <time>2013-05-05T07:14:27Z</time>
      </trkpt>
      <trkpt lat="49.37937" lon="1.1418">
        <ele>46</ele>
        <time>2013-05-05T07:14:33Z</time>
      </trkpt>
      <trkpt lat="49.37918" lon="1.14161">
        <ele>49</ele>
        <time>2013-05-05T07:14:40Z</time>
      </trkpt>
      <trkpt lat="49.37906" lon="1.1414">
        <ele>40</ele>
        <time>2013-05-05T07:14:44Z</time>
      </trkpt>
      <trkpt lat="49.37891" lon="1.14118">
        <ele>40</ele>
        <time>2013-05-05T07:14:49Z</time>
      </trkpt>
      <trkpt lat="49.37878" lon="1.14098">
        <ele>40</ele>
        <time>2013-05-05T07:14:52Z</time>
      </trkpt>
      <trkpt lat="49.37858" lon="1.14085">
        <ele>40</ele>
        <time>2013-05-05T07:14:56Z</time>
      </trkpt>
      <trkpt lat="49.37841" lon="1.14073">
        <ele>45</ele>
        <time>2013-05-05T07:15:00Z</time>
      </trkpt>
      <trkpt lat="49.37826" lon="1.14053">
        <ele>37</ele>
        <time>2013-05-05T07:15:11Z</time>
      </trkpt>
      <trkpt lat="49.3782" lon="1.14026">
        <ele>37</ele>
        <time>2013-05-05T07:15:24Z</time>
      </trkpt>
      <trkpt lat="49.37831" lon="1.14002">
        <ele>37</ele>
        <time>2013-05-05T07:15:44Z</time>
      </trkpt>
      <trkpt lat="49.3784" lon="1.13978">
        <ele>61</ele>
        <time>2013-05-05T07:15:58Z</time>
      </trkpt>
      <trkpt lat="49.37849" lon="1.13952">
        <ele>61</ele>
        <time>2013-05-05T07:16:12Z</time>
      </trkpt>
      <trkpt lat="49.37857" lon="1.13927">
        <ele>61</ele>
        <time>2013-05-05T07:16:28Z</time>
      </trkpt>
      <trkpt lat="49.37857" lon="1.13899">
        <ele>85</ele>
        <time>2013-05-05T07:16:51Z</time>
      </trkpt>
      <trkpt lat="49.37869" lon="1.13879">
        <ele>85</ele>
        <time>2013-05-05T07:18:51Z</time>
      </trkpt>
      <trkpt lat="49.3788" lon="1.13856">
        <ele>85</ele>
        <time>2013-05-05T07:19:12Z</time>
      </trkpt>
      <trkpt lat="49.37863" lon="1.13844">
        <ele>85</ele>
        <time>2013-05-05T07:20:37Z</time>
      </trkpt>
      <trkpt lat="49.37845" lon="1.13854">
        <ele>85</ele>
        <time>2013-05-05T07:20:43Z</time>
      </trkpt>
      <trkpt lat="49.37827" lon="1.13867">
        <ele>76</ele>
        <time>2013-05-05T07:20:50Z</time>
      </trkpt>
      <trkpt lat="49.37808" lon="1.13876">
        <ele>76</ele>
        <time>2013-05-05T07:20:56Z</time>
      </trkpt>
      <trkpt lat="49.37787" lon="1.13865">
        <ele>76</ele>
        <time>2013-05-05T07:21:02Z</time>
      </trkpt>
      <trkpt lat="49.37762" lon="1.13847">
        <ele>76</ele>
        <time>2013-05-05T07:21:06Z</time>
      </trkpt>
      <trkpt lat="49.37743" lon="1.13845">
        <ele>68</ele>
        <time>2013-05-05T07:21:10Z</time>
      </trkpt>
      <trkpt lat="49.37736" lon="1.13872">
        <ele>68</ele>
        <time>2013-05-05T07:21:14Z</time>
      </trkpt>
      <trkpt lat="49.37718" lon="1.13885">
        <ele>68</ele>
        <time>2013-05-05T07:21:19Z</time>
      </trkpt>
      <trkpt lat="49.37698" lon="1.1389">
        <ele>68</ele>
        <time>2013-05-05T07:21:28Z</time>
      </trkpt>
      <trkpt lat="49.37675" lon="1.13885">
        <ele>68</ele>
        <time>2013-05-05T07:21:30Z</time>
      </trkpt>
      <trkpt lat="49.37655" lon="1.13883">
        <ele>54</ele>
        <time>2013-05-05T07:21:33Z</time>
      </trkpt>
      <trkpt lat="49.37637" lon="1.13875">
        <ele>54</ele>
        <time>2013-05-05T07:21:35Z</time>
      </trkpt>
      <trkpt lat="49.37614" lon="1.13871">
        <ele>54</ele>
        <time>2013-05-05T07:21:38Z</time>
      </trkpt>
      <trkpt lat="49.37593" lon="1.13866">
        <ele>54</ele>
        <time>2013-05-05T07:21:40Z</time>
      </trkpt>
      <trkpt lat="49.37573" lon="1.13859">
        <ele>37</ele>
        <time>2013-05-05T07:21:42Z</time>
      </trkpt>
      <trkpt lat="49.37548" lon="1.13842">
        <ele>37</ele>
        <time>2013-05-05T07:21:45Z</time>
      </trkpt>
      <trkpt lat="49.3753" lon="1.13836">
        <ele>37</ele>
        <time>2013-05-05T07:21:47Z</time>
      </trkpt>
      <trkpt lat="49.37511" lon="1.13833">
        <ele>54</ele>
        <time>2013-05-05T07:21:49Z</time>
      </trkpt>
      <trkpt lat="49.37489" lon="1.1382">
        <ele>31</ele>
        <time>2013-05-05T07:21:52Z</time>
      </trkpt>
      <trkpt lat="49.3747" lon="1.13804">
        <ele>31</ele>
        <time>2013-05-05T07:21:55Z</time>
      </trkpt>
      <trkpt lat="49.37458" lon="1.13781">
        <ele>31</ele>
        <time>2013-05-05T07:21:59Z</time>
      </trkpt>
      <trkpt lat="49.37451" lon="1.13754">
        <ele>31</ele>
        <time>2013-05-05T07:22:12Z</time>
      </trkpt>
      <trkpt lat="49.37466" lon="1.13739">
        <ele>37</ele>
        <time>2013-05-05T07:22:35Z</time>
      </trkpt>
      <trkpt lat="49.37474" lon="1.13713">
        <ele>37</ele>
        <time>2013-05-05T07:22:56Z</time>
      </trkpt>
      <trkpt lat="49.3747" lon="1.13685">
        <ele>37</ele>
        <time>2013-05-05T07:23:08Z</time>
      </trkpt>
      <trkpt lat="49.37455" lon="1.1367">
        <ele>37</ele>
        <time>2013-05-05T07:23:57Z</time>
      </trkpt>
      <trkpt lat="49.3745" lon="1.13641">
        <ele>60</ele>
        <time>2013-05-05T07:25:07Z</time>
      </trkpt>
      <trkpt lat="49.37444" lon="1.13613">
        <ele>60</ele>
        <time>2013-05-05T07:25:19Z</time>
      </trkpt>
      <trkpt lat="49.37441" lon="1.13586">
        <ele>60</ele>
        <time>2013-05-05T07:25:31Z</time>
      </trkpt>
      <trkpt lat="49.37432" lon="1.13562">
        <ele>80</ele>
        <time>2013-05-05T07:25:48Z</time>
      </trkpt>
      <trkpt lat="49.37424" lon="1.13537">
        <ele>80</ele>
        <time>2013-05-05T07:26:33Z</time>
      </trkpt>
      <trkpt lat="49.37417" lon="1.1351">
        <ele>80</ele>
        <time>2013-05-05T07:26:53Z</time>
      </trkpt>
      <trkpt lat="49.37418" lon="1.13481">
        <ele>95</ele>
        <time>2013-05-05T07:27:13Z</time>
      </trkpt>
      <trkpt lat="49.37416" lon="1.13454">
        <ele>56</ele>
        <time>2013-05-05T07:27:36Z</time>
      </trkpt>
      <trkpt lat="49.37405" lon="1.13429">
        <ele>56</ele>
        <time>2013-05-05T07:27:53Z</time>
      </trkpt>
      <trkpt lat="49.37393" lon="1.13406">
        <ele>71</ele>
        <time>2013-05-05T07:28:02Z</time>
      </trkpt>
      <trkpt lat="49.37384" lon="1.13382">
        <ele>71</ele>
        <time>2013-05-05T07:28:10Z</time>
      </trkpt>
      <trkpt lat="49.37384" lon="1.13353">
        <ele>71</ele>
        <time>2013-05-05T07:28:18Z</time>
      </trkpt>
      <trkpt lat="49.3738" lon="1.13324">
        <ele>83</ele>
        <time>2013-05-05T07:28:28Z</time>
      </trkpt>
      <trkpt lat="49.37371" lon="1.133">
        <ele>83</ele>
        <time>2013-05-05T07:28:35Z</time>
      </trkpt>
      <trkpt lat="49.37363" lon="1.13275">
        <ele>83</ele>
        <time>2013-05-05T07:28:43Z</time>
      </trkpt>
      <trkpt lat="49.37358" lon="1.13245">
        <ele>90</ele>
        <time>2013-05-05T07:28:50Z</time>
      </trkpt>
      <trkpt lat="49.37355" lon="1.13214">
        <ele>90</ele>
        <time>2013-05-05T07:28:56Z</time>
      </trkpt>
      <trkpt lat="49.3735" lon="1.13185">
        <ele>90</ele>
        <time>2013-05-05T07:29:02Z</time>
      </trkpt>
      <trkpt lat="49.37347" lon="1.13157">
        <ele>100</ele>
        <time>2013-05-05T07:29:08Z</time>
      </trkpt>
      <trkpt lat="49.37347" lon="1.13129">
        <ele>100</ele>
        <time>2013-05-05T07:29:19Z</time>
      </trkpt>
      <trkpt lat="49.37349" lon="1.13102">
        <ele>100</ele>
        <time>2013-05-05T07:29:36Z</time>
      </trkpt>
      <trkpt lat="49.37348" lon="1.13073">
        <ele>107</ele>
        <time>2013-05-05T07:29:51Z</time>
      </trkpt>
      <trkpt lat="49.37338" lon="1.13048">
        <ele>107</ele>
        <time>2013-05-05T07:30:03Z</time>
      </trkpt>
      <trkpt lat="49.37332" lon="1.13021">
        <ele>83</ele>
        <time>2013-05-05T07:30:16Z</time>
      </trkpt>
      <trkpt lat="49.37335" lon="1.12994">
        <ele>106</ele>
        <time>2013-05-05T07:30:30Z</time>
      </trkpt>
      <trkpt lat="49.37325" lon="1.12966">
        <ele>92</ele>
        <time>2013-05-05T07:31:23Z</time>
      </trkpt>
      <trkpt lat="49.37311" lon="1.12945">
        <ele>92</ele>
        <time>2013-05-05T07:31:33Z</time>
      </trkpt>
      <trkpt lat="49.37294" lon="1.12936">
        <ele>92</ele>
        <time>2013-05-05T07:31:39Z</time>
      </trkpt>
      <trkpt lat="49.37275" lon="1.12926">
        <ele>92</ele>
        <time>2013-05-05T07:31:44Z</time>
      </trkpt>
      <trkpt lat="49.37255" lon="1.12912">
        <ele>87</ele>
        <time>2013-05-05T07:31:49Z</time>
      </trkpt>
      <trkpt lat="49.37238" lon="1.129">
        <ele>82</ele>
        <time>2013-05-05T07:31:53Z</time>
      </trkpt>
      <trkpt lat="49.37221" lon="1.12884">
        <ele>82</ele>
        <time>2013-05-05T07:31:58Z</time>
      </trkpt>
      <trkpt lat="49.37205" lon="1.12863">
        <ele>82</ele>
        <time>2013-05-05T07:32:03Z</time>
      </trkpt>
      <trkpt lat="49.37187" lon="1.12852">
        <ele>82</ele>
        <time>2013-05-05T07:32:10Z</time>
      </trkpt>
      <trkpt lat="49.37169" lon="1.12849">
        <ele>82</ele>
        <time>2013-05-05T07:32:15Z</time>
      </trkpt>
      <trkpt lat="49.37151" lon="1.12844">
        <ele>62</ele>
        <time>2013-05-05T07:32:18Z</time>
      </trkpt>
      <trkpt lat="49.37132" lon="1.12837">
        <ele>62</ele>
        <time>2013-05-05T07:32:22Z</time>
      </trkpt>
      <trkpt lat="49.37116" lon="1.12852">
        <ele>62</ele>
        <time>2013-05-05T07:32:28Z</time>
      </trkpt>
      <trkpt lat="49.37119" lon="1.1288">
        <ele>62</ele>
        <time>2013-05-05T07:32:42Z</time>
      </trkpt>
      <trkpt lat="49.37136" lon="1.12893">
        <ele>62</ele>
        <time>2013-05-05T07:32:47Z</time>
      </trkpt>
      <trkpt lat="49.37152" lon="1.12908">
        <ele>62</ele>
        <time>2013-05-05T07:32:52Z</time>
      </trkpt>
      <trkpt lat="49.37169" lon="1.12924">
        <ele>81</ele>
        <time>2013-05-05T07:32:57Z</time>
      </trkpt>
      <trkpt lat="49.37186" lon="1.12939">
        <ele>81</ele>
        <time>2013-05-05T07:33:02Z</time>
      </trkpt>
      <trkpt lat="49.37205" lon="1.1295">
        <ele>81</ele>
        <time>2013-05-05T07:33:08Z</time>
      </trkpt>
      <trkpt lat="49.37222" lon="1.12959">
        <ele>81</ele>
        <time>2013-05-05T07:33:14Z</time>
      </trkpt>
      <trkpt lat="49.37203" lon="1.12962">
        <ele>81</ele>
        <time>2013-05-05T07:33:33Z</time>
      </trkpt>
      <trkpt lat="49.37182" lon="1.12958">
        <ele>81</ele>
        <time>2013-05-05T07:33:36Z</time>
      </trkpt>
      <trkpt lat="49.37163" lon="1.1295">
        <ele>58</ele>
        <time>2013-05-05T07:33:40Z</time>
      </trkpt>
      <trkpt lat="49.37144" lon="1.12947">
        <ele>58</ele>
        <time>2013-05-05T07:33:45Z</time>
      </trkpt>
      <trkpt lat="49.37124" lon="1.1295">
        <ele>58</ele>
        <time>2013-05-05T07:33:52Z</time>
      </trkpt>
      <trkpt lat="49.37105" lon="1.12951">
        <ele>58</ele>
        <time>2013-05-05T07:34:01Z</time>
      </trkpt>
      <trkpt lat="49.37085" lon="1.12956">
        <ele>58</ele>
        <time>2013-05-05T07:34:11Z</time>
      </trkpt>
      <trkpt lat="49.37067" lon="1.1296">
        <ele>33</ele>
        <time>2013-05-05T07:34:18Z</time>
      </trkpt>
      <trkpt lat="49.37048" lon="1.12964">
        <ele>33</ele>
        <time>2013-05-05T07:34:26Z</time>
      </trkpt>
      <trkpt lat="49.37029" lon="1.12966">
        <ele>33</ele>
        <time>2013-05-05T07:34:35Z</time>
      </trkpt>
      <trkpt lat="49.37011" lon="1.12965">
        <ele>33</ele>
        <time>2013-05-05T07:34:41Z</time>
      </trkpt>
      <trkpt lat="49.36992" lon="1.12958">
        <ele>9</ele>
        <time>2013-05-05T07:34:48Z</time>
      </trkpt>
      <trkpt lat="49.36975" lon="1.12945">
        <ele>9</ele>
        <time>2013-05-05T07:34:59Z</time>
      </trkpt>
      <trkpt lat="49.36957" lon="1.1294">
        <ele>9</ele>
        <time>2013-05-05T07:35:07Z</time>
      </trkpt>
      <trkpt lat="49.36942" lon="1.12923">
        <ele>9</ele>
        <time>2013-05-05T07:35:18Z</time>
      </trkpt>
      <trkpt lat="49.36926" lon="1.12904">
        <ele>10</ele>
        <time>2013-05-05T07:35:25Z</time>
      </trkpt>
      <trkpt lat="49.36917" lon="1.12878">
        <ele>10</ele>
        <time>2013-05-05T07:35:30Z</time>
      </trkpt>
      <trkpt lat="49.36899" lon="1.12887">
        <ele>8</ele>
        <time>2013-05-05T07:35:37Z</time>
      </trkpt>
      <trkpt lat="49.36885" lon="1.1291">
        <ele>8</ele>
        <time>2013-05-05T07:35:43Z</time>
      </trkpt>
      <trkpt lat="49.36869" lon="1.12923">
        <ele>15</ele>
        <time>2013-05-05T07:35:55Z</time>
      </trkpt>
      <trkpt lat="49.36873" lon="1.12951">
        <ele>15</ele>
        <time>2013-05-05T07:36:03Z</time>
      </trkpt>
      <trkpt lat="49.36873" lon="1.12979">
        <ele>15</ele>
        <time>2013-05-05T07:36:11Z</time>
      </trkpt>
      <trkpt lat="49.36855" lon="1.12971">
        <ele>15</ele>
        <time>2013-05-05T07:36:28Z</time>
      </trkpt>
      <trkpt lat="49.36838" lon="1.12958">
        <ele>15</ele>
        <time>2013-05-05T07:36:38Z</time>
      </trkpt>
      <trkpt lat="49.36821" lon="1.12946">
        <ele>14</ele>
        <time>2013-05-05T07:36:55Z</time>
      </trkpt>
      <trkpt lat="49.36804" lon="1.12957">
        <ele>14</ele>
        <time>2013-05-05T07:37:07Z</time>
      </trkpt>
      <trkpt lat="49.36787" lon="1.12968">
        <ele>14</ele>
        <time>2013-05-05T07:37:22Z</time>
      </trkpt>
      <trkpt lat="49.36774" lon="1.12988">
        <ele>14</ele>
        <time>2013-05-05T07:37:37Z</time>
      </trkpt>
      <trkpt lat="49.3676" lon="1.13006">
        <ele>33</ele>
        <time>2013-05-05T07:37:51Z</time>
      </trkpt>
      <trkpt lat="49.36747" lon="1.13027">
        <ele>28</ele>
        <time>2013-05-05T07:38:12Z</time>
      </trkpt>
      <trkpt lat="49.36735" lon="1.13049">
        <ele>28</ele>
        <time>2013-05-05T07:38:29Z</time>
      </trkpt>
      <trkpt lat="49.36723" lon="1.13071">
        <ele>28</ele>
        <time>2013-05-05T07:39:41Z</time>
      </trkpt>
      <trkpt lat="49.36716" lon="1.13097">
        <ele>51</ele>
        <time>2013-05-05T07:39:52Z</time>
      </trkpt>
      <trkpt lat="49.36708" lon="1.13123">
        <ele>51</ele>
        <time>2013-05-05T07:40:06Z</time>
      </trkpt>
      <trkpt lat="49.36698" lon="1.13149">
        <ele>51</ele>
        <time>2013-05-05T07:40:17Z</time>
      </trkpt>
      <trkpt lat="49.36693" lon="1.13176">
        <ele>63</ele>
        <time>2013-05-05T07:40:29Z</time>
      </trkpt>
      <trkpt lat="49.36688" lon="1.13204">
        <ele>63</ele>
        <time>2013-05-05T07:40:43Z</time>
      </trkpt>
      <trkpt lat="49.3669" lon="1.13234">
        <ele>63</ele>
        <time>2013-05-05T07:41:03Z</time>
      </trkpt>
      <trkpt lat="49.36689" lon="1.13261">
        <ele>71</ele>
        <time>2013-05-05T07:41:17Z</time>
      </trkpt>
      <trkpt lat="49.36699" lon="1.13284">
        <ele>71</ele>
        <time>2013-05-05T07:41:28Z</time>
      </trkpt>
      <trkpt lat="49.36704" lon="1.13313">
        <ele>71</ele>
        <time>2013-05-05T07:41:45Z</time>
      </trkpt>
      <trkpt lat="49.3671" lon="1.13339">
        <ele>77</ele>
        <time>2013-05-05T07:42:01Z</time>
      </trkpt>
      <trkpt lat="49.36718" lon="1.13365">
        <ele>77</ele>
        <time>2013-05-05T07:42:17Z</time>
      </trkpt>
      <trkpt lat="49.36727" lon="1.1339">
        <ele>77</ele>
        <time>2013-05-05T07:42:33Z</time>
      </trkpt>
      <trkpt lat="49.36734" lon="1.13417">
        <ele>77</ele>
        <time>2013-05-05T07:42:49Z</time>
      </trkpt>
      <trkpt lat="49.36742" lon="1.13442">
        <ele>85</ele>
        <time>2013-05-05T07:43:05Z</time>
      </trkpt>
      <trkpt lat="49.36753" lon="1.13465">
        <ele>83</ele>
        <time>2013-05-05T07:43:18Z</time>
      </trkpt>
      <trkpt lat="49.36758" lon="1.13494">
        <ele>83</ele>
        <time>2013-05-05T07:43:31Z</time>
      </trkpt>
      <trkpt lat="49.36766" lon="1.13519">
        <ele>88</ele>
        <time>2013-05-05T07:43:45Z</time>
      </trkpt>
      <trkpt lat="49.36773" lon="1.13546">
        <ele>88</ele>
        <time>2013-05-05T07:44:01Z</time>
      </trkpt>
      <trkpt lat="49.36781" lon="1.13572">
        <ele>88</ele>
        <time>2013-05-05T07:44:15Z</time>
      </trkpt>
      <trkpt lat="49.36789" lon="1.13598">
        <ele>100</ele>
        <time>2013-05-05T07:44:35Z</time>
      </trkpt>
      <trkpt lat="49.36795" lon="1.13628">
        <ele>100</ele>
        <time>2013-05-05T07:45:15Z</time>
      </trkpt>
      <trkpt lat="49.36805" lon="1.13652">
        <ele>100</ele>
        <time>2013-05-05T07:45:39Z</time>
      </trkpt>
      <trkpt lat="49.36812" lon="1.13679">
        <ele>118</ele>
        <time>2013-05-05T07:45:55Z</time>
      </trkpt>
      <trkpt lat="49.36823" lon="1.13702">
        <ele>118</ele>
        <time>2013-05-05T07:46:13Z</time>
      </trkpt>
      <trkpt lat="49.36832" lon="1.13728">
        <ele>118</ele>
        <time>2013-05-05T07:46:47Z</time>
      </trkpt>
      <trkpt lat="49.3684" lon="1.13756">
        <ele>119</ele>
        <time>2013-05-05T07:46:57Z</time>
      </trkpt>
      <trkpt lat="49.36846" lon="1.13783">
        <ele>119</ele>
        <time>2013-05-05T07:47:07Z</time>
      </trkpt>
      <trkpt lat="49.36843" lon="1.1381">
        <ele>119</ele>
        <time>2013-05-05T07:47:25Z</time>
      </trkpt>
      <trkpt lat="49.36838" lon="1.13838">
        <ele>124</ele>
        <time>2013-05-05T07:47:43Z</time>
      </trkpt>
      <trkpt lat="49.36837" lon="1.13866">
        <ele>124</ele>
        <time>2013-05-05T07:47:53Z</time>
      </trkpt>
      <trkpt lat="49.36836" lon="1.13894">
        <ele>124</ele>
        <time>2013-05-05T07:51:08Z</time>
      </trkpt>
      <trkpt lat="49.36847" lon="1.13918">
        <ele>127</ele>
        <time>2013-05-05T07:51:14Z</time>
      </trkpt>
      <trkpt lat="49.36861" lon="1.13942">
        <ele>127</ele>
        <time>2013-05-05T07:51:20Z</time>
      </trkpt>
      <trkpt lat="49.36871" lon="1.13965">
        <ele>127</ele>
        <time>2013-05-05T07:51:25Z</time>
      </trkpt>
      <trkpt lat="49.36881" lon="1.1399">
        <ele>127</ele>
        <time>2013-05-05T07:51:31Z</time>
      </trkpt>
      <trkpt lat="49.36891" lon="1.14018">
        <ele>129</ele>
        <time>2013-05-05T07:51:38Z</time>
      </trkpt>
      <trkpt lat="49.36897" lon="1.14044">
        <ele>129</ele>
        <time>2013-05-05T07:51:44Z</time>
      </trkpt>
      <trkpt lat="49.36904" lon="1.1407">
        <ele>129</ele>
        <time>2013-05-05T07:51:50Z</time>
      </trkpt>
      <trkpt lat="49.36911" lon="1.14098">
        <ele>131</ele>
        <time>2013-05-05T07:51:56Z</time>
      </trkpt>
      <trkpt lat="49.36918" lon="1.14126">
        <ele>126</ele>
        <time>2013-05-05T07:52:02Z</time>
      </trkpt>
      <trkpt lat="49.36925" lon="1.14156">
        <ele>126</ele>
        <time>2013-05-05T07:52:08Z</time>
      </trkpt>
      <trkpt lat="49.36931" lon="1.14184">
        <ele>127</ele>
        <time>2013-05-05T07:52:14Z</time>
      </trkpt>
      <trkpt lat="49.36937" lon="1.14214">
        <ele>127</ele>
        <time>2013-05-05T07:52:20Z</time>
      </trkpt>
      <trkpt lat="49.36944" lon="1.1424">
        <ele>127</ele>
        <time>2013-05-05T07:52:26Z</time>
      </trkpt>
      <trkpt lat="49.36954" lon="1.14265">
        <ele>132</ele>
        <time>2013-05-05T07:52:32Z</time>
      </trkpt>
      <trkpt lat="49.36962" lon="1.14294">
        <ele>132</ele>
        <time>2013-05-05T07:52:38Z</time>
      </trkpt>
      <trkpt lat="49.36973" lon="1.14323">
        <ele>132</ele>
        <time>2013-05-05T07:52:44Z</time>
      </trkpt>
      <trkpt lat="49.36958" lon="1.14341">
        <ele>130</ele>
        <time>2013-05-05T07:52:51Z</time>
      </trkpt>
      <trkpt lat="49.36939" lon="1.14345">
        <ele>130</ele>
        <time>2013-05-05T07:52:55Z</time>
      </trkpt>
      <trkpt lat="49.36921" lon="1.1435">
        <ele>130</ele>
        <time>2013-05-05T07:52:59Z</time>
      </trkpt>
      <trkpt lat="49.36903" lon="1.14355">
        <ele>126</ele>
        <time>2013-05-05T07:53:03Z</time>
      </trkpt>
      <trkpt lat="49.36885" lon="1.14352">
        <ele>126</ele>
        <time>2013-05-05T07:53:07Z</time>
      </trkpt>
      <trkpt lat="49.36864" lon="1.14349">
        <ele>126</ele>
        <time>2013-05-05T07:53:12Z</time>
      </trkpt>
      <trkpt lat="49.36843" lon="1.14351">
        <ele>126</ele>
        <time>2013-05-05T07:53:17Z</time>
      </trkpt>
      <trkpt lat="49.36823" lon="1.1435">
        <ele>125</ele>
        <time>2013-05-05T07:53:21Z</time>
      </trkpt>
      <trkpt lat="49.36805" lon="1.14347">
        <ele>125</ele>
        <time>2013-05-05T07:53:25Z</time>
      </trkpt>
      <trkpt lat="49.36785" lon="1.14347">
        <ele>125</ele>
        <time>2013-05-05T07:53:29Z</time>
      </trkpt>
      <trkpt lat="49.36765" lon="1.14349">
        <ele>125</ele>
        <time>2013-05-05T07:53:33Z</time>
      </trkpt>
      <trkpt lat="49.36744" lon="1.14351">
        <ele>124</ele>
        <time>2013-05-05T07:53:37Z</time>
      </trkpt>
      <trkpt lat="49.36722" lon="1.14355">
        <ele>124</ele>
        <time>2013-05-05T07:53:41Z</time>
      </trkpt>
      <trkpt lat="49.36699" lon="1.14364">
        <ele>124</ele>
        <time>2013-05-05T07:53:45Z</time>
      </trkpt>
      <trkpt lat="49.36677" lon="1.14371">
        <ele>124</ele>
        <time>2013-05-05T07:53:49Z</time>
      </trkpt>
      <trkpt lat="49.36658" lon="1.14378">
        <ele>120</ele>
        <time>2013-05-05T07:53:52Z</time>
      </trkpt>
      <trkpt lat="49.36637" lon="1.14385">
        <ele>120</ele>
        <time>2013-05-05T07:53:55Z</time>
      </trkpt>
      <trkpt lat="49.36616" lon="1.14394">
        <ele>120</ele>
        <time>2013-05-05T07:53:58Z</time>
      </trkpt>
      <trkpt lat="49.36595" lon="1.14404">
        <ele>120</ele>
        <time>2013-05-05T07:54:01Z</time>
      </trkpt>
      <trkpt lat="49.36576" lon="1.1441">
        <ele>117</ele>
        <time>2013-05-05T07:54:04Z</time>
      </trkpt>
      <trkpt lat="49.36553" lon="1.14403">
        <ele>117</ele>
        <time>2013-05-05T07:54:08Z</time>
      </trkpt>
      <trkpt lat="49.36539" lon="1.14383">
        <ele>117</ele>
        <time>2013-05-05T07:54:11Z</time>
      </trkpt>
      <trkpt lat="49.36526" lon="1.14364">
        <ele>117</ele>
        <time>2013-05-05T07:54:14Z</time>
      </trkpt>
      <trkpt lat="49.36512" lon="1.14341">
        <ele>117</ele>
        <time>2013-05-05T07:54:17Z</time>
      </trkpt>
      <trkpt lat="49.365" lon="1.14321">
        <ele>109</ele>
        <time>2013-05-05T07:54:20Z</time>
      </trkpt>
      <trkpt lat="49.36483" lon="1.14298">
        <ele>109</ele>
        <time>2013-05-05T07:54:23Z</time>
      </trkpt>
      <trkpt lat="49.36464" lon="1.14271">
        <ele>109</ele>
        <time>2013-05-05T07:54:26Z</time>
      </trkpt>
      <trkpt lat="49.36451" lon="1.14241">
        <ele>110</ele>
        <time>2013-05-05T07:54:29Z</time>
      </trkpt>
      <trkpt lat="49.36435" lon="1.14212">
        <ele>110</ele>
        <time>2013-05-05T07:54:32Z</time>
      </trkpt>
      <trkpt lat="49.36422" lon="1.14186">
        <ele>110</ele>
        <time>2013-05-05T07:54:35Z</time>
      </trkpt>
      <trkpt lat="49.36406" lon="1.14174">
        <ele>101</ele>
        <time>2013-05-05T07:54:39Z</time>
      </trkpt>
      <trkpt lat="49.36383" lon="1.14192">
        <ele>101</ele>
        <time>2013-05-05T07:54:42Z</time>
      </trkpt>
      <trkpt lat="49.36358" lon="1.14193">
        <ele>101</ele>
        <time>2013-05-05T07:54:45Z</time>
      </trkpt>
      <trkpt lat="49.36332" lon="1.14188">
        <ele>91</ele>
        <time>2013-05-05T07:54:48Z</time>
      </trkpt>
      <trkpt lat="49.36312" lon="1.1418">
        <ele>91</ele>
        <time>2013-05-05T07:54:51Z</time>
      </trkpt>
      <trkpt lat="49.36286" lon="1.14169">
        <ele>91</ele>
        <time>2013-05-05T07:54:54Z</time>
      </trkpt>
      <trkpt lat="49.36267" lon="1.14159">
        <ele>94</ele>
        <time>2013-05-05T07:54:56Z</time>
      </trkpt>
      <trkpt lat="49.36244" lon="1.1415">
        <ele>82</ele>
        <time>2013-05-05T07:54:58Z</time>
      </trkpt>
      <trkpt lat="49.3622" lon="1.14145">
        <ele>82</ele>
        <time>2013-05-05T07:55:00Z</time>
      </trkpt>
      <trkpt lat="49.36197" lon="1.14138">
        <ele>82</ele>
        <time>2013-05-05T07:55:02Z</time>
      </trkpt>
      <trkpt lat="49.36174" lon="1.14125">
        <ele>82</ele>
        <time>2013-05-05T07:55:04Z</time>
      </trkpt>
      <trkpt lat="49.36151" lon="1.14112">
        <ele>70</ele>
        <time>2013-05-05T07:55:06Z</time>
      </trkpt>
      <trkpt lat="49.36131" lon="1.14099">
        <ele>70</ele>
        <time>2013-05-05T07:55:09Z</time>
      </trkpt>
      <trkpt lat="49.36113" lon="1.1408">
        <ele>73</ele>
        <time>2013-05-05T07:55:13Z</time>
      </trkpt>
      <trkpt lat="49.36099" lon="1.1406">
        <ele>73</ele>
        <time>2013-05-05T07:55:16Z</time>
      </trkpt>
      <trkpt lat="49.3608" lon="1.14049">
        <ele>67</ele>
        <time>2013-05-05T07:55:19Z</time>
      </trkpt>
      <trkpt lat="49.3606" lon="1.14057">
        <ele>67</ele>
        <time>2013-05-05T07:55:26Z</time>
      </trkpt>
      <trkpt lat="49.36042" lon="1.14065">
        <ele>67</ele>
        <time>2013-05-05T07:55:34Z</time>
      </trkpt>
      <trkpt lat="49.36023" lon="1.14065">
        <ele>67</ele>
        <time>2013-05-05T07:55:42Z</time>
      </trkpt>
      <trkpt lat="49.36004" lon="1.14067">
        <ele>67</ele>
        <time>2013-05-05T07:55:48Z</time>
      </trkpt>
      <trkpt lat="49.35982" lon="1.14062">
        <ele>61</ele>
        <time>2013-05-05T07:55:53Z</time>
      </trkpt>
      <trkpt lat="49.35964" lon="1.14059">
        <ele>61</ele>
        <time>2013-05-05T07:55:56Z</time>
      </trkpt>
      <trkpt lat="49.35945" lon="1.14064">
        <ele>61</ele>
        <time>2013-05-05T07:56:00Z</time>
      </trkpt>
      <trkpt lat="49.35927" lon="1.1407">
        <ele>61</ele>
        <time>2013-05-05T07:56:06Z</time>
      </trkpt>
      <trkpt lat="49.35908" lon="1.14057">
        <ele>58</ele>
        <time>2013-05-05T07:56:14Z</time>
      </trkpt>
      <trkpt lat="49.35892" lon="1.1404">
        <ele>58</ele>
        <time>2013-05-05T07:56:19Z</time>
      </trkpt>
      <trkpt lat="49.35877" lon="1.14019">
        <ele>58</ele>
        <time>2013-05-05T07:56:24Z</time>
      </trkpt>
      <trkpt lat="49.35859" lon="1.1401">
        <ele>58</ele>
        <time>2013-05-05T07:56:30Z</time>
      </trkpt>
      <trkpt lat="49.35839" lon="1.14023">
        <ele>58</ele>
        <time>2013-05-05T07:56:35Z</time>
      </trkpt>
      <trkpt lat="49.35818" lon="1.14033">
        <ele>53</ele>
        <time>2013-05-05T07:56:39Z</time>
      </trkpt>
      <trkpt lat="49.35794" lon="1.14037">
        <ele>53</ele>
        <time>2013-05-05T07:56:43Z</time>
      </trkpt>
      <trkpt lat="49.35774" lon="1.14041">
        <ele>53</ele>
        <time>2013-05-05T07:56:46Z</time>
      </trkpt>
      <trkpt lat="49.3575" lon="1.14046">
        <ele>53</ele>
        <time>2013-05-05T07:56:50Z</time>
      </trkpt>
      <trkpt lat="49.35734" lon="1.1406">
        <ele>60</ele>
        <time>2013-05-05T07:56:53Z</time>
      </trkpt>
      <trkpt lat="49.35714" lon="1.14098">
        <ele>59</ele>
        <time>2013-05-05T07:56:56Z</time>
      </trkpt>
      <trkpt lat="49.35706" lon="1.14127">
        <ele>59</ele>
        <time>2013-05-05T07:57:00Z</time>
      </trkpt>
      <trkpt lat="49.35702" lon="1.14154">
        <ele>59</ele>
        <time>2013-05-05T07:57:05Z</time>
      </trkpt>
      <trkpt lat="49.35692" lon="1.14179">
        <ele>59</ele>
        <time>2013-05-05T07:57:10Z</time>
      </trkpt>
      <trkpt lat="49.35683" lon="1.14205">
        <ele>59</ele>
        <time>2013-05-05T07:57:19Z</time>
      </trkpt>
      <trkpt lat="49.35668" lon="1.1422">
        <ele>59</ele>
        <time>2013-05-05T07:57:27Z</time>
      </trkpt>
      <trkpt lat="49.35651" lon="1.14232">
        <ele>70</ele>
        <time>2013-05-05T07:57:42Z</time>
      </trkpt>
      <trkpt lat="49.35636" lon="1.1425">
        <ele>70</ele>
        <time>2013-05-05T07:57:57Z</time>
      </trkpt>
      <trkpt lat="49.3562" lon="1.14264">
        <ele>69</ele>
        <time>2013-05-05T07:58:13Z</time>
      </trkpt>
      <trkpt lat="49.35603" lon="1.14277">
        <ele>69</ele>
        <time>2013-05-05T07:58:23Z</time>
      </trkpt>
      <trkpt lat="49.35585" lon="1.14284">
        <ele>69</ele>
        <time>2013-05-05T07:58:40Z</time>
      </trkpt>
      <trkpt lat="49.35566" lon="1.14289">
        <ele>72</ele>
        <time>2013-05-05T07:58:58Z</time>
      </trkpt>
      <trkpt lat="49.35548" lon="1.14291">
        <ele>72</ele>
        <time>2013-05-05T07:59:11Z</time>
      </trkpt>
      <trkpt lat="49.35529" lon="1.14289">
        <ele>72</ele>
        <time>2013-05-05T07:59:52Z</time>
      </trkpt>
      <trkpt lat="49.3551" lon="1.14287">
        <ele>72</ele>
        <time>2013-05-05T07:59:59Z</time>
      </trkpt>
      <trkpt lat="49.35491" lon="1.14285">
        <ele>73</ele>
        <time>2013-05-05T08:00:04Z</time>
      </trkpt>
      <trkpt lat="49.35478" lon="1.14264">
        <ele>73</ele>
        <time>2013-05-05T08:00:13Z</time>
      </trkpt>
      <trkpt lat="49.35478" lon="1.14236">
        <ele>74</ele>
        <time>2013-05-05T08:00:21Z</time>
      </trkpt>
      <trkpt lat="49.35481" lon="1.14207">
        <ele>74</ele>
        <time>2013-05-05T08:00:27Z</time>
      </trkpt>
      <trkpt lat="49.35484" lon="1.14178">
        <ele>74</ele>
        <time>2013-05-05T08:00:34Z</time>
      </trkpt>
      <trkpt lat="49.35484" lon="1.14149">
        <ele>75</ele>
        <time>2013-05-05T08:00:41Z</time>
      </trkpt>
      <trkpt lat="49.35475" lon="1.14123">
        <ele>75</ele>
        <time>2013-05-05T08:00:47Z</time>
      </trkpt>
      <trkpt lat="49.35457" lon="1.14117">
        <ele>75</ele>
        <time>2013-05-05T08:00:55Z</time>
      </trkpt>
      <trkpt lat="49.35436" lon="1.14121">
        <ele>75</ele>
        <time>2013-05-05T08:01:02Z</time>
      </trkpt>
      <trkpt lat="49.35418" lon="1.14126">
        <ele>75</ele>
        <time>2013-05-05T08:01:08Z</time>
      </trkpt>
      <trkpt lat="49.35401" lon="1.14115">
        <ele>65</ele>
        <time>2013-05-05T08:01:14Z</time>
      </trkpt>
      <trkpt lat="49.35391" lon="1.1409">
        <ele>65</ele>
        <time>2013-05-05T08:01:22Z</time>
      </trkpt>
      <trkpt lat="49.35393" lon="1.14061">
        <ele>52</ele>
        <time>2013-05-05T08:01:32Z</time>
      </trkpt>
      <trkpt lat="49.35393" lon="1.14033">
        <ele>52</ele>
        <time>2013-05-05T08:01:39Z</time>
      </trkpt>
      <trkpt lat="49.35376" lon="1.14052">
        <ele>52</ele>
        <time>2013-05-05T08:01:50Z</time>
      </trkpt>
      <trkpt lat="49.35362" lon="1.14069">
        <ele>52</ele>
        <time>2013-05-05T08:01:52Z</time>
      </trkpt>
      <trkpt lat="49.35344" lon="1.14085">
        <ele>65</ele>
        <time>2013-05-05T08:01:56Z</time>
      </trkpt>
      <trkpt lat="49.35352" lon="1.14041">
        <ele>52</ele>
        <time>2013-05-05T08:02:09Z</time>
      </trkpt>
      <trkpt lat="49.35365" lon="1.14001">
        <ele>52</ele>
        <time>2013-05-05T08:02:12Z</time>
      </trkpt>
      <trkpt lat="49.35378" lon="1.13979">
        <ele>46</ele>
        <time>2013-05-05T08:02:14Z</time>
      </trkpt>
      <trkpt lat="49.35388" lon="1.13946">
        <ele>46</ele>
        <time>2013-05-05T08:02:17Z</time>
      </trkpt>
      <trkpt lat="49.35404" lon="1.13917">
        <ele>46</ele>
        <time>2013-05-05T08:02:20Z</time>
      </trkpt>
      <trkpt lat="49.35417" lon="1.13896">
        <ele>46</ele>
        <time>2013-05-05T08:02:23Z</time>
      </trkpt>
      <trkpt lat="49.3543" lon="1.13868">
        <ele>46</ele>
        <time>2013-05-05T08:02:27Z</time>
      </trkpt>
      <trkpt lat="49.35434" lon="1.13833">
        <ele>42</ele>
        <time>2013-05-05T08:02:30Z</time>
      </trkpt>
      <trkpt lat="49.35434" lon="1.13797">
        <ele>42</ele>
        <time>2013-05-05T08:02:33Z</time>
      </trkpt>
      <trkpt lat="49.35433" lon="1.13761">
        <ele>42</ele>
        <time>2013-05-05T08:02:36Z</time>
      </trkpt>
      <trkpt lat="49.35432" lon="1.13727">
        <ele>37</ele>
        <time>2013-05-05T08:02:38Z</time>
      </trkpt>
      <trkpt lat="49.35435" lon="1.13696">
        <ele>37</ele>
        <time>2013-05-05T08:02:40Z</time>
      </trkpt>
      <trkpt lat="49.35439" lon="1.13663">
        <ele>29</ele>
        <time>2013-05-05T08:02:42Z</time>
      </trkpt>
      <trkpt lat="49.35443" lon="1.13629">
        <ele>29</ele>
        <time>2013-05-05T08:02:44Z</time>
      </trkpt>
      <trkpt lat="49.35451" lon="1.13599">
        <ele>29</ele>
        <time>2013-05-05T08:02:46Z</time>
      </trkpt>
      <trkpt lat="49.35454" lon="1.13572">
        <ele>37</ele>
        <time>2013-05-05T08:02:49Z</time>
      </trkpt>
      <trkpt lat="49.35438" lon="1.13551">
        <ele>37</ele>
        <time>2013-05-05T08:02:55Z</time>
      </trkpt>
      <trkpt lat="49.35417" lon="1.13556">
        <ele>37</ele>
        <time>2013-05-05T08:03:01Z</time>
      </trkpt>
      <trkpt lat="49.35397" lon="1.13554">
        <ele>32</ele>
        <time>2013-05-05T08:03:06Z</time>
      </trkpt>
      <trkpt lat="49.35377" lon="1.13552">
        <ele>32</ele>
        <time>2013-05-05T08:03:12Z</time>
      </trkpt>
      <trkpt lat="49.35357" lon="1.13543">
        <ele>32</ele>
        <time>2013-05-05T08:03:17Z</time>
      </trkpt>
      <trkpt lat="49.35339" lon="1.13518">
        <ele>32</ele>
        <time>2013-05-05T08:03:21Z</time>
      </trkpt>
      <trkpt lat="49.35323" lon="1.13493">
        <ele>21</ele>
        <time>2013-05-05T08:03:25Z</time>
      </trkpt>
      <trkpt lat="49.35307" lon="1.13468">
        <ele>21</ele>
        <time>2013-05-05T08:03:29Z</time>
      </trkpt>
      <trkpt lat="49.35297" lon="1.13437">
        <ele>21</ele>
        <time>2013-05-05T08:03:32Z</time>
      </trkpt>
      <trkpt lat="49.35291" lon="1.13402">
        <ele>18</ele>
        <time>2013-05-05T08:03:35Z</time>
      </trkpt>
      <trkpt lat="49.35287" lon="1.13369">
        <ele>18</ele>
        <time>2013-05-05T08:03:38Z</time>
      </trkpt>
      <trkpt lat="49.3528" lon="1.13331">
        <ele>19</ele>
        <time>2013-05-05T08:03:41Z</time>
      </trkpt>
      <trkpt lat="49.35271" lon="1.13297">
        <ele>19</ele>
        <time>2013-05-05T08:03:44Z</time>
      </trkpt>
      <trkpt lat="49.35258" lon="1.1327">
        <ele>19</ele>
        <time>2013-05-05T08:03:47Z</time>
      </trkpt>
      <trkpt lat="49.35244" lon="1.13242">
        <ele>23</ele>
        <time>2013-05-05T08:03:50Z</time>
      </trkpt>
      <trkpt lat="49.35233" lon="1.13213">
        <ele>23</ele>
        <time>2013-05-05T08:03:53Z</time>
      </trkpt>
      <trkpt lat="49.35216" lon="1.13202">
        <ele>23</ele>
        <time>2013-05-05T08:04:00Z</time>
      </trkpt>
      <trkpt lat="49.35203" lon="1.13182">
        <ele>23</ele>
        <time>2013-05-05T08:04:11Z</time>
      </trkpt>
      <trkpt lat="49.35199" lon="1.13149">
        <ele>15</ele>
        <time>2013-05-05T08:04:17Z</time>
      </trkpt>
      <trkpt lat="49.35196" lon="1.13121">
        <ele>15</ele>
        <time>2013-05-05T08:04:24Z</time>
      </trkpt>
      <trkpt lat="49.35184" lon="1.13099">
        <ele>15</ele>
        <time>2013-05-05T08:04:28Z</time>
      </trkpt>
      <trkpt lat="49.35175" lon="1.13124">
        <ele>15</ele>
        <time>2013-05-05T08:04:43Z</time>
      </trkpt>
      <trkpt lat="49.3518" lon="1.13151">
        <ele>15</ele>
        <time>2013-05-05T08:04:56Z</time>
      </trkpt>
      <trkpt lat="49.35188" lon="1.13176">
        <ele>23</ele>
        <time>2013-05-05T08:05:09Z</time>
      </trkpt>
      <trkpt lat="49.35188" lon="1.13205">
        <ele>23</ele>
        <time>2013-05-05T08:05:23Z</time>
      </trkpt>
      <trkpt lat="49.35196" lon="1.1323">
        <ele>23</ele>
        <time>2013-05-05T08:05:34Z</time>
      </trkpt>
      <trkpt lat="49.35195" lon="1.13259">
        <ele>30</ele>
        <time>2013-05-05T08:05:45Z</time>
      </trkpt>
      <trkpt lat="49.35195" lon="1.13288">
        <ele>30</ele>
        <time>2013-05-05T08:05:56Z</time>
      </trkpt>
      <trkpt lat="49.35188" lon="1.13316">
        <ele>30</ele>
        <time>2013-05-05T08:06:06Z</time>
      </trkpt>
      <trkpt lat="49.3518" lon="1.13343">
        <ele>34</ele>
        <time>2013-05-05T08:06:16Z</time>
      </trkpt>
      <trkpt lat="49.35173" lon="1.13369">
        <ele>34</ele>
        <time>2013-05-05T08:06:27Z</time>
      </trkpt>
      <trkpt lat="49.35164" lon="1.13394">
        <ele>53</ele>
        <time>2013-05-05T08:06:39Z</time>
      </trkpt>
      <trkpt lat="49.35155" lon="1.1342">
        <ele>56</ele>
        <time>2013-05-05T08:06:53Z</time>
      </trkpt>
      <trkpt lat="49.35146" lon="1.13444">
        <ele>56</ele>
        <time>2013-05-05T08:07:05Z</time>
      </trkpt>
      <trkpt lat="49.35135" lon="1.13468">
        <ele>56</ele>
        <time>2013-05-05T08:07:18Z</time>
      </trkpt>
      <trkpt lat="49.3512" lon="1.13485">
        <ele>56</ele>
        <time>2013-05-05T08:07:31Z</time>
      </trkpt>
      <trkpt lat="49.35111" lon="1.1351">
        <ele>61</ele>
        <time>2013-05-05T08:07:46Z</time>
      </trkpt>
      <trkpt lat="49.35115" lon="1.13537">
        <ele>61</ele>
        <time>2013-05-05T08:09:19Z</time>
      </trkpt>
      <trkpt lat="49.35126" lon="1.13562">
        <ele>61</ele>
        <time>2013-05-05T08:09:33Z</time>
      </trkpt>
      <trkpt lat="49.35134" lon="1.13589">
        <ele>65</ele>
        <time>2013-05-05T08:09:43Z</time>
      </trkpt>
      <trkpt lat="49.35121" lon="1.1361">
        <ele>65</ele>
        <time>2013-05-05T08:10:00Z</time>
      </trkpt>
      <trkpt lat="49.35105" lon="1.13624">
        <ele>65</ele>
        <time>2013-05-05T08:10:10Z</time>
      </trkpt>
      <trkpt lat="49.35091" lon="1.13643">
        <ele>65</ele>
        <time>2013-05-05T08:10:21Z</time>
      </trkpt>
      <trkpt lat="49.35079" lon="1.13665">
        <ele>67</ele>
        <time>2013-05-05T08:10:33Z</time>
      </trkpt>
      <trkpt lat="49.35069" lon="1.13688">
        <ele>67</ele>
        <time>2013-05-05T08:10:43Z</time>
      </trkpt>
      <trkpt lat="49.35057" lon="1.13713">
        <ele>67</ele>
        <time>2013-05-05T08:10:53Z</time>
      </trkpt>
      <trkpt lat="49.35046" lon="1.13738">
        <ele>67</ele>
        <time>2013-05-05T08:11:03Z</time>
      </trkpt>
      <trkpt lat="49.35036" lon="1.13764">
        <ele>68</ele>
        <time>2013-05-05T08:11:13Z</time>
      </trkpt>
      <trkpt lat="49.35025" lon="1.13786">
        <ele>68</ele>
        <time>2013-05-05T08:11:22Z</time>
      </trkpt>
      <trkpt lat="49.35014" lon="1.1381">
        <ele>68</ele>
        <time>2013-05-05T08:11:30Z</time>
      </trkpt>
      <trkpt lat="49.35003" lon="1.13834">
        <ele>69</ele>
        <time>2013-05-05T08:11:37Z</time>
      </trkpt>
      <trkpt lat="49.34992" lon="1.1386">
        <ele>72</ele>
        <time>2013-05-05T08:11:44Z</time>
      </trkpt>
      <trkpt lat="49.34981" lon="1.13887">
        <ele>72</ele>
        <time>2013-05-05T08:11:51Z</time>
      </trkpt>
      <trkpt lat="49.34969" lon="1.13913">
        <ele>72</ele>
        <time>2013-05-05T08:11:58Z</time>
      </trkpt>
      <trkpt lat="49.34959" lon="1.13935">
        <ele>72</ele>
        <time>2013-05-05T08:12:04Z</time>
      </trkpt>
      <trkpt lat="49.34945" lon="1.13958">
        <ele>72</ele>
        <time>2013-05-05T08:12:10Z</time>
      </trkpt>
      <trkpt lat="49.3493" lon="1.13976">
        <ele>72</ele>
        <time>2013-05-05T08:12:15Z</time>
      </trkpt>
      <trkpt lat="49.34915" lon="1.13992">
        <ele>74</ele>
        <time>2013-05-05T08:12:20Z</time>
      </trkpt>
      <trkpt lat="49.34899" lon="1.14008">
        <ele>75</ele>
        <time>2013-05-05T08:12:25Z</time>
      </trkpt>
      <trkpt lat="49.34882" lon="1.14023">
        <ele>75</ele>
        <time>2013-05-05T08:12:30Z</time>
      </trkpt>
      <trkpt lat="49.34865" lon="1.14039">
        <ele>75</ele>
        <time>2013-05-05T08:12:35Z</time>
      </trkpt>
      <trkpt lat="49.34848" lon="1.14055">
        <ele>75</ele>
        <time>2013-05-05T08:12:40Z</time>
      </trkpt>
      <trkpt lat="49.34829" lon="1.14072">
        <ele>76</ele>
        <time>2013-05-05T08:12:45Z</time>
      </trkpt>
      <trkpt lat="49.34814" lon="1.14087">
        <ele>75</ele>
        <time>2013-05-05T08:12:49Z</time>
      </trkpt>
      <trkpt lat="49.34797" lon="1.14103">
        <ele>75</ele>
        <time>2013-05-05T08:12:53Z</time>
      </trkpt>
      <trkpt lat="49.34778" lon="1.1412">
        <ele>75</ele>
        <time>2013-05-05T08:12:58Z</time>
      </trkpt>
      <trkpt lat="49.34762" lon="1.14135">
        <ele>75</ele>
        <time>2013-05-05T08:13:02Z</time>
      </trkpt>
      <trkpt lat="49.34745" lon="1.14149">
        <ele>76</ele>
        <time>2013-05-05T08:13:06Z</time>
      </trkpt>
      <trkpt lat="49.34729" lon="1.14163">
        <ele>76</ele>
        <time>2013-05-05T08:13:10Z</time>
      </trkpt>
      <trkpt lat="49.34712" lon="1.14176">
        <ele>76</ele>
        <time>2013-05-05T08:13:14Z</time>
      </trkpt>
      <trkpt lat="49.34695" lon="1.1419">
        <ele>76</ele>
        <time>2013-05-05T08:13:18Z</time>
      </trkpt>
      <trkpt lat="49.34678" lon="1.14203">
        <ele>76</ele>
        <time>2013-05-05T08:13:22Z</time>
      </trkpt>
      <trkpt lat="49.34662" lon="1.14219">
        <ele>78</ele>
        <time>2013-05-05T08:13:26Z</time>
      </trkpt>
      <trkpt lat="49.34644" lon="1.14233">
        <ele>78</ele>
        <time>2013-05-05T08:13:30Z</time>
      </trkpt>
      <trkpt lat="49.34625" lon="1.14247">
        <ele>78</ele>
        <time>2013-05-05T08:13:35Z</time>
      </trkpt>
      <trkpt lat="49.34607" lon="1.14241">
        <ele>78</ele>
        <time>2013-05-05T08:13:39Z</time>
      </trkpt>
      <trkpt lat="49.34595" lon="1.14218">
        <ele>78</ele>
        <time>2013-05-05T08:13:43Z</time>
      </trkpt>
      <trkpt lat="49.34583" lon="1.14195">
        <ele>80</ele>
        <time>2013-05-05T08:13:47Z</time>
      </trkpt>
      <trkpt lat="49.34571" lon="1.14173">
        <ele>80</ele>
        <time>2013-05-05T08:13:51Z</time>
      </trkpt>
      <trkpt lat="49.34558" lon="1.1415">
        <ele>79</ele>
        <time>2013-05-05T08:13:55Z</time>
      </trkpt>
      <trkpt lat="49.34546" lon="1.14128">
        <ele>79</ele>
        <time>2013-05-05T08:13:59Z</time>
      </trkpt>
      <trkpt lat="49.34535" lon="1.14105">
        <ele>79</ele>
        <time>2013-05-05T08:14:03Z</time>
      </trkpt>
      <trkpt lat="49.34523" lon="1.14082">
        <ele>78</ele>
        <time>2013-05-05T08:14:07Z</time>
      </trkpt>
      <trkpt lat="49.34511" lon="1.1406">
        <ele>78</ele>
        <time>2013-05-05T08:14:11Z</time>
      </trkpt>
      <trkpt lat="49.34492" lon="1.14059">
        <ele>79</ele>
        <time>2013-05-05T08:14:16Z</time>
      </trkpt>
      <trkpt lat="49.34475" lon="1.14074">
        <ele>79</ele>
        <time>2013-05-05T08:14:20Z</time>
      </trkpt>
      <trkpt lat="49.34458" lon="1.1409">
        <ele>81</ele>
        <time>2013-05-05T08:14:24Z</time>
      </trkpt>
      <trkpt lat="49.34439" lon="1.14105">
        <ele>81</ele>
        <time>2013-05-05T08:14:28Z</time>
      </trkpt>
      <trkpt lat="49.34422" lon="1.14121">
        <ele>81</ele>
        <time>2013-05-05T08:14:32Z</time>
      </trkpt>
      <trkpt lat="49.34406" lon="1.14138">
        <ele>83</ele>
        <time>2013-05-05T08:14:36Z</time>
      </trkpt>
      <trkpt lat="49.34388" lon="1.14154">
        <ele>83</ele>
        <time>2013-05-05T08:14:40Z</time>
      </trkpt>
      <trkpt lat="49.34371" lon="1.14167">
        <ele>83</ele>
        <time>2013-05-05T08:14:44Z</time>
      </trkpt>
      <trkpt lat="49.34356" lon="1.14184">
        <ele>83</ele>
        <time>2013-05-05T08:14:48Z</time>
      </trkpt>
      <trkpt lat="49.34359" lon="1.14217">
        <ele>83</ele>
        <time>2013-05-05T08:14:54Z</time>
      </trkpt>
      <trkpt lat="49.34366" lon="1.14245">
        <ele>83</ele>
        <time>2013-05-05T08:14:59Z</time>
      </trkpt>
      <trkpt lat="49.34372" lon="1.14275">
        <ele>81</ele>
        <time>2013-05-05T08:15:04Z</time>
      </trkpt>
      <trkpt lat="49.34377" lon="1.14302">
        <ele>81</ele>
        <time>2013-05-05T08:15:09Z</time>
      </trkpt>
      <trkpt lat="49.34382" lon="1.14333">
        <ele>81</ele>
        <time>2013-05-05T08:15:15Z</time>
      </trkpt>
      <trkpt lat="49.34383" lon="1.14361">
        <ele>80</ele>
        <time>2013-05-05T08:15:21Z</time>
      </trkpt>
      <trkpt lat="49.34365" lon="1.14349">
        <ele>80</ele>
        <time>2013-05-05T08:15:27Z</time>
      </trkpt>
      <trkpt lat="49.34349" lon="1.14329">
        <ele>81</ele>
        <time>2013-05-05T08:15:31Z</time>
      </trkpt>
      <trkpt lat="49.34335" lon="1.14311">
        <ele>81</ele>
        <time>2013-05-05T08:15:35Z</time>
      </trkpt>
      <trkpt lat="49.3432" lon="1.14288">
        <ele>83</ele>
        <time>2013-05-05T08:15:39Z</time>
      </trkpt>
      <trkpt lat="49.34305" lon="1.14268">
        <ele>83</ele>
        <time>2013-05-05T08:15:43Z</time>
      </trkpt>
      <trkpt lat="49.34291" lon="1.14249">
        <ele>85</ele>
        <time>2013-05-05T08:15:47Z</time>
      </trkpt>
      <trkpt lat="49.34271" lon="1.14229">
        <ele>85</ele>
        <time>2013-05-05T08:15:51Z</time>
      </trkpt>
      <trkpt lat="49.34252" lon="1.14211">
        <ele>85</ele>
        <time>2013-05-05T08:15:55Z</time>
      </trkpt>
      <trkpt lat="49.34237" lon="1.14194">
        <ele>84</ele>
        <time>2013-05-05T08:15:59Z</time>
      </trkpt>
      <trkpt lat="49.34223" lon="1.14168">
        <ele>84</ele>
        <time>2013-05-05T08:16:04Z</time>
      </trkpt>
      <trkpt lat="49.34215" lon="1.14139">
        <ele>85</ele>
        <time>2013-05-05T08:16:09Z</time>
      </trkpt>
      <trkpt lat="49.34206" lon="1.14111">
        <ele>85</ele>
        <time>2013-05-05T08:16:14Z</time>
      </trkpt>
      <trkpt lat="49.34199" lon="1.14085">
        <ele>85</ele>
        <time>2013-05-05T08:16:19Z</time>
      </trkpt>
      <trkpt lat="49.3419" lon="1.14057">
        <ele>88</ele>
        <time>2013-05-05T08:16:24Z</time>
      </trkpt>
      <trkpt lat="49.34184" lon="1.14028">
        <ele>88</ele>
        <time>2013-05-05T08:16:28Z</time>
      </trkpt>
      <trkpt lat="49.34177" lon="1.13996">
        <ele>88</ele>
        <time>2013-05-05T08:16:32Z</time>
      </trkpt>
      <trkpt lat="49.3417" lon="1.13966">
        <ele>88</ele>
        <time>2013-05-05T08:16:36Z</time>
      </trkpt>
      <trkpt lat="49.34162" lon="1.13934">
        <ele>85</ele>
        <time>2013-05-05T08:16:40Z</time>
      </trkpt>
      <trkpt lat="49.34153" lon="1.13907">
        <ele>84</ele>
        <time>2013-05-05T08:16:44Z</time>
      </trkpt>
      <trkpt lat="49.34142" lon="1.13881">
        <ele>84</ele>
        <time>2013-05-05T08:16:48Z</time>
      </trkpt>
      <trkpt lat="49.34131" lon="1.13853">
        <ele>84</ele>
        <time>2013-05-05T08:16:52Z</time>
      </trkpt>
      <trkpt lat="49.34117" lon="1.13831">
        <ele>85</ele>
        <time>2013-05-05T08:16:56Z</time>
      </trkpt>
      <trkpt lat="49.34098" lon="1.13843">
        <ele>84</ele>
        <time>2013-05-05T08:17:00Z</time>
      </trkpt>
      <trkpt lat="49.34079" lon="1.13853">
        <ele>83</ele>
        <time>2013-05-05T08:17:04Z</time>
      </trkpt>
      <trkpt lat="49.34057" lon="1.13866">
        <ele>83</ele>
        <time>2013-05-05T08:17:08Z</time>
      </trkpt>
      <trkpt lat="49.34035" lon="1.13876">
        <ele>83</ele>
        <time>2013-05-05T08:17:12Z</time>
      </trkpt>
      <trkpt lat="49.34015" lon="1.13887">
        <ele>83</ele>
        <time>2013-05-05T08:17:16Z</time>
      </trkpt>
      <trkpt lat="49.33993" lon="1.13896">
        <ele>81</ele>
        <time>2013-05-05T08:17:20Z</time>
      </trkpt>
      <trkpt lat="49.3397" lon="1.13906">
        <ele>81</ele>
        <time>2013-05-05T08:17:24Z</time>
      </trkpt>
      <trkpt lat="49.33947" lon="1.13916">
        <ele>81</ele>
        <time>2013-05-05T08:17:28Z</time>
      </trkpt>
      <trkpt lat="49.33925" lon="1.13926">
        <ele>81</ele>
        <time>2013-05-05T08:17:32Z</time>
      </trkpt>
      <trkpt lat="49.33902" lon="1.13936">
        <ele>80</ele>
        <time>2013-05-05T08:17:36Z</time>
      </trkpt>
      <trkpt lat="49.33881" lon="1.13945">
        <ele>80</ele>
        <time>2013-05-05T08:17:40Z</time>
      </trkpt>
      <trkpt lat="49.33857" lon="1.13949">
        <ele>80</ele>
        <time>2013-05-05T08:17:44Z</time>
      </trkpt>
      <trkpt lat="49.33839" lon="1.13956">
        <ele>80</ele>
        <time>2013-05-05T08:17:47Z</time>
      </trkpt>
      <trkpt lat="49.33817" lon="1.13965">
        <ele>81</ele>
        <time>2013-05-05T08:17:51Z</time>
      </trkpt>
      <trkpt lat="49.33795" lon="1.13974">
        <ele>81</ele>
        <time>2013-05-05T08:17:55Z</time>
      </trkpt>
      <trkpt lat="49.33772" lon="1.13985">
        <ele>81</ele>
        <time>2013-05-05T08:17:59Z</time>
      </trkpt>
      <trkpt lat="49.33751" lon="1.13996">
        <ele>81</ele>
        <time>2013-05-05T08:18:03Z</time>
      </trkpt>
      <trkpt lat="49.33729" lon="1.14005">
        <ele>81</ele>
        <time>2013-05-05T08:18:07Z</time>
      </trkpt>
      <trkpt lat="49.33709" lon="1.14001">
        <ele>81</ele>
        <time>2013-05-05T08:18:11Z</time>
      </trkpt>
      <trkpt lat="49.337" lon="1.13973">
        <ele>81</ele>
        <time>2013-05-05T08:18:15Z</time>
      </trkpt>
      <trkpt lat="49.3369" lon="1.13942">
        <ele>81</ele>
        <time>2013-05-05T08:18:19Z</time>
      </trkpt>
      <trkpt lat="49.33679" lon="1.13912">
        <ele>81</ele>
        <time>2013-05-05T08:18:23Z</time>
      </trkpt>
      <trkpt lat="49.33669" lon="1.13883">
        <ele>81</ele>
        <time>2013-05-05T08:18:27Z</time>
      </trkpt>
      <trkpt lat="49.33657" lon="1.13856">
        <ele>80</ele>
        <time>2013-05-05T08:18:31Z</time>
      </trkpt>
      <trkpt lat="49.33646" lon="1.13827">
        <ele>80</ele>
        <time>2013-05-05T08:18:35Z</time>
      </trkpt>
      <trkpt lat="49.33635" lon="1.13797">
        <ele>80</ele>
        <time>2013-05-05T08:18:39Z</time>
      </trkpt>
      <trkpt lat="49.33624" lon="1.13766">
        <ele>80</ele>
        <time>2013-05-05T08:18:43Z</time>
      </trkpt>
      <trkpt lat="49.33613" lon="1.13736">
        <ele>82</ele>
        <time>2013-05-05T08:18:47Z</time>
      </trkpt>
      <trkpt lat="49.33604" lon="1.13711">
        <ele>82</ele>
        <time>2013-05-05T08:18:51Z</time>
      </trkpt>
      <trkpt lat="49.33595" lon="1.13681">
        <ele>82</ele>
        <time>2013-05-05T08:18:55Z</time>
      </trkpt>
      <trkpt lat="49.33584" lon="1.13655">
        <ele>81</ele>
        <time>2013-05-05T08:18:59Z</time>
      </trkpt>
      <trkpt lat="49.33575" lon="1.13629">
        <ele>81</ele>
        <time>2013-05-05T08:19:03Z</time>
      </trkpt>
      <trkpt lat="49.33564" lon="1.13601">
        <ele>81</ele>
        <time>2013-05-05T08:19:08Z</time>
      </trkpt>
      <trkpt lat="49.33554" lon="1.13574">
        <ele>82</ele>
        <time>2013-05-05T08:19:14Z</time>
      </trkpt>
      <trkpt lat="49.33544" lon="1.1355">
        <ele>82</ele>
        <time>2013-05-05T08:19:21Z</time>
      </trkpt>
      <trkpt lat="49.33533" lon="1.13522">
        <ele>82</ele>
        <time>2013-05-05T08:19:29Z</time>
      </trkpt>
      <trkpt lat="49.33522" lon="1.13492">
        <ele>82</ele>
        <time>2013-05-05T08:19:34Z</time>
      </trkpt>
      <trkpt lat="49.33512" lon="1.13463">
        <ele>82</ele>
        <time>2013-05-05T08:19:39Z</time>
      </trkpt>
      <trkpt lat="49.33504" lon="1.13433">
        <ele>82</ele>
        <time>2013-05-05T08:19:44Z</time>
      </trkpt>
      <trkpt lat="49.33495" lon="1.13405">
        <ele>82</ele>
        <time>2013-05-05T08:19:48Z</time>
      </trkpt>
      <trkpt lat="49.33487" lon="1.13376">
        <ele>82</ele>
        <time>2013-05-05T08:19:52Z</time>
      </trkpt>
      <trkpt lat="49.33479" lon="1.13348">
        <ele>82</ele>
        <time>2013-05-05T08:19:56Z</time>
      </trkpt>
      <trkpt lat="49.33473" lon="1.13321">
        <ele>83</ele>
        <time>2013-05-05T08:20:00Z</time>
      </trkpt>
      <trkpt lat="49.33466" lon="1.13293">
        <ele>83</ele>
        <time>2013-05-05T08:20:04Z</time>
      </trkpt>
      <trkpt lat="49.33457" lon="1.13261">
        <ele>83</ele>
        <time>2013-05-05T08:20:09Z</time>
      </trkpt>
      <trkpt lat="49.33451" lon="1.13234">
        <ele>84</ele>
        <time>2013-05-05T08:20:13Z</time>
      </trkpt>
      <trkpt lat="49.33445" lon="1.13208">
        <ele>84</ele>
        <time>2013-05-05T08:20:17Z</time>
      </trkpt>
      <trkpt lat="49.33435" lon="1.1318">
        <ele>84</ele>
        <time>2013-05-05T08:20:22Z</time>
      </trkpt>
      <trkpt lat="49.33428" lon="1.13153">
        <ele>83</ele>
        <time>2013-05-05T08:20:27Z</time>
      </trkpt>
      <trkpt lat="49.33422" lon="1.13128">
        <ele>83</ele>
        <time>2013-05-05T08:20:32Z</time>
      </trkpt>
      <trkpt lat="49.33406" lon="1.1311">
        <ele>87</ele>
        <time>2013-05-05T08:20:38Z</time>
      </trkpt>
      <trkpt lat="49.33386" lon="1.13118">
        <ele>87</ele>
        <time>2013-05-05T08:20:43Z</time>
      </trkpt>
      <trkpt lat="49.33367" lon="1.13129">
        <ele>87</ele>
        <time>2013-05-05T08:20:47Z</time>
      </trkpt>
      <trkpt lat="49.3335" lon="1.13148">
        <ele>87</ele>
        <time>2013-05-05T08:20:51Z</time>
      </trkpt>
      <trkpt lat="49.3333" lon="1.13146">
        <ele>89</ele>
        <time>2013-05-05T08:20:55Z</time>
      </trkpt>
      <trkpt lat="49.33307" lon="1.13153">
        <ele>89</ele>
        <time>2013-05-05T08:20:59Z</time>
      </trkpt>
      <trkpt lat="49.33287" lon="1.13164">
        <ele>89</ele>
        <time>2013-05-05T08:21:03Z</time>
      </trkpt>
      <trkpt lat="49.33267" lon="1.1317">
        <ele>85</ele>
        <time>2013-05-05T08:21:07Z</time>
      </trkpt>
      <trkpt lat="49.33246" lon="1.13177">
        <ele>84</ele>
        <time>2013-05-05T08:21:11Z</time>
      </trkpt>
      <trkpt lat="49.33223" lon="1.13185">
        <ele>84</ele>
        <time>2013-05-05T08:21:15Z</time>
      </trkpt>
      <trkpt lat="49.33202" lon="1.13192">
        <ele>84</ele>
        <time>2013-05-05T08:21:19Z</time>
      </trkpt>
      <trkpt lat="49.33181" lon="1.132">
        <ele>84</ele>
        <time>2013-05-05T08:21:23Z</time>
      </trkpt>
      <trkpt lat="49.33163" lon="1.13209">
        <ele>86</ele>
        <time>2013-05-05T08:21:26Z</time>
      </trkpt>
      <trkpt lat="49.33145" lon="1.13217">
        <ele>86</ele>
        <time>2013-05-05T08:21:30Z</time>
      </trkpt>
      <trkpt lat="49.33122" lon="1.13222">
        <ele>86</ele>
        <time>2013-05-05T08:21:34Z</time>
      </trkpt>
      <trkpt lat="49.33104" lon="1.13228">
        <ele>86</ele>
        <time>2013-05-05T08:21:38Z</time>
      </trkpt>
      <trkpt lat="49.33086" lon="1.13236">
        <ele>86</ele>
        <time>2013-05-05T08:21:44Z</time>
      </trkpt>
      <trkpt lat="49.3307" lon="1.1322">
        <ele>85</ele>
        <time>2013-05-05T08:21:51Z</time>
      </trkpt>
      <trkpt lat="49.33061" lon="1.13195">
        <ele>85</ele>
        <time>2013-05-05T08:21:57Z</time>
      </trkpt>
      <trkpt lat="49.33052" lon="1.13169">
        <ele>85</ele>
        <time>2013-05-05T08:22:03Z</time>
      </trkpt>
      <trkpt lat="49.33049" lon="1.13137">
        <ele>86</ele>
        <time>2013-05-05T08:22:07Z</time>
      </trkpt>
      <trkpt lat="49.33043" lon="1.13105">
        <ele>86</ele>
        <time>2013-05-05T08:22:10Z</time>
      </trkpt>
      <trkpt lat="49.33037" lon="1.13072">
        <ele>87</ele>
        <time>2013-05-05T08:22:14Z</time>
      </trkpt>
      <trkpt lat="49.33034" lon="1.13039">
        <ele>87</ele>
        <time>2013-05-05T08:22:18Z</time>
      </trkpt>
      <trkpt lat="49.33027" lon="1.13013">
        <ele>87</ele>
        <time>2013-05-05T08:22:22Z</time>
      </trkpt>
      <trkpt lat="49.33019" lon="1.12981">
        <ele>87</ele>
        <time>2013-05-05T08:22:28Z</time>
      </trkpt>
      <trkpt lat="49.33017" lon="1.12944">
        <ele>87</ele>
        <time>2013-05-05T08:22:32Z</time>
      </trkpt>
      <trkpt lat="49.33012" lon="1.12918">
        <ele>87</ele>
        <time>2013-05-05T08:22:36Z</time>
      </trkpt>
      <trkpt lat="49.33005" lon="1.12887">
        <ele>86</ele>
        <time>2013-05-05T08:22:40Z</time>
      </trkpt>
      <trkpt lat="49.33002" lon="1.12858">
        <ele>86</ele>
        <time>2013-05-05T08:22:45Z</time>
      </trkpt>
      <trkpt lat="49.32997" lon="1.1283">
        <ele>93</ele>
        <time>2013-05-05T08:22:50Z</time>
      </trkpt>
      <trkpt lat="49.32991" lon="1.12802">
        <ele>93</ele>
        <time>2013-05-05T08:22:56Z</time>
      </trkpt>
      <trkpt lat="49.32985" lon="1.12776">
        <ele>93</ele>
        <time>2013-05-05T08:23:04Z</time>
      </trkpt>
      <trkpt lat="49.32978" lon="1.12748">
        <ele>91</ele>
        <time>2013-05-05T08:23:10Z</time>
      </trkpt>
      <trkpt lat="49.32975" lon="1.12721">
        <ele>91</ele>
        <time>2013-05-05T08:23:15Z</time>
      </trkpt>
      <trkpt lat="49.32974" lon="1.1269">
        <ele>91</ele>
        <time>2013-05-05T08:23:20Z</time>
      </trkpt>
      <trkpt lat="49.32972" lon="1.12662">
        <ele>84</ele>
        <time>2013-05-05T08:23:26Z</time>
      </trkpt>
      <trkpt lat="49.32965" lon="1.12636">
        <ele>84</ele>
        <time>2013-05-05T08:23:33Z</time>
      </trkpt>
      <trkpt lat="49.32961" lon="1.12607">
        <ele>84</ele>
        <time>2013-05-05T08:23:39Z</time>
      </trkpt>
      <trkpt lat="49.32963" lon="1.12579">
        <ele>75</ele>
        <time>2013-05-05T08:23:46Z</time>
      </trkpt>
      <trkpt lat="49.32964" lon="1.1255">
        <ele>75</ele>
        <time>2013-05-05T08:23:55Z</time>
      </trkpt>
      <trkpt lat="49.32969" lon="1.12517">
        <ele>75</ele>
        <time>2013-05-05T08:24:39Z</time>
      </trkpt>
      <trkpt lat="49.32964" lon="1.12488">
        <ele>78</ele>
        <time>2013-05-05T08:24:43Z</time>
      </trkpt>
      <trkpt lat="49.32946" lon="1.12472">
        <ele>78</ele>
        <time>2013-05-05T08:24:49Z</time>
      </trkpt>
      <trkpt lat="49.32926" lon="1.12461">
        <ele>78</ele>
        <time>2013-05-05T08:24:57Z</time>
      </trkpt>
      <trkpt lat="49.32912" lon="1.12443">
        <ele>86</ele>
        <time>2013-05-05T08:25:08Z</time>
      </trkpt>
      <trkpt lat="49.32903" lon="1.12416">
        <ele>86</ele>
        <time>2013-05-05T08:25:19Z</time>
      </trkpt>
      <trkpt lat="49.32892" lon="1.12392">
        <ele>86</ele>
        <time>2013-05-05T08:25:29Z</time>
      </trkpt>
      <trkpt lat="49.32879" lon="1.12373">
        <ele>86</ele>
        <time>2013-05-05T08:25:41Z</time>
      </trkpt>
      <trkpt lat="49.32862" lon="1.12359">
        <ele>86</ele>
        <time>2013-05-05T08:25:55Z</time>
      </trkpt>
      <trkpt lat="49.32846" lon="1.12343">
        <ele>86</ele>
        <time>2013-05-05T08:26:06Z</time>
      </trkpt>
      <trkpt lat="49.32837" lon="1.12319">
        <ele>88</ele>
        <time>2013-05-05T08:26:16Z</time>
      </trkpt>
      <trkpt lat="49.32834" lon="1.12288">
        <ele>88</ele>
        <time>2013-05-05T08:26:27Z</time>
      </trkpt>
      <trkpt lat="49.32831" lon="1.1226">
        <ele>88</ele>
        <time>2013-05-05T08:26:40Z</time>
      </trkpt>
      <trkpt lat="49.32823" lon="1.12234">
        <ele>88</ele>
        <time>2013-05-05T08:26:53Z</time>
      </trkpt>
      <trkpt lat="49.32819" lon="1.12205">
        <ele>88</ele>
        <time>2013-05-05T08:27:03Z</time>
      </trkpt>
      <trkpt lat="49.32818" lon="1.12174">
        <ele>88</ele>
        <time>2013-05-05T08:27:11Z</time>
      </trkpt>
      <trkpt lat="49.32815" lon="1.12146">
        <ele>85</ele>
        <time>2013-05-05T08:27:17Z</time>
      </trkpt>
      <trkpt lat="49.3281" lon="1.12118">
        <ele>85</ele>
        <time>2013-05-05T08:27:23Z</time>
      </trkpt>
      <trkpt lat="49.32805" lon="1.12086">
        <ele>85</ele>
        <time>2013-05-05T08:27:28Z</time>
      </trkpt>
      <trkpt lat="49.32801" lon="1.12057">
        <ele>85</ele>
        <time>2013-05-05T08:27:32Z</time>
      </trkpt>
      <trkpt lat="49.32795" lon="1.12025">
        <ele>85</ele>
        <time>2013-05-05T08:27:37Z</time>
      </trkpt>
      <trkpt lat="49.32788" lon="1.11986">
        <ele>84</ele>
        <time>2013-05-05T08:27:42Z</time>
      </trkpt>
      <trkpt lat="49.32783" lon="1.11959">
        <ele>84</ele>
        <time>2013-05-05T08:27:47Z</time>
      </trkpt>
      <trkpt lat="49.32781" lon="1.11929">
        <ele>84</ele>
        <time>2013-05-05T08:27:51Z</time>
      </trkpt>
      <trkpt lat="49.32776" lon="1.11903">
        <ele>83</ele>
        <time>2013-05-05T08:27:55Z</time>
      </trkpt>
      <trkpt lat="49.32771" lon="1.11875">
        <ele>83</ele>
        <time>2013-05-05T08:28:00Z</time>
      </trkpt>
      <trkpt lat="49.32772" lon="1.11845">
        <ele>83</ele>
        <time>2013-05-05T08:28:07Z</time>
      </trkpt>
      <trkpt lat="49.32792" lon="1.11832">
        <ele>82</ele>
        <time>2013-05-05T08:28:11Z</time>
      </trkpt>
      <trkpt lat="49.32813" lon="1.11819">
        <ele>82</ele>
        <time>2013-05-05T08:28:15Z</time>
      </trkpt>
      <trkpt lat="49.32831" lon="1.11809">
        <ele>82</ele>
        <time>2013-05-05T08:28:19Z</time>
      </trkpt>
      <trkpt lat="49.32833" lon="1.11779">
        <ele>82</ele>
        <time>2013-05-05T08:28:27Z</time>
      </trkpt>
      <trkpt lat="49.32828" lon="1.11749">
        <ele>79</ele>
        <time>2013-05-05T08:28:32Z</time>
      </trkpt>
      <trkpt lat="49.3282" lon="1.11717">
        <ele>79</ele>
        <time>2013-05-05T08:28:37Z</time>
      </trkpt>
      <trkpt lat="49.32819" lon="1.11689">
        <ele>79</ele>
        <time>2013-05-05T08:28:42Z</time>
      </trkpt>
      <trkpt lat="49.32828" lon="1.11661">
        <ele>77</ele>
        <time>2013-05-05T08:28:49Z</time>
      </trkpt>
      <trkpt lat="49.32844" lon="1.11645">
        <ele>76</ele>
        <time>2013-05-05T08:28:55Z</time>
      </trkpt>
      <trkpt lat="49.32865" lon="1.11643">
        <ele>76</ele>
        <time>2013-05-05T08:29:08Z</time>
      </trkpt>
      <trkpt lat="49.32884" lon="1.11653">
        <ele>76</ele>
        <time>2013-05-05T08:29:13Z</time>
      </trkpt>
      <trkpt lat="49.32903" lon="1.11666">
        <ele>76</ele>
        <time>2013-05-05T08:29:19Z</time>
      </trkpt>
      <trkpt lat="49.32919" lon="1.11679">
        <ele>81</ele>
        <time>2013-05-05T08:29:24Z</time>
      </trkpt>
      <trkpt lat="49.32936" lon="1.11695">
        <ele>81</ele>
        <time>2013-05-05T08:29:29Z</time>
      </trkpt>
      <trkpt lat="49.32951" lon="1.11711">
        <ele>81</ele>
        <time>2013-05-05T08:29:34Z</time>
      </trkpt>
      <trkpt lat="49.32968" lon="1.11727">
        <ele>81</ele>
        <time>2013-05-05T08:29:39Z</time>
      </trkpt>
      <trkpt lat="49.32986" lon="1.11743">
        <ele>81</ele>
        <time>2013-05-05T08:29:44Z</time>
      </trkpt>
      <trkpt lat="49.33005" lon="1.11759">
        <ele>80</ele>
        <time>2013-05-05T08:29:49Z</time>
      </trkpt>
      <trkpt lat="49.33025" lon="1.11775">
        <ele>80</ele>
        <time>2013-05-05T08:29:53Z</time>
      </trkpt>
      <trkpt lat="49.33045" lon="1.11789">
        <ele>80</ele>
        <time>2013-05-05T08:29:57Z</time>
      </trkpt>
      <trkpt lat="49.33064" lon="1.11791">
        <ele>80</ele>
        <time>2013-05-05T08:30:00Z</time>
      </trkpt>
      <trkpt lat="49.33083" lon="1.11779">
        <ele>80</ele>
        <time>2013-05-05T08:30:04Z</time>
      </trkpt>
      <trkpt lat="49.33098" lon="1.1175">
        <ele>80</ele>
        <time>2013-05-05T08:30:09Z</time>
      </trkpt>
      <trkpt lat="49.33107" lon="1.11721">
        <ele>80</ele>
        <time>2013-05-05T08:30:15Z</time>
      </trkpt>
      <trkpt lat="49.33122" lon="1.11704">
        <ele>80</ele>
        <time>2013-05-05T08:30:18Z</time>
      </trkpt>
      <trkpt lat="49.33138" lon="1.11688">
        <ele>80</ele>
        <time>2013-05-05T08:30:21Z</time>
      </trkpt>
      <trkpt lat="49.33152" lon="1.11666">
        <ele>79</ele>
        <time>2013-05-05T08:30:25Z</time>
      </trkpt>
      <trkpt lat="49.33164" lon="1.11641">
        <ele>79</ele>
        <time>2013-05-05T08:30:30Z</time>
      </trkpt>
      <trkpt lat="49.33177" lon="1.11616">
        <ele>72</ele>
        <time>2013-05-05T08:30:34Z</time>
      </trkpt>
      <trkpt lat="49.33192" lon="1.11597">
        <ele>72</ele>
        <time>2013-05-05T08:30:38Z</time>
      </trkpt>
      <trkpt lat="49.33213" lon="1.11583">
        <ele>64</ele>
        <time>2013-05-05T08:30:41Z</time>
      </trkpt>
      <trkpt lat="49.33221" lon="1.11552">
        <ele>64</ele>
        <time>2013-05-05T08:30:47Z</time>
      </trkpt>
      <trkpt lat="49.33216" lon="1.11523">
        <ele>64</ele>
        <time>2013-05-05T08:30:57Z</time>
      </trkpt>
      <trkpt lat="49.33198" lon="1.11518">
        <ele>64</ele>
        <time>2013-05-05T08:31:12Z</time>
      </trkpt>
      <trkpt lat="49.33181" lon="1.11506">
        <ele>64</ele>
        <time>2013-05-05T08:31:21Z</time>
      </trkpt>
      <trkpt lat="49.33163" lon="1.11496">
        <ele>67</ele>
        <time>2013-05-05T08:31:30Z</time>
      </trkpt>
      <trkpt lat="49.33146" lon="1.11483">
        <ele>67</ele>
        <time>2013-05-05T08:31:38Z</time>
      </trkpt>
      <trkpt lat="49.33128" lon="1.11477">
        <ele>67</ele>
        <time>2013-05-05T08:31:47Z</time>
      </trkpt>
      <trkpt lat="49.3311" lon="1.11467">
        <ele>67</ele>
        <time>2013-05-05T08:32:01Z</time>
      </trkpt>
      <trkpt lat="49.33092" lon="1.11463">
        <ele>67</ele>
        <time>2013-05-05T08:32:12Z</time>
      </trkpt>
      <trkpt lat="49.33071" lon="1.11467">
        <ele>75</ele>
        <time>2013-05-05T08:32:20Z</time>
      </trkpt>
      <trkpt lat="49.33052" lon="1.11471">
        <ele>75</ele>
        <time>2013-05-05T08:32:28Z</time>
      </trkpt>
      <trkpt lat="49.33033" lon="1.11478">
        <ele>75</ele>
        <time>2013-05-05T08:32:36Z</time>
      </trkpt>
      <trkpt lat="49.33014" lon="1.11489">
        <ele>75</ele>
        <time>2013-05-05T08:32:46Z</time>
      </trkpt>
      <trkpt lat="49.32995" lon="1.11502">
        <ele>76</ele>
        <time>2013-05-05T08:32:53Z</time>
      </trkpt>
      <trkpt lat="49.32977" lon="1.1151">
        <ele>76</ele>
        <time>2013-05-05T08:33:00Z</time>
      </trkpt>
      <trkpt lat="49.32959" lon="1.11521">
        <ele>76</ele>
        <time>2013-05-05T08:33:08Z</time>
      </trkpt>
      <trkpt lat="49.3294" lon="1.11533">
        <ele>76</ele>
        <time>2013-05-05T08:33:15Z</time>
      </trkpt>
      <trkpt lat="49.32921" lon="1.11545">
        <ele>76</ele>
        <time>2013-05-05T08:33:22Z</time>
      </trkpt>
      <trkpt lat="49.32901" lon="1.11555">
        <ele>74</ele>
        <time>2013-05-05T08:33:31Z</time>
      </trkpt>
      <trkpt lat="49.32883" lon="1.11565">
        <ele>74</ele>
        <time>2013-05-05T08:33:38Z</time>
      </trkpt>
      <trkpt lat="49.32865" lon="1.11574">
        <ele>74</ele>
        <time>2013-05-05T08:33:45Z</time>
      </trkpt>
      <trkpt lat="49.32844" lon="1.11585">
        <ele>76</ele>
        <time>2013-05-05T08:33:50Z</time>
      </trkpt>
      <trkpt lat="49.32826" lon="1.11591">
        <ele>77</ele>
        <time>2013-05-05T08:33:54Z</time>
      </trkpt>
      <trkpt lat="49.32808" lon="1.11591">
        <ele>77</ele>
        <time>2013-05-05T08:33:58Z</time>
      </trkpt>
      <trkpt lat="49.32787" lon="1.11588">
        <ele>77</ele>
        <time>2013-05-05T08:34:03Z</time>
      </trkpt>
      <trkpt lat="49.32767" lon="1.1159">
        <ele>77</ele>
        <time>2013-05-05T08:34:10Z</time>
      </trkpt>
      <trkpt lat="49.32747" lon="1.11597">
        <ele>75</ele>
        <time>2013-05-05T08:34:16Z</time>
      </trkpt>
      <trkpt lat="49.3273" lon="1.11606">
        <ele>75</ele>
        <time>2013-05-05T08:34:21Z</time>
      </trkpt>
      <trkpt lat="49.32712" lon="1.11621">
        <ele>75</ele>
        <time>2013-05-05T08:34:26Z</time>
      </trkpt>
      <trkpt lat="49.32697" lon="1.11641">
        <ele>75</ele>
        <time>2013-05-05T08:34:31Z</time>
      </trkpt>
      <trkpt lat="49.32683" lon="1.11662">
        <ele>75</ele>
        <time>2013-05-05T08:34:36Z</time>
      </trkpt>
      <trkpt lat="49.32667" lon="1.11683">
        <ele>79</ele>
        <time>2013-05-05T08:34:41Z</time>
      </trkpt>
      <trkpt lat="49.32651" lon="1.11704">
        <ele>76</ele>
        <time>2013-05-05T08:34:46Z</time>
      </trkpt>
      <trkpt lat="49.32633" lon="1.11725">
        <ele>76</ele>
        <time>2013-05-05T08:34:51Z</time>
      </trkpt>
      <trkpt lat="49.32616" lon="1.11736">
        <ele>76</ele>
        <time>2013-05-05T08:34:56Z</time>
      </trkpt>
      <trkpt lat="49.32597" lon="1.11728">
        <ele>76</ele>
        <time>2013-05-05T08:35:02Z</time>
      </trkpt>
      <trkpt lat="49.32584" lon="1.11702">
        <ele>76</ele>
        <time>2013-05-05T08:35:07Z</time>
      </trkpt>
      <trkpt lat="49.32572" lon="1.1168">
        <ele>76</ele>
        <time>2013-05-05T08:35:12Z</time>
      </trkpt>
      <trkpt lat="49.3256" lon="1.11657">
        <ele>73</ele>
        <time>2013-05-05T08:35:34Z</time>
      </trkpt>
      <trkpt lat="49.32546" lon="1.11637">
        <ele>73</ele>
        <time>2013-05-05T08:35:42Z</time>
      </trkpt>
      <trkpt lat="49.32532" lon="1.11615">
        <ele>73</ele>
        <time>2013-05-05T08:35:49Z</time>
      </trkpt>
      <trkpt lat="49.32517" lon="1.11595">
        <ele>73</ele>
        <time>2013-05-05T08:35:54Z</time>
      </trkpt>
      <trkpt lat="49.32503" lon="1.11574">
        <ele>73</ele>
        <time>2013-05-05T08:35:59Z</time>
      </trkpt>
      <trkpt lat="49.32489" lon="1.11555">
        <ele>73</ele>
        <time>2013-05-05T08:36:04Z</time>
      </trkpt>
      <trkpt lat="49.32474" lon="1.11531">
        <ele>73</ele>
        <time>2013-05-05T08:36:09Z</time>
      </trkpt>
      <trkpt lat="49.3246" lon="1.11506">
        <ele>73</ele>
        <time>2013-05-05T08:36:14Z</time>
      </trkpt>
      <trkpt lat="49.32448" lon="1.11486">
        <ele>73</ele>
        <time>2013-05-05T08:36:18Z</time>
      </trkpt>
      <trkpt lat="49.32435" lon="1.11465">
        <ele>73</ele>
        <time>2013-05-05T08:36:24Z</time>
      </trkpt>
      <trkpt lat="49.32419" lon="1.11453">
        <ele>73</ele>
        <time>2013-05-05T08:38:38Z</time>
      </trkpt>
      <trkpt lat="49.32409" lon="1.11427">
        <ele>79</ele>
        <time>2013-05-05T08:46:53Z</time>
      </trkpt>
      <trkpt lat="49.32418" lon="1.11397">
        <ele>74</ele>
        <time>2013-05-05T08:46:57Z</time>
      </trkpt>
      <trkpt lat="49.32427" lon="1.11362">
        <ele>74</ele>
        <time>2013-05-05T08:47:01Z</time>
      </trkpt>
      <trkpt lat="49.32424" lon="1.11325">
        <ele>70</ele>
        <time>2013-05-05T08:47:05Z</time>
      </trkpt>
      <trkpt lat="49.32423" lon="1.11295">
        <ele>70</ele>
        <time>2013-05-05T08:47:08Z</time>
      </trkpt>
      <trkpt lat="49.32422" lon="1.1126">
        <ele>70</ele>
        <time>2013-05-05T08:47:12Z</time>
      </trkpt>
      <trkpt lat="49.32421" lon="1.1123">
        <ele>66</ele>
        <time>2013-05-05T08:47:16Z</time>
      </trkpt>
      <trkpt lat="49.32418" lon="1.11201">
        <ele>66</ele>
        <time>2013-05-05T08:47:20Z</time>
      </trkpt>
      <trkpt lat="49.32416" lon="1.11173">
        <ele>70</ele>
        <time>2013-05-05T08:47:24Z</time>
      </trkpt>
      <trkpt lat="49.32414" lon="1.11145">
        <ele>65</ele>
        <time>2013-05-05T08:47:28Z</time>
      </trkpt>
      <trkpt lat="49.32412" lon="1.11116">
        <ele>65</ele>
        <time>2013-05-05T08:47:32Z</time>
      </trkpt>
      <trkpt lat="49.32411" lon="1.11085">
        <ele>65</ele>
        <time>2013-05-05T08:47:36Z</time>
      </trkpt>
      <trkpt lat="49.32409" lon="1.11055">
        <ele>63</ele>
        <time>2013-05-05T08:47:40Z</time>
      </trkpt>
      <trkpt lat="49.32408" lon="1.11026">
        <ele>63</ele>
        <time>2013-05-05T08:47:44Z</time>
      </trkpt>
      <trkpt lat="49.32407" lon="1.10996">
        <ele>62</ele>
        <time>2013-05-05T08:47:48Z</time>
      </trkpt>
      <trkpt lat="49.32407" lon="1.10963">
        <ele>62</ele>
        <time>2013-05-05T08:47:52Z</time>
      </trkpt>
      <trkpt lat="49.32411" lon="1.10929">
        <ele>62</ele>
        <time>2013-05-05T08:47:56Z</time>
      </trkpt>
      <trkpt lat="49.32416" lon="1.109">
        <ele>60</ele>
        <time>2013-05-05T08:47:59Z</time>
      </trkpt>
      <trkpt lat="49.32422" lon="1.10868">
        <ele>58</ele>
        <time>2013-05-05T08:48:02Z</time>
      </trkpt>
      <trkpt lat="49.32427" lon="1.10834">
        <ele>58</ele>
        <time>2013-05-05T08:48:05Z</time>
      </trkpt>
      <trkpt lat="49.32432" lon="1.10794">
        <ele>54</ele>
        <time>2013-05-05T08:48:08Z</time>
      </trkpt>
      <trkpt lat="49.32435" lon="1.10767">
        <ele>54</ele>
        <time>2013-05-05T08:48:10Z</time>
      </trkpt>
      <trkpt lat="49.32437" lon="1.10739">
        <ele>48</ele>
        <time>2013-05-05T08:48:12Z</time>
      </trkpt>
      <trkpt lat="49.32436" lon="1.10708">
        <ele>48</ele>
        <time>2013-05-05T08:48:14Z</time>
      </trkpt>
      <trkpt lat="49.32432" lon="1.10673">
        <ele>48</ele>
        <time>2013-05-05T08:48:16Z</time>
      </trkpt>
      <trkpt lat="49.32427" lon="1.10639">
        <ele>44</ele>
        <time>2013-05-05T08:48:18Z</time>
      </trkpt>
      <trkpt lat="49.32422" lon="1.10602">
        <ele>44</ele>
        <time>2013-05-05T08:48:20Z</time>
      </trkpt>
      <trkpt lat="49.32414" lon="1.10568">
        <ele>39</ele>
        <time>2013-05-05T08:48:22Z</time>
      </trkpt>
      <trkpt lat="49.32404" lon="1.10539">
        <ele>39</ele>
        <time>2013-05-05T08:48:24Z</time>
      </trkpt>
      <trkpt lat="49.32397" lon="1.10511">
        <ele>39</ele>
        <time>2013-05-05T08:48:26Z</time>
      </trkpt>
      <trkpt lat="49.32392" lon="1.10484">
        <ele>42</ele>
        <time>2013-05-05T08:48:32Z</time>
      </trkpt>
      <trkpt lat="49.32374" lon="1.10473">
        <ele>42</ele>
        <time>2013-05-05T08:48:41Z</time>
      </trkpt>
      <trkpt lat="49.32352" lon="1.10476">
        <ele>42</ele>
        <time>2013-05-05T08:48:45Z</time>
      </trkpt>
      <trkpt lat="49.32333" lon="1.10479">
        <ele>42</ele>
        <time>2013-05-05T08:48:48Z</time>
      </trkpt>
      <trkpt lat="49.32315" lon="1.10481">
        <ele>40</ele>
        <time>2013-05-05T08:48:51Z</time>
      </trkpt>
      <trkpt lat="49.32295" lon="1.10482">
        <ele>40</ele>
        <time>2013-05-05T08:48:54Z</time>
      </trkpt>
      <trkpt lat="49.32271" lon="1.10484">
        <ele>40</ele>
        <time>2013-05-05T08:48:57Z</time>
      </trkpt>
      <trkpt lat="49.3225" lon="1.10487">
        <ele>33</ele>
        <time>2013-05-05T08:49:00Z</time>
      </trkpt>
      <trkpt lat="49.32226" lon="1.10488">
        <ele>33</ele>
        <time>2013-05-05T08:49:03Z</time>
      </trkpt>
      <trkpt lat="49.32201" lon="1.10488">
        <ele>33</ele>
        <time>2013-05-05T08:49:06Z</time>
      </trkpt>
      <trkpt lat="49.32179" lon="1.1047">
        <ele>33</ele>
        <time>2013-05-05T08:49:09Z</time>
      </trkpt>
      <trkpt lat="49.32156" lon="1.1044">
        <ele>22</ele>
        <time>2013-05-05T08:49:12Z</time>
      </trkpt>
      <trkpt lat="49.32141" lon="1.10413">
        <ele>30</ele>
        <time>2013-05-05T08:49:14Z</time>
      </trkpt>
      <trkpt lat="49.32124" lon="1.10393">
        <ele>30</ele>
        <time>2013-05-05T08:49:16Z</time>
      </trkpt>
      <trkpt lat="49.32097" lon="1.10383">
        <ele>30</ele>
        <time>2013-05-05T08:49:19Z</time>
      </trkpt>
      <trkpt lat="49.32077" lon="1.10393">
        <ele>24</ele>
        <time>2013-05-05T08:49:21Z</time>
      </trkpt>
      <trkpt lat="49.32057" lon="1.10397">
        <ele>24</ele>
        <time>2013-05-05T08:49:23Z</time>
      </trkpt>
      <trkpt lat="49.32037" lon="1.10402">
        <ele>24</ele>
        <time>2013-05-05T08:49:25Z</time>
      </trkpt>
      <trkpt lat="49.32018" lon="1.10405">
        <ele>24</ele>
        <time>2013-05-05T08:49:27Z</time>
      </trkpt>
      <trkpt lat="49.31999" lon="1.10411">
        <ele>18</ele>
        <time>2013-05-05T08:49:29Z</time>
      </trkpt>
      <trkpt lat="49.31979" lon="1.10416">
        <ele>18</ele>
        <time>2013-05-05T08:49:31Z</time>
      </trkpt>
      <trkpt lat="49.31962" lon="1.10423">
        <ele>19</ele>
        <time>2013-05-05T08:49:33Z</time>
      </trkpt>
      <trkpt lat="49.31943" lon="1.1043">
        <ele>19</ele>
        <time>2013-05-05T08:49:35Z</time>
      </trkpt>
      <trkpt lat="49.31917" lon="1.10441">
        <ele>19</ele>
        <time>2013-05-05T08:49:38Z</time>
      </trkpt>
      <trkpt lat="49.31897" lon="1.10462">
        <ele>11</ele>
        <time>2013-05-05T08:49:41Z</time>
      </trkpt>
      <trkpt lat="49.31882" lon="1.10481">
        <ele>11</ele>
        <time>2013-05-05T08:49:43Z</time>
      </trkpt>
      <trkpt lat="49.31868" lon="1.10501">
        <ele>14</ele>
        <time>2013-05-05T08:49:45Z</time>
      </trkpt>
      <trkpt lat="49.31853" lon="1.1052">
        <ele>14</ele>
        <time>2013-05-05T08:49:47Z</time>
      </trkpt>
      <trkpt lat="49.31836" lon="1.10542">
        <ele>14</ele>
        <time>2013-05-05T08:49:49Z</time>
      </trkpt>
      <trkpt lat="49.31818" lon="1.10565">
        <ele>9</ele>
        <time>2013-05-05T08:49:51Z</time>
      </trkpt>
      <trkpt lat="49.31803" lon="1.10585">
        <ele>10</ele>
        <time>2013-05-05T08:49:53Z</time>
      </trkpt>
      <trkpt lat="49.31789" lon="1.10603">
        <ele>10</ele>
        <time>2013-05-05T08:49:56Z</time>
      </trkpt>
      <trkpt lat="49.31787" lon="1.10632">
        <ele>10</ele>
        <time>2013-05-05T08:50:03Z</time>
      </trkpt>
      <trkpt lat="49.31799" lon="1.10655">
        <ele>10</ele>
        <time>2013-05-05T08:50:08Z</time>
      </trkpt>
      <trkpt lat="49.31811" lon="1.10676">
        <ele>9</ele>
        <time>2013-05-05T08:50:12Z</time>
      </trkpt>
      <trkpt lat="49.31801" lon="1.10702">
        <ele>9</ele>
        <time>2013-05-05T08:50:16Z</time>
      </trkpt>
      <trkpt lat="49.31795" lon="1.10729">
        <ele>9</ele>
        <time>2013-05-05T08:50:20Z</time>
      </trkpt>
      <trkpt lat="49.31789" lon="1.10757">
        <ele>6</ele>
        <time>2013-05-05T08:50:24Z</time>
      </trkpt>
      <trkpt lat="49.31785" lon="1.10786">
        <ele>6</ele>
        <time>2013-05-05T08:50:28Z</time>
      </trkpt>
      <trkpt lat="49.31781" lon="1.10816">
        <ele>6</ele>
        <time>2013-05-05T08:50:32Z</time>
      </trkpt>
      <trkpt lat="49.31778" lon="1.10846">
        <ele>4</ele>
        <time>2013-05-05T08:50:36Z</time>
      </trkpt>
      <trkpt lat="49.31775" lon="1.10876">
        <ele>4</ele>
        <time>2013-05-05T08:50:40Z</time>
      </trkpt>
      <trkpt lat="49.31772" lon="1.10908">
        <ele>4</ele>
        <time>2013-05-05T08:50:44Z</time>
      </trkpt>
      <trkpt lat="49.31769" lon="1.10938">
        <ele>3</ele>
        <time>2013-05-05T08:50:48Z</time>
      </trkpt>
      <trkpt lat="49.31767" lon="1.10968">
        <ele>3</ele>
        <time>2013-05-05T08:50:52Z</time>
      </trkpt>
      <trkpt lat="49.31766" lon="1.11">
        <ele>6</ele>
        <time>2013-05-05T08:50:56Z</time>
      </trkpt>
      <trkpt lat="49.31764" lon="1.11032">
        <ele>6</ele>
        <time>2013-05-05T08:51:00Z</time>
      </trkpt>
      <trkpt lat="49.31763" lon="1.11064">
        <ele>6</ele>
        <time>2013-05-05T08:51:04Z</time>
      </trkpt>
      <trkpt lat="49.31763" lon="1.11092">
        <ele>7</ele>
        <time>2013-05-05T08:51:08Z</time>
      </trkpt>
      <trkpt lat="49.31763" lon="1.11123">
        <ele>7</ele>
        <time>2013-05-05T08:51:12Z</time>
      </trkpt>
      <trkpt lat="49.31763" lon="1.11153">
        <ele>7</ele>
        <time>2013-05-05T08:51:16Z</time>
      </trkpt>
      <trkpt lat="49.31761" lon="1.11187">
        <ele>7</ele>
        <time>2013-05-05T08:51:21Z</time>
      </trkpt>
      <trkpt lat="49.31762" lon="1.11219">
        <ele>7</ele>
        <time>2013-05-05T08:51:25Z</time>
      </trkpt>
      <trkpt lat="49.31761" lon="1.11253">
        <ele>7</ele>
        <time>2013-05-05T08:51:29Z</time>
      </trkpt>
      <trkpt lat="49.31762" lon="1.11283">
        <ele>7</ele>
        <time>2013-05-05T08:51:33Z</time>
      </trkpt>
      <trkpt lat="49.31762" lon="1.11314">
        <ele>7</ele>
        <time>2013-05-05T08:51:37Z</time>
      </trkpt>
      <trkpt lat="49.31763" lon="1.11343">
        <ele>7</ele>
        <time>2013-05-05T08:51:41Z</time>
      </trkpt>
      <trkpt lat="49.31765" lon="1.11371">
        <ele>7</ele>
        <time>2013-05-05T08:51:44Z</time>
      </trkpt>
      <trkpt lat="49.31766" lon="1.11403">
        <ele>7</ele>
        <time>2013-05-05T08:51:48Z</time>
      </trkpt>
      <trkpt lat="49.31768" lon="1.11435">
        <ele>6</ele>
        <time>2013-05-05T08:51:52Z</time>
      </trkpt>
      <trkpt lat="49.31768" lon="1.11466">
        <ele>6</ele>
        <time>2013-05-05T08:51:56Z</time>
      </trkpt>
      <trkpt lat="49.31769" lon="1.11498">
        <ele>6</ele>
        <time>2013-05-05T08:52:00Z</time>
      </trkpt>
      <trkpt lat="49.31767" lon="1.1153">
        <ele>6</ele>
        <time>2013-05-05T08:52:04Z</time>
      </trkpt>
      <trkpt lat="49.31766" lon="1.11561">
        <ele>6</ele>
        <time>2013-05-05T08:52:08Z</time>
      </trkpt>
      <trkpt lat="49.31767" lon="1.11594">
        <ele>7</ele>
        <time>2013-05-05T08:52:12Z</time>
      </trkpt>
      <trkpt lat="49.31769" lon="1.11625">
        <ele>7</ele>
        <time>2013-05-05T08:52:16Z</time>
      </trkpt>
      <trkpt lat="49.31771" lon="1.11656">
        <ele>7</ele>
        <time>2013-05-05T08:52:20Z</time>
      </trkpt>
      <trkpt lat="49.31773" lon="1.11686">
        <ele>6</ele>
        <time>2013-05-05T08:52:24Z</time>
      </trkpt>
      <trkpt lat="49.31773" lon="1.11717">
        <ele>6</ele>
        <time>2013-05-05T08:52:28Z</time>
      </trkpt>
      <trkpt lat="49.31775" lon="1.11749">
        <ele>6</ele>
        <time>2013-05-05T08:52:32Z</time>
      </trkpt>
      <trkpt lat="49.31777" lon="1.11779">
        <ele>6</ele>
        <time>2013-05-05T08:52:36Z</time>
      </trkpt>
      <trkpt lat="49.31776" lon="1.1181">
        <ele>6</ele>
        <time>2013-05-05T08:52:42Z</time>
      </trkpt>
      <trkpt lat="49.31776" lon="1.1184">
        <ele>6</ele>
        <time>2013-05-05T08:52:46Z</time>
      </trkpt>
      <trkpt lat="49.31775" lon="1.11869">
        <ele>6</ele>
        <time>2013-05-05T08:52:50Z</time>
      </trkpt>
      <trkpt lat="49.31773" lon="1.119">
        <ele>6</ele>
        <time>2013-05-05T08:52:54Z</time>
      </trkpt>
      <trkpt lat="49.31772" lon="1.11931">
        <ele>6</ele>
        <time>2013-05-05T08:52:58Z</time>
      </trkpt>
      <trkpt lat="49.3177" lon="1.11963">
        <ele>6</ele>
        <time>2013-05-05T08:53:02Z</time>
      </trkpt>
      <trkpt lat="49.31771" lon="1.11993">
        <ele>6</ele>
        <time>2013-05-05T08:53:06Z</time>
      </trkpt>
      <trkpt lat="49.31772" lon="1.12022">
        <ele>4</ele>
        <time>2013-05-05T08:53:10Z</time>
      </trkpt>
      <trkpt lat="49.31773" lon="1.12053">
        <ele>4</ele>
        <time>2013-05-05T08:53:14Z</time>
      </trkpt>
      <trkpt lat="49.31773" lon="1.12085">
        <ele>4</ele>
        <time>2013-05-05T08:53:18Z</time>
      </trkpt>
      <trkpt lat="49.31775" lon="1.12118">
        <ele>4</ele>
        <time>2013-05-05T08:53:22Z</time>
      </trkpt>
      <trkpt lat="49.31776" lon="1.12151">
        <ele>4</ele>
        <time>2013-05-05T08:53:26Z</time>
      </trkpt>
      <trkpt lat="49.31777" lon="1.12181">
        <ele>6</ele>
        <time>2013-05-05T08:53:30Z</time>
      </trkpt>
      <trkpt lat="49.31778" lon="1.12214">
        <ele>6</ele>
        <time>2013-05-05T08:53:34Z</time>
      </trkpt>
      <trkpt lat="49.3178" lon="1.12248">
        <ele>6</ele>
        <time>2013-05-05T08:53:38Z</time>
      </trkpt>
      <trkpt lat="49.31782" lon="1.1228">
        <ele>7</ele>
        <time>2013-05-05T08:53:42Z</time>
      </trkpt>
      <trkpt lat="49.31786" lon="1.12312">
        <ele>7</ele>
        <time>2013-05-05T08:53:46Z</time>
      </trkpt>
      <trkpt lat="49.31791" lon="1.12341">
        <ele>7</ele>
        <time>2013-05-05T08:53:50Z</time>
      </trkpt>
      <trkpt lat="49.31791" lon="1.12369">
        <ele>7</ele>
        <time>2013-05-05T08:53:54Z</time>
      </trkpt>
      <trkpt lat="49.3177" lon="1.12381">
        <ele>7</ele>
        <time>2013-05-05T08:53:58Z</time>
      </trkpt>
      <trkpt lat="49.31752" lon="1.12391">
        <ele>7</ele>
        <time>2013-05-05T08:54:01Z</time>
      </trkpt>
      <trkpt lat="49.31735" lon="1.12412">
        <ele>7</ele>
        <time>2013-05-05T08:54:05Z</time>
      </trkpt>
      <trkpt lat="49.3172" lon="1.12439">
        <ele>7</ele>
        <time>2013-05-05T08:54:09Z</time>
      </trkpt>
      <trkpt lat="49.31708" lon="1.12467">
        <ele>7</ele>
        <time>2013-05-05T08:54:13Z</time>
      </trkpt>
      <trkpt lat="49.31695" lon="1.12496">
        <ele>7</ele>
        <time>2013-05-05T08:54:17Z</time>
      </trkpt>
      <trkpt lat="49.31678" lon="1.12512">
        <ele>7</ele>
        <time>2013-05-05T08:54:29Z</time>
      </trkpt>
      <trkpt lat="49.31661" lon="1.12525">
        <ele>7</ele>
        <time>2013-05-05T08:54:36Z</time>
      </trkpt>
      <trkpt lat="49.31644" lon="1.12541">
        <ele>7</ele>
        <time>2013-05-05T08:54:42Z</time>
      </trkpt>
      <trkpt lat="49.31625" lon="1.12554">
        <ele>7</ele>
        <time>2013-05-05T08:54:48Z</time>
      </trkpt>
      <trkpt lat="49.31612" lon="1.12573">
        <ele>7</ele>
        <time>2013-05-05T08:54:53Z</time>
      </trkpt>
      <trkpt lat="49.31605" lon="1.12604">
        <ele>6</ele>
        <time>2013-05-05T08:54:58Z</time>
      </trkpt>
      <trkpt lat="49.31608" lon="1.12637">
        <ele>6</ele>
        <time>2013-05-05T08:55:03Z</time>
      </trkpt>
      <trkpt lat="49.31612" lon="1.12668">
        <ele>7</ele>
        <time>2013-05-05T08:55:07Z</time>
      </trkpt>
      <trkpt lat="49.31611" lon="1.12697">
        <ele>7</ele>
        <time>2013-05-05T08:55:11Z</time>
      </trkpt>
      <trkpt lat="49.31611" lon="1.12728">
        <ele>7</ele>
        <time>2013-05-05T08:55:15Z</time>
      </trkpt>
      <trkpt lat="49.31609" lon="1.12758">
        <ele>7</ele>
        <time>2013-05-05T08:55:19Z</time>
      </trkpt>
      <trkpt lat="49.31611" lon="1.12788">
        <ele>7</ele>
        <time>2013-05-05T08:55:23Z</time>
      </trkpt>
      <trkpt lat="49.31617" lon="1.12815">
        <ele>7</ele>
        <time>2013-05-05T08:55:29Z</time>
      </trkpt>
      <trkpt lat="49.31619" lon="1.12847">
        <ele>7</ele>
        <time>2013-05-05T08:55:35Z</time>
      </trkpt>
      <trkpt lat="49.31618" lon="1.12877">
        <ele>7</ele>
        <time>2013-05-05T08:55:40Z</time>
      </trkpt>
      <trkpt lat="49.31618" lon="1.12912">
        <ele>7</ele>
        <time>2013-05-05T08:55:45Z</time>
      </trkpt>
      <trkpt lat="49.31622" lon="1.12944">
        <ele>6</ele>
        <time>2013-05-05T08:55:49Z</time>
      </trkpt>
      <trkpt lat="49.31625" lon="1.12972">
        <ele>6</ele>
        <time>2013-05-05T08:55:53Z</time>
      </trkpt>
      <trkpt lat="49.31629" lon="1.13002">
        <ele>6</ele>
        <time>2013-05-05T08:55:57Z</time>
      </trkpt>
      <trkpt lat="49.31639" lon="1.13026">
        <ele>6</ele>
        <time>2013-05-05T08:56:01Z</time>
      </trkpt>
      <trkpt lat="49.31656" lon="1.13041">
        <ele>6</ele>
        <time>2013-05-05T08:56:05Z</time>
      </trkpt>
      <trkpt lat="49.31673" lon="1.13052">
        <ele>9</ele>
        <time>2013-05-05T08:56:09Z</time>
      </trkpt>
      <trkpt lat="49.31683" lon="1.13079">
        <ele>9</ele>
        <time>2013-05-05T08:56:14Z</time>
      </trkpt>
      <trkpt lat="49.31684" lon="1.1311">
        <ele>9</ele>
        <time>2013-05-05T08:56:18Z</time>
      </trkpt>
      <trkpt lat="49.31685" lon="1.13141">
        <ele>9</ele>
        <time>2013-05-05T08:56:22Z</time>
      </trkpt>
      <trkpt lat="49.31685" lon="1.13171">
        <ele>8</ele>
        <time>2013-05-05T08:56:26Z</time>
      </trkpt>
      <trkpt lat="49.31686" lon="1.132">
        <ele>8</ele>
        <time>2013-05-05T08:56:30Z</time>
      </trkpt>
      <trkpt lat="49.31687" lon="1.13228">
        <ele>8</ele>
        <time>2013-05-05T08:56:34Z</time>
      </trkpt>
      <trkpt lat="49.31688" lon="1.13256">
        <ele>8</ele>
        <time>2013-05-05T08:56:37Z</time>
      </trkpt>
      <trkpt lat="49.31688" lon="1.13288">
        <ele>8</ele>
        <time>2013-05-05T08:56:41Z</time>
      </trkpt>
      <trkpt lat="49.31692" lon="1.13323">
        <ele>8</ele>
        <time>2013-05-05T08:56:46Z</time>
      </trkpt>
      <trkpt lat="49.31695" lon="1.13355">
        <ele>9</ele>
        <time>2013-05-05T08:56:50Z</time>
      </trkpt>
      <trkpt lat="49.317" lon="1.13388">
        <ele>9</ele>
        <time>2013-05-05T08:56:54Z</time>
      </trkpt>
      <trkpt lat="49.317" lon="1.13417">
        <ele>9</ele>
        <time>2013-05-05T08:57:09Z</time>
      </trkpt>
      <trkpt lat="49.31698" lon="1.13447">
        <ele>9</ele>
        <time>2013-05-05T08:57:23Z</time>
      </trkpt>
      <trkpt lat="49.31701" lon="1.13478">
        <ele>9</ele>
        <time>2013-05-05T08:57:30Z</time>
      </trkpt>
      <trkpt lat="49.31703" lon="1.13507">
        <ele>9</ele>
        <time>2013-05-05T08:57:35Z</time>
      </trkpt>
      <trkpt lat="49.31703" lon="1.13537">
        <ele>9</ele>
        <time>2013-05-05T08:57:41Z</time>
      </trkpt>
      <trkpt lat="49.31704" lon="1.13567">
        <ele>9</ele>
        <time>2013-05-05T08:57:48Z</time>
      </trkpt>
      <trkpt lat="49.31706" lon="1.13599">
        <ele>9</ele>
        <time>2013-05-05T08:57:54Z</time>
      </trkpt>
      <trkpt lat="49.31709" lon="1.13629">
        <ele>9</ele>
        <time>2013-05-05T08:57:59Z</time>
      </trkpt>
      <trkpt lat="49.3171" lon="1.13663">
        <ele>9</ele>
        <time>2013-05-05T08:58:04Z</time>
      </trkpt>
      <trkpt lat="49.31712" lon="1.1369">
        <ele>9</ele>
        <time>2013-05-05T08:58:08Z</time>
      </trkpt>
      <trkpt lat="49.31715" lon="1.13721">
        <ele>9</ele>
        <time>2013-05-05T08:58:13Z</time>
      </trkpt>
      <trkpt lat="49.31718" lon="1.13756">
        <ele>9</ele>
        <time>2013-05-05T08:58:18Z</time>
      </trkpt>
      <trkpt lat="49.31717" lon="1.13784">
        <ele>9</ele>
        <time>2013-05-05T08:58:21Z</time>
      </trkpt>
      <trkpt lat="49.31711" lon="1.13814">
        <ele>9</ele>
        <time>2013-05-05T08:58:25Z</time>
      </trkpt>
      <trkpt lat="49.31707" lon="1.13841">
        <ele>9</ele>
        <time>2013-05-05T08:58:29Z</time>
      </trkpt>
      <trkpt lat="49.31704" lon="1.13873">
        <ele>9</ele>
        <time>2013-05-05T08:58:33Z</time>
      </trkpt>
      <trkpt lat="49.31704" lon="1.13905">
        <ele>9</ele>
        <time>2013-05-05T08:58:37Z</time>
      </trkpt>
      <trkpt lat="49.31702" lon="1.13938">
        <ele>10</ele>
        <time>2013-05-05T08:58:41Z</time>
      </trkpt>
      <trkpt lat="49.31701" lon="1.13969">
        <ele>10</ele>
        <time>2013-05-05T08:58:45Z</time>
      </trkpt>
      <trkpt lat="49.31698" lon="1.13999">
        <ele>10</ele>
        <time>2013-05-05T08:58:49Z</time>
      </trkpt>
      <trkpt lat="49.31696" lon="1.14031">
        <ele>9</ele>
        <time>2013-05-05T08:58:53Z</time>
      </trkpt>
      <trkpt lat="49.31698" lon="1.14061">
        <ele>9</ele>
        <time>2013-05-05T08:58:57Z</time>
      </trkpt>
      <trkpt lat="49.31701" lon="1.14091">
        <ele>8</ele>
        <time>2013-05-05T08:59:01Z</time>
      </trkpt>
      <trkpt lat="49.31702" lon="1.14123">
        <ele>8</ele>
        <time>2013-05-05T08:59:05Z</time>
      </trkpt>
      <trkpt lat="49.31704" lon="1.14159">
        <ele>8</ele>
        <time>2013-05-05T08:59:09Z</time>
      </trkpt>
      <trkpt lat="49.31709" lon="1.14191">
        <ele>10</ele>
        <time>2013-05-05T08:59:13Z</time>
      </trkpt>
      <trkpt lat="49.31712" lon="1.1422">
        <ele>10</ele>
        <time>2013-05-05T08:59:17Z</time>
      </trkpt>
      <trkpt lat="49.31715" lon="1.14254">
        <ele>10</ele>
        <time>2013-05-05T08:59:21Z</time>
      </trkpt>
      <trkpt lat="49.31716" lon="1.14285">
        <ele>10</ele>
        <time>2013-05-05T08:59:25Z</time>
      </trkpt>
      <trkpt lat="49.31716" lon="1.14319">
        <ele>10</ele>
        <time>2013-05-05T08:59:29Z</time>
      </trkpt>
      <trkpt lat="49.31714" lon="1.14353">
        <ele>10</ele>
        <time>2013-05-05T08:59:33Z</time>
      </trkpt>
      <trkpt lat="49.31713" lon="1.14383">
        <ele>10</ele>
        <time>2013-05-05T08:59:37Z</time>
      </trkpt>
      <trkpt lat="49.31728" lon="1.144">
        <ele>10</ele>
        <time>2013-05-05T08:59:41Z</time>
      </trkpt>
      <trkpt lat="49.31743" lon="1.14422">
        <ele>9</ele>
        <time>2013-05-05T08:59:46Z</time>
      </trkpt>
      <trkpt lat="49.31738" lon="1.14459">
        <ele>9</ele>
        <time>2013-05-05T08:59:51Z</time>
      </trkpt>
      <trkpt lat="49.31736" lon="1.1449">
        <ele>9</ele>
        <time>2013-05-05T08:59:55Z</time>
      </trkpt>
      <trkpt lat="49.31735" lon="1.14523">
        <ele>10</ele>
        <time>2013-05-05T08:59:59Z</time>
      </trkpt>
      <trkpt lat="49.31732" lon="1.14552">
        <ele>10</ele>
        <time>2013-05-05T09:00:03Z</time>
      </trkpt>
      <trkpt lat="49.31724" lon="1.14584">
        <ele>11</ele>
        <time>2013-05-05T09:00:07Z</time>
      </trkpt>
      <trkpt lat="49.31716" lon="1.14617">
        <ele>11</ele>
        <time>2013-05-05T09:00:11Z</time>
      </trkpt>
      <trkpt lat="49.31709" lon="1.14643">
        <ele>11</ele>
        <time>2013-05-05T09:00:14Z</time>
      </trkpt>
      <trkpt lat="49.31705" lon="1.14677">
        <ele>9</ele>
        <time>2013-05-05T09:00:18Z</time>
      </trkpt>
      <trkpt lat="49.31724" lon="1.14676">
        <ele>9</ele>
        <time>2013-05-05T09:00:22Z</time>
      </trkpt>
      <trkpt lat="49.31743" lon="1.14659">
        <ele>11</ele>
        <time>2013-05-05T09:00:27Z</time>
      </trkpt>
      <trkpt lat="49.3176" lon="1.14645">
        <ele>8</ele>
        <time>2013-05-05T09:00:31Z</time>
      </trkpt>
      <trkpt lat="49.31776" lon="1.14627">
        <ele>8</ele>
        <time>2013-05-05T09:00:35Z</time>
      </trkpt>
      <trkpt lat="49.31791" lon="1.14609">
        <ele>8</ele>
        <time>2013-05-05T09:00:39Z</time>
      </trkpt>
      <trkpt lat="49.31808" lon="1.14591">
        <ele>8</ele>
        <time>2013-05-05T09:00:43Z</time>
      </trkpt>
      <trkpt lat="49.31824" lon="1.14573">
        <ele>8</ele>
        <time>2013-05-05T09:00:47Z</time>
      </trkpt>
      <trkpt lat="49.3184" lon="1.14555">
        <ele>9</ele>
        <time>2013-05-05T09:00:51Z</time>
      </trkpt>
      <trkpt lat="49.31854" lon="1.14536">
        <ele>9</ele>
        <time>2013-05-05T09:00:56Z</time>
      </trkpt>
      <trkpt lat="49.31858" lon="1.14563">
        <ele>9</ele>
        <time>2013-05-05T09:01:02Z</time>
      </trkpt>
      <trkpt lat="49.3186" lon="1.14593">
        <ele>8</ele>
        <time>2013-05-05T09:01:06Z</time>
      </trkpt>
      <trkpt lat="49.3186" lon="1.14623">
        <ele>8</ele>
        <time>2013-05-05T09:01:10Z</time>
      </trkpt>
      <trkpt lat="49.31863" lon="1.14653">
        <ele>8</ele>
        <time>2013-05-05T09:01:14Z</time>
      </trkpt>
      <trkpt lat="49.31869" lon="1.14682">
        <ele>9</ele>
        <time>2013-05-05T09:01:20Z</time>
      </trkpt>
      <trkpt lat="49.31865" lon="1.1471">
        <ele>9</ele>
        <time>2013-05-05T09:01:25Z</time>
      </trkpt>
      <trkpt lat="49.31859" lon="1.1474">
        <ele>9</ele>
        <time>2013-05-05T09:01:29Z</time>
      </trkpt>
      <trkpt lat="49.31856" lon="1.14771">
        <ele>9</ele>
        <time>2013-05-05T09:01:33Z</time>
      </trkpt>
      <trkpt lat="49.31853" lon="1.14805">
        <ele>9</ele>
        <time>2013-05-05T09:01:38Z</time>
      </trkpt>
      <trkpt lat="49.31855" lon="1.14833">
        <ele>9</ele>
        <time>2013-05-05T09:01:42Z</time>
      </trkpt>
      <trkpt lat="49.31856" lon="1.14866">
        <ele>8</ele>
        <time>2013-05-05T09:01:46Z</time>
      </trkpt>
      <trkpt lat="49.31859" lon="1.14894">
        <ele>8</ele>
        <time>2013-05-05T09:01:51Z</time>
      </trkpt>
      <trkpt lat="49.3188" lon="1.1488">
        <ele>8</ele>
        <time>2013-05-05T09:01:54Z</time>
      </trkpt>
      <trkpt lat="49.319" lon="1.1488">
        <ele>8</ele>
        <time>2013-05-05T09:01:59Z</time>
      </trkpt>
      <trkpt lat="49.31914" lon="1.14856">
        <ele>8</ele>
        <time>2013-05-05T09:02:06Z</time>
      </trkpt>
      <trkpt lat="49.31916" lon="1.14825">
        <ele>9</ele>
        <time>2013-05-05T09:02:11Z</time>
      </trkpt>
      <trkpt lat="49.31917" lon="1.14795">
        <ele>11</ele>
        <time>2013-05-05T09:02:16Z</time>
      </trkpt>
      <trkpt lat="49.31935" lon="1.14783">
        <ele>11</ele>
        <time>2013-05-05T09:02:22Z</time>
      </trkpt>
      <trkpt lat="49.31951" lon="1.14799">
        <ele>11</ele>
        <time>2013-05-05T09:02:24Z</time>
      </trkpt>
      <trkpt lat="49.31973" lon="1.14805">
        <ele>11</ele>
        <time>2013-05-05T09:02:28Z</time>
      </trkpt>
      <trkpt lat="49.31992" lon="1.14809">
        <ele>11</ele>
        <time>2013-05-05T09:02:32Z</time>
      </trkpt>
      <trkpt lat="49.32011" lon="1.14812">
        <ele>12</ele>
        <time>2013-05-05T09:02:36Z</time>
      </trkpt>
      <trkpt lat="49.32032" lon="1.14811">
        <ele>12</ele>
        <time>2013-05-05T09:02:41Z</time>
      </trkpt>
      <trkpt lat="49.32054" lon="1.14809">
        <ele>12</ele>
        <time>2013-05-05T09:02:46Z</time>
      </trkpt>
      <trkpt lat="49.32075" lon="1.14809">
        <ele>12</ele>
        <time>2013-05-05T09:02:50Z</time>
      </trkpt>
      <trkpt lat="49.32094" lon="1.14799">
        <ele>15</ele>
        <time>2013-05-05T09:02:55Z</time>
      </trkpt>
      <trkpt lat="49.32113" lon="1.14789">
        <ele>15</ele>
        <time>2013-05-05T09:03:00Z</time>
      </trkpt>
      <trkpt lat="49.32128" lon="1.14772">
        <ele>15</ele>
        <time>2013-05-05T09:03:11Z</time>
      </trkpt>
      <trkpt lat="49.3214" lon="1.1475">
        <ele>14</ele>
        <time>2013-05-05T09:03:19Z</time>
      </trkpt>
      <trkpt lat="49.3215" lon="1.14726">
        <ele>14</ele>
        <time>2013-05-05T09:03:27Z</time>
      </trkpt>
      <trkpt lat="49.32172" lon="1.14729">
        <ele>19</ele>
        <time>2013-05-05T09:03:35Z</time>
      </trkpt>
      <trkpt lat="49.32193" lon="1.14728">
        <ele>19</ele>
        <time>2013-05-05T09:03:40Z</time>
      </trkpt>
      <trkpt lat="49.32212" lon="1.14722">
        <ele>19</ele>
        <time>2013-05-05T09:03:45Z</time>
      </trkpt>
      <trkpt lat="49.3223" lon="1.1472">
        <ele>19</ele>
        <time>2013-05-05T09:03:50Z</time>
      </trkpt>
      <trkpt lat="49.32246" lon="1.14737">
        <ele>19</ele>
        <time>2013-05-05T09:03:55Z</time>
      </trkpt>
      <trkpt lat="49.32254" lon="1.14765">
        <ele>19</ele>
        <time>2013-05-05T09:04:00Z</time>
      </trkpt>
      <trkpt lat="49.32267" lon="1.14787">
        <ele>19</ele>
        <time>2013-05-05T09:04:05Z</time>
      </trkpt>
      <trkpt lat="49.32271" lon="1.14815">
        <ele>19</ele>
        <time>2013-05-05T09:04:10Z</time>
      </trkpt>
      <trkpt lat="49.32272" lon="1.14845">
        <ele>20</ele>
        <time>2013-05-05T09:04:15Z</time>
      </trkpt>
      <trkpt lat="49.32275" lon="1.14877">
        <ele>20</ele>
        <time>2013-05-05T09:04:21Z</time>
      </trkpt>
      <trkpt lat="49.32275" lon="1.14906">
        <ele>20</ele>
        <time>2013-05-05T09:04:39Z</time>
      </trkpt>
      <trkpt lat="49.32275" lon="1.14935">
        <ele>29</ele>
        <time>2013-05-05T09:04:51Z</time>
      </trkpt>
      <trkpt lat="49.32257" lon="1.14936">
        <ele>29</ele>
        <time>2013-05-05T09:05:21Z</time>
      </trkpt>
      <trkpt lat="49.32239" lon="1.14929">
        <ele>26</ele>
        <time>2013-05-05T09:05:36Z</time>
      </trkpt>
      <trkpt lat="49.32221" lon="1.14937">
        <ele>26</ele>
        <time>2013-05-05T09:05:50Z</time>
      </trkpt>
      <trkpt lat="49.32214" lon="1.14963">
        <ele>26</ele>
        <time>2013-05-05T09:06:31Z</time>
      </trkpt>
      <trkpt lat="49.3221" lon="1.1499">
        <ele>26</ele>
        <time>2013-05-05T09:07:03Z</time>
      </trkpt>
      <trkpt lat="49.3222" lon="1.15014">
        <ele>34</ele>
        <time>2013-05-05T09:07:16Z</time>
      </trkpt>
      <trkpt lat="49.32231" lon="1.15037">
        <ele>34</ele>
        <time>2013-05-05T09:07:30Z</time>
      </trkpt>
      <trkpt lat="49.32234" lon="1.15067">
        <ele>34</ele>
        <time>2013-05-05T09:07:46Z</time>
      </trkpt>
      <trkpt lat="49.32244" lon="1.15093">
        <ele>41</ele>
        <time>2013-05-05T09:07:56Z</time>
      </trkpt>
      <trkpt lat="49.32255" lon="1.15115">
        <ele>46</ele>
        <time>2013-05-05T09:08:05Z</time>
      </trkpt>
      <trkpt lat="49.32267" lon="1.1514">
        <ele>46</ele>
        <time>2013-05-05T09:08:15Z</time>
      </trkpt>
      <trkpt lat="49.32277" lon="1.15165">
        <ele>46</ele>
        <time>2013-05-05T09:08:24Z</time>
      </trkpt>
      <trkpt lat="49.32286" lon="1.1519">
        <ele>53</ele>
        <time>2013-05-05T09:08:32Z</time>
      </trkpt>
      <trkpt lat="49.32295" lon="1.15214">
        <ele>53</ele>
        <time>2013-05-05T09:08:39Z</time>
      </trkpt>
      <trkpt lat="49.32305" lon="1.1524">
        <ele>53</ele>
        <time>2013-05-05T09:08:46Z</time>
      </trkpt>
      <trkpt lat="49.32312" lon="1.15269">
        <ele>56</ele>
        <time>2013-05-05T09:08:53Z</time>
      </trkpt>
      <trkpt lat="49.32322" lon="1.15293">
        <ele>56</ele>
        <time>2013-05-05T09:08:59Z</time>
      </trkpt>
      <trkpt lat="49.32331" lon="1.15319">
        <ele>56</ele>
        <time>2013-05-05T09:09:04Z</time>
      </trkpt>
      <trkpt lat="49.32342" lon="1.15341">
        <ele>58</ele>
        <time>2013-05-05T09:09:09Z</time>
      </trkpt>
      <trkpt lat="49.32353" lon="1.15366">
        <ele>58</ele>
        <time>2013-05-05T09:09:15Z</time>
      </trkpt>
      <trkpt lat="49.32364" lon="1.15391">
        <ele>58</ele>
        <time>2013-05-05T09:09:21Z</time>
      </trkpt>
      <trkpt lat="49.32373" lon="1.15417">
        <ele>62</ele>
        <time>2013-05-05T09:09:27Z</time>
      </trkpt>
      <trkpt lat="49.32381" lon="1.15442">
        <ele>62</ele>
        <time>2013-05-05T09:09:32Z</time>
      </trkpt>
      <trkpt lat="49.32391" lon="1.15467">
        <ele>62</ele>
        <time>2013-05-05T09:09:38Z</time>
      </trkpt>
      <trkpt lat="49.32401" lon="1.1549">
        <ele>62</ele>
        <time>2013-05-05T09:09:43Z</time>
      </trkpt>
      <trkpt lat="49.32413" lon="1.15512">
        <ele>64</ele>
        <time>2013-05-05T09:09:48Z</time>
      </trkpt>
      <trkpt lat="49.32428" lon="1.15533">
        <ele>61</ele>
        <time>2013-05-05T09:09:53Z</time>
      </trkpt>
      <trkpt lat="49.32443" lon="1.15552">
        <ele>61</ele>
        <time>2013-05-05T09:09:58Z</time>
      </trkpt>
      <trkpt lat="49.32458" lon="1.1557">
        <ele>61</ele>
        <time>2013-05-05T09:10:03Z</time>
      </trkpt>
      <trkpt lat="49.32478" lon="1.15584">
        <ele>62</ele>
        <time>2013-05-05T09:10:08Z</time>
      </trkpt>
      <trkpt lat="49.32495" lon="1.15598">
        <ele>62</ele>
        <time>2013-05-05T09:10:13Z</time>
      </trkpt>
      <trkpt lat="49.32512" lon="1.15612">
        <ele>62</ele>
        <time>2013-05-05T09:10:18Z</time>
      </trkpt>
      <trkpt lat="49.32528" lon="1.15628">
        <ele>62</ele>
        <time>2013-05-05T09:10:22Z</time>
      </trkpt>
      <trkpt lat="49.32544" lon="1.15646">
        <ele>62</ele>
        <time>2013-05-05T09:10:26Z</time>
      </trkpt>
      <trkpt lat="49.32558" lon="1.1567">
        <ele>65</ele>
        <time>2013-05-05T09:10:30Z</time>
      </trkpt>
      <trkpt lat="49.32568" lon="1.15696">
        <ele>65</ele>
        <time>2013-05-05T09:10:34Z</time>
      </trkpt>
      <trkpt lat="49.32576" lon="1.15722">
        <ele>65</ele>
        <time>2013-05-05T09:10:38Z</time>
      </trkpt>
      <trkpt lat="49.32583" lon="1.1575">
        <ele>65</ele>
        <time>2013-05-05T09:10:42Z</time>
      </trkpt>
      <trkpt lat="49.3259" lon="1.15779">
        <ele>64</ele>
        <time>2013-05-05T09:10:46Z</time>
      </trkpt>
      <trkpt lat="49.32594" lon="1.15807">
        <ele>64</ele>
        <time>2013-05-05T09:10:51Z</time>
      </trkpt>
      <trkpt lat="49.32597" lon="1.15836">
        <ele>67</ele>
        <time>2013-05-05T09:10:56Z</time>
      </trkpt>
      <trkpt lat="49.32597" lon="1.15867">
        <ele>67</ele>
        <time>2013-05-05T09:11:02Z</time>
      </trkpt>
      <trkpt lat="49.32595" lon="1.15898">
        <ele>67</ele>
        <time>2013-05-05T09:11:08Z</time>
      </trkpt>
      <trkpt lat="49.32592" lon="1.15927">
        <ele>70</ele>
        <time>2013-05-05T09:11:14Z</time>
      </trkpt>
      <trkpt lat="49.32587" lon="1.15955">
        <ele>70</ele>
        <time>2013-05-05T09:11:22Z</time>
      </trkpt>
      <trkpt lat="49.32582" lon="1.15985">
        <ele>70</ele>
        <time>2013-05-05T09:11:30Z</time>
      </trkpt>
      <trkpt lat="49.3258" lon="1.16013">
        <ele>72</ele>
        <time>2013-05-05T09:11:37Z</time>
      </trkpt>
      <trkpt lat="49.32581" lon="1.16041">
        <ele>72</ele>
        <time>2013-05-05T09:11:44Z</time>
      </trkpt>
      <trkpt lat="49.32587" lon="1.16071">
        <ele>73</ele>
        <time>2013-05-05T09:11:51Z</time>
      </trkpt>
      <trkpt lat="49.32594" lon="1.16098">
        <ele>75</ele>
        <time>2013-05-05T09:11:58Z</time>
      </trkpt>
      <trkpt lat="49.32576" lon="1.16104">
        <ele>75</ele>
        <time>2013-05-05T09:12:15Z</time>
      </trkpt>
      <trkpt lat="49.3256" lon="1.1609">
        <ele>75</ele>
        <time>2013-05-05T09:12:20Z</time>
      </trkpt>
      <trkpt lat="49.32541" lon="1.1608">
        <ele>72</ele>
        <time>2013-05-05T09:12:25Z</time>
      </trkpt>
      <trkpt lat="49.32521" lon="1.16072">
        <ele>72</ele>
        <time>2013-05-05T09:12:30Z</time>
      </trkpt>
      <trkpt lat="49.32502" lon="1.16064">
        <ele>72</ele>
        <time>2013-05-05T09:12:35Z</time>
      </trkpt>
      <trkpt lat="49.32481" lon="1.16058">
        <ele>78</ele>
        <time>2013-05-05T09:12:40Z</time>
      </trkpt>
      <trkpt lat="49.32463" lon="1.16052">
        <ele>78</ele>
        <time>2013-05-05T09:12:45Z</time>
      </trkpt>
      <trkpt lat="49.32444" lon="1.16046">
        <ele>78</ele>
        <time>2013-05-05T09:12:50Z</time>
      </trkpt>
      <trkpt lat="49.32425" lon="1.1604">
        <ele>78</ele>
        <time>2013-05-05T09:12:55Z</time>
      </trkpt>
      <trkpt lat="49.32407" lon="1.16035">
        <ele>79</ele>
        <time>2013-05-05T09:13:00Z</time>
      </trkpt>
      <trkpt lat="49.32389" lon="1.16025">
        <ele>79</ele>
        <time>2013-05-05T09:13:05Z</time>
      </trkpt>
      <trkpt lat="49.32373" lon="1.16013">
        <ele>79</ele>
        <time>2013-05-05T09:13:10Z</time>
      </trkpt>
      <trkpt lat="49.32356" lon="1.15999">
        <ele>78</ele>
        <time>2013-05-05T09:13:15Z</time>
      </trkpt>
      <trkpt lat="49.32335" lon="1.15985">
        <ele>78</ele>
        <time>2013-05-05T09:13:20Z</time>
      </trkpt>
      <trkpt lat="49.32316" lon="1.15976">
        <ele>77</ele>
        <time>2013-05-05T09:13:25Z</time>
      </trkpt>
      <trkpt lat="49.32296" lon="1.15971">
        <ele>77</ele>
        <time>2013-05-05T09:13:30Z</time>
      </trkpt>
      <trkpt lat="49.32275" lon="1.15967">
        <ele>77</ele>
        <time>2013-05-05T09:13:35Z</time>
      </trkpt>
      <trkpt lat="49.32254" lon="1.15967">
        <ele>77</ele>
        <time>2013-05-05T09:13:41Z</time>
      </trkpt>
      <trkpt lat="49.32236" lon="1.15969">
        <ele>65</ele>
        <time>2013-05-05T09:13:47Z</time>
      </trkpt>
      <trkpt lat="49.32213" lon="1.15967">
        <ele>65</ele>
        <time>2013-05-05T09:13:53Z</time>
      </trkpt>
      <trkpt lat="49.32191" lon="1.15964">
        <ele>65</ele>
        <time>2013-05-05T09:13:58Z</time>
      </trkpt>
      <trkpt lat="49.32172" lon="1.15954">
        <ele>65</ele>
        <time>2013-05-05T09:14:06Z</time>
      </trkpt>
      <trkpt lat="49.32155" lon="1.15945">
        <ele>39</ele>
        <time>2013-05-05T09:14:22Z</time>
      </trkpt>
      <trkpt lat="49.32136" lon="1.15942">
        <ele>39</ele>
        <time>2013-05-05T09:14:34Z</time>
      </trkpt>
      <trkpt lat="49.32117" lon="1.15938">
        <ele>39</ele>
        <time>2013-05-05T09:15:32Z</time>
      </trkpt>
      <trkpt lat="49.32099" lon="1.15942">
        <ele>39</ele>
        <time>2013-05-05T09:15:51Z</time>
      </trkpt>
      <trkpt lat="49.3208" lon="1.1594">
        <ele>17</ele>
        <time>2013-05-05T09:16:03Z</time>
      </trkpt>
      <trkpt lat="49.32057" lon="1.15941">
        <ele>17</ele>
        <time>2013-05-05T09:16:20Z</time>
      </trkpt>
      <trkpt lat="49.32036" lon="1.15937">
        <ele>17</ele>
        <time>2013-05-05T09:16:23Z</time>
      </trkpt>
      <trkpt lat="49.32015" lon="1.15933">
        <ele>17</ele>
        <time>2013-05-05T09:16:25Z</time>
      </trkpt>
      <trkpt lat="49.31991" lon="1.15928">
        <ele>11</ele>
        <time>2013-05-05T09:16:27Z</time>
      </trkpt>
      <trkpt lat="49.31964" lon="1.15916">
        <ele>11</ele>
        <time>2013-05-05T09:16:29Z</time>
      </trkpt>
      <trkpt lat="49.3194" lon="1.15915">
        <ele>11</ele>
        <time>2013-05-05T09:16:31Z</time>
      </trkpt>
      <trkpt lat="49.31917" lon="1.15912">
        <ele>11</ele>
        <time>2013-05-05T09:16:33Z</time>
      </trkpt>
      <trkpt lat="49.31904" lon="1.15934">
        <ele>9</ele>
        <time>2013-05-05T09:16:40Z</time>
      </trkpt>
      <trkpt lat="49.31904" lon="1.15965">
        <ele>9</ele>
        <time>2013-05-05T09:16:47Z</time>
      </trkpt>
      <trkpt lat="49.31904" lon="1.15997">
        <ele>9</ele>
        <time>2013-05-05T09:16:53Z</time>
      </trkpt>
      <trkpt lat="49.31905" lon="1.16025">
        <ele>9</ele>
        <time>2013-05-05T09:16:58Z</time>
      </trkpt>
      <trkpt lat="49.31906" lon="1.16054">
        <ele>9</ele>
        <time>2013-05-05T09:17:03Z</time>
      </trkpt>
      <trkpt lat="49.31907" lon="1.16084">
        <ele>10</ele>
        <time>2013-05-05T09:17:08Z</time>
      </trkpt>
      <trkpt lat="49.31907" lon="1.16113">
        <ele>10</ele>
        <time>2013-05-05T09:17:13Z</time>
      </trkpt>
      <trkpt lat="49.31905" lon="1.16143">
        <ele>10</ele>
        <time>2013-05-05T09:17:19Z</time>
      </trkpt>
      <trkpt lat="49.31909" lon="1.16172">
        <ele>11</ele>
        <time>2013-05-05T09:17:26Z</time>
      </trkpt>
      <trkpt lat="49.31924" lon="1.16193">
        <ele>13</ele>
        <time>2013-05-05T09:17:31Z</time>
      </trkpt>
      <trkpt lat="49.31937" lon="1.16215">
        <ele>13</ele>
        <time>2013-05-05T09:17:36Z</time>
      </trkpt>
      <trkpt lat="49.31946" lon="1.16242">
        <ele>13</ele>
        <time>2013-05-05T09:17:42Z</time>
      </trkpt>
      <trkpt lat="49.31947" lon="1.16272">
        <ele>12</ele>
        <time>2013-05-05T09:17:47Z</time>
      </trkpt>
      <trkpt lat="49.31947" lon="1.16303">
        <ele>12</ele>
        <time>2013-05-05T09:17:52Z</time>
      </trkpt>
      <trkpt lat="49.31949" lon="1.16334">
        <ele>14</ele>
        <time>2013-05-05T09:17:57Z</time>
      </trkpt>
      <trkpt lat="49.3195" lon="1.16367">
        <ele>14</ele>
        <time>2013-05-05T09:18:02Z</time>
      </trkpt>
      <trkpt lat="49.31952" lon="1.16397">
        <ele>14</ele>
        <time>2013-05-05T09:18:07Z</time>
      </trkpt>
      <trkpt lat="49.31954" lon="1.1643">
        <ele>12</ele>
        <time>2013-05-05T09:18:13Z</time>
      </trkpt>
      <trkpt lat="49.31956" lon="1.16459">
        <ele>12</ele>
        <time>2013-05-05T09:18:18Z</time>
      </trkpt>
      <trkpt lat="49.31962" lon="1.1649">
        <ele>12</ele>
        <time>2013-05-05T09:18:23Z</time>
      </trkpt>
      <trkpt lat="49.31968" lon="1.16517">
        <ele>12</ele>
        <time>2013-05-05T09:18:27Z</time>
      </trkpt>
      <trkpt lat="49.31972" lon="1.16548">
        <ele>12</ele>
        <time>2013-05-05T09:18:32Z</time>
      </trkpt>
      <trkpt lat="49.31972" lon="1.16578">
        <ele>12</ele>
        <time>2013-05-05T09:18:36Z</time>
      </trkpt>
      <trkpt lat="49.31973" lon="1.16608">
        <ele>11</ele>
        <time>2013-05-05T09:18:40Z</time>
      </trkpt>
      <trkpt lat="49.31976" lon="1.16637">
        <ele>11</ele>
        <time>2013-05-05T09:18:44Z</time>
      </trkpt>
      <trkpt lat="49.31981" lon="1.16668">
        <ele>11</ele>
        <time>2013-05-05T09:18:48Z</time>
      </trkpt>
      <trkpt lat="49.31984" lon="1.16699">
        <ele>11</ele>
        <time>2013-05-05T09:18:52Z</time>
      </trkpt>
      <trkpt lat="49.31986" lon="1.16728">
        <ele>11</ele>
        <time>2013-05-05T09:18:56Z</time>
      </trkpt>
      <trkpt lat="49.3199" lon="1.16759">
        <ele>10</ele>
        <time>2013-05-05T09:19:00Z</time>
      </trkpt>
      <trkpt lat="49.31992" lon="1.1679">
        <ele>10</ele>
        <time>2013-05-05T09:19:04Z</time>
      </trkpt>
      <trkpt lat="49.31992" lon="1.16819">
        <ele>10</ele>
        <time>2013-05-05T09:19:08Z</time>
      </trkpt>
      <trkpt lat="49.31995" lon="1.16849">
        <ele>9</ele>
        <time>2013-05-05T09:19:12Z</time>
      </trkpt>
      <trkpt lat="49.32003" lon="1.16875">
        <ele>14</ele>
        <time>2013-05-05T09:19:16Z</time>
      </trkpt>
      <trkpt lat="49.32006" lon="1.16904">
        <ele>14</ele>
        <time>2013-05-05T09:19:20Z</time>
      </trkpt>
      <trkpt lat="49.32011" lon="1.1693">
        <ele>13</ele>
        <time>2013-05-05T09:19:24Z</time>
      </trkpt>
      <trkpt lat="49.3202" lon="1.16957">
        <ele>13</ele>
        <time>2013-05-05T09:19:29Z</time>
      </trkpt>
      <trkpt lat="49.32037" lon="1.16972">
        <ele>13</ele>
        <time>2013-05-05T09:19:35Z</time>
      </trkpt>
      <trkpt lat="49.32056" lon="1.16967">
        <ele>13</ele>
        <time>2013-05-05T09:19:40Z</time>
      </trkpt>
      <trkpt lat="49.32077" lon="1.16968">
        <ele>13</ele>
        <time>2013-05-05T09:19:46Z</time>
      </trkpt>
      <trkpt lat="49.32094" lon="1.16983">
        <ele>20</ele>
        <time>2013-05-05T09:19:53Z</time>
      </trkpt>
      <trkpt lat="49.32097" lon="1.17015">
        <ele>19</ele>
        <time>2013-05-05T09:20:00Z</time>
      </trkpt>
      <trkpt lat="49.32102" lon="1.17044">
        <ele>19</ele>
        <time>2013-05-05T09:20:06Z</time>
      </trkpt>
      <trkpt lat="49.32109" lon="1.17074">
        <ele>19</ele>
        <time>2013-05-05T09:20:13Z</time>
      </trkpt>
      <trkpt lat="49.32116" lon="1.17102">
        <ele>19</ele>
        <time>2013-05-05T09:20:19Z</time>
      </trkpt>
      <trkpt lat="49.32122" lon="1.1713">
        <ele>19</ele>
        <time>2013-05-05T09:20:24Z</time>
      </trkpt>
      <trkpt lat="49.32126" lon="1.17161">
        <ele>19</ele>
        <time>2013-05-05T09:20:30Z</time>
      </trkpt>
      <trkpt lat="49.3213" lon="1.17193">
        <ele>19</ele>
        <time>2013-05-05T09:20:36Z</time>
      </trkpt>
      <trkpt lat="49.32135" lon="1.17223">
        <ele>19</ele>
        <time>2013-05-05T09:20:42Z</time>
      </trkpt>
      <trkpt lat="49.3214" lon="1.17249">
        <ele>19</ele>
        <time>2013-05-05T09:20:47Z</time>
      </trkpt>
      <trkpt lat="49.32146" lon="1.17279">
        <ele>18</ele>
        <time>2013-05-05T09:20:53Z</time>
      </trkpt>
      <trkpt lat="49.32153" lon="1.17305">
        <ele>18</ele>
        <time>2013-05-05T09:20:59Z</time>
      </trkpt>
      <trkpt lat="49.32158" lon="1.17332">
        <ele>18</ele>
        <time>2013-05-05T09:21:07Z</time>
      </trkpt>
      <trkpt lat="49.3216" lon="1.1736">
        <ele>19</ele>
        <time>2013-05-05T09:21:24Z</time>
      </trkpt>
      <trkpt lat="49.32166" lon="1.17389">
        <ele>19</ele>
        <time>2013-05-05T09:21:30Z</time>
      </trkpt>
      <trkpt lat="49.32171" lon="1.17421">
        <ele>25</ele>
        <time>2013-05-05T09:21:36Z</time>
      </trkpt>
      <trkpt lat="49.3218" lon="1.17448">
        <ele>25</ele>
        <time>2013-05-05T09:21:57Z</time>
      </trkpt>
      <trkpt lat="49.32182" lon="1.17478">
        <ele>25</ele>
        <time>2013-05-05T09:22:05Z</time>
      </trkpt>
      <trkpt lat="49.32187" lon="1.17506">
        <ele>24</ele>
        <time>2013-05-05T09:22:13Z</time>
      </trkpt>
      <trkpt lat="49.32206" lon="1.17506">
        <ele>24</ele>
        <time>2013-05-05T09:22:23Z</time>
      </trkpt>
      <trkpt lat="49.32225" lon="1.17504">
        <ele>24</ele>
        <time>2013-05-05T09:22:32Z</time>
      </trkpt>
      <trkpt lat="49.32244" lon="1.17501">
        <ele>24</ele>
        <time>2013-05-05T09:22:42Z</time>
      </trkpt>
      <trkpt lat="49.32264" lon="1.175">
        <ele>38</ele>
        <time>2013-05-05T09:22:55Z</time>
      </trkpt>
      <trkpt lat="49.32283" lon="1.17497">
        <ele>38</ele>
        <time>2013-05-05T09:23:10Z</time>
      </trkpt>
      <trkpt lat="49.323" lon="1.17506">
        <ele>37</ele>
        <time>2013-05-05T09:23:27Z</time>
      </trkpt>
      <trkpt lat="49.32319" lon="1.17507">
        <ele>37</ele>
        <time>2013-05-05T09:23:41Z</time>
      </trkpt>
      <trkpt lat="49.32336" lon="1.17499">
        <ele>54</ele>
        <time>2013-05-05T09:23:56Z</time>
      </trkpt>
      <trkpt lat="49.32355" lon="1.17498">
        <ele>54</ele>
        <time>2013-05-05T09:24:28Z</time>
      </trkpt>
      <trkpt lat="49.32373" lon="1.17502">
        <ele>50</ele>
        <time>2013-05-05T09:24:53Z</time>
      </trkpt>
      <trkpt lat="49.32388" lon="1.17518">
        <ele>50</ele>
        <time>2013-05-05T09:25:27Z</time>
      </trkpt>
      <trkpt lat="49.324" lon="1.17542">
        <ele>50</ele>
        <time>2013-05-05T09:25:44Z</time>
      </trkpt>
      <trkpt lat="49.32412" lon="1.17563">
        <ele>50</ele>
        <time>2013-05-05T09:25:59Z</time>
      </trkpt>
      <trkpt lat="49.32427" lon="1.17582">
        <ele>74</ele>
        <time>2013-05-05T09:26:11Z</time>
      </trkpt>
      <trkpt lat="49.32438" lon="1.17603">
        <ele>73</ele>
        <time>2013-05-05T09:26:20Z</time>
      </trkpt>
      <trkpt lat="49.32449" lon="1.17625">
        <ele>73</ele>
        <time>2013-05-05T09:27:23Z</time>
      </trkpt>
      <trkpt lat="49.32463" lon="1.17643">
        <ele>73</ele>
        <time>2013-05-05T09:27:35Z</time>
      </trkpt>
      <trkpt lat="49.32478" lon="1.17662">
        <ele>73</ele>
        <time>2013-05-05T09:27:50Z</time>
      </trkpt>
      <trkpt lat="49.32497" lon="1.1767">
        <ele>65</ele>
        <time>2013-05-05T09:28:04Z</time>
      </trkpt>
      <trkpt lat="49.32514" lon="1.17682">
        <ele>90</ele>
        <time>2013-05-05T09:28:21Z</time>
      </trkpt>
      <trkpt lat="49.32529" lon="1.17702">
        <ele>90</ele>
        <time>2013-05-05T09:28:38Z</time>
      </trkpt>
      <trkpt lat="49.32547" lon="1.17712">
        <ele>90</ele>
        <time>2013-05-05T09:29:46Z</time>
      </trkpt>
      <trkpt lat="49.3256" lon="1.17733">
        <ele>90</ele>
        <time>2013-05-05T09:30:23Z</time>
      </trkpt>
      <trkpt lat="49.32576" lon="1.17746">
        <ele>90</ele>
        <time>2013-05-05T09:30:41Z</time>
      </trkpt>
      <trkpt lat="49.32595" lon="1.17747">
        <ele>110</ele>
        <time>2013-05-05T09:30:56Z</time>
      </trkpt>
      <trkpt lat="49.32614" lon="1.17748">
        <ele>110</ele>
        <time>2013-05-05T09:31:37Z</time>
      </trkpt>
      <trkpt lat="49.32631" lon="1.17737">
        <ele>110</ele>
        <time>2013-05-05T09:31:47Z</time>
      </trkpt>
      <trkpt lat="49.3265" lon="1.17729">
        <ele>110</ele>
        <time>2013-05-05T09:31:59Z</time>
      </trkpt>
      <trkpt lat="49.32666" lon="1.17713">
        <ele>110</ele>
        <time>2013-05-05T09:32:08Z</time>
      </trkpt>
      <trkpt lat="49.32681" lon="1.17696">
        <ele>115</ele>
        <time>2013-05-05T09:32:15Z</time>
      </trkpt>
      <trkpt lat="49.32698" lon="1.17679">
        <ele>115</ele>
        <time>2013-05-05T09:32:23Z</time>
      </trkpt>
      <trkpt lat="49.32713" lon="1.17659">
        <ele>115</ele>
        <time>2013-05-05T09:32:31Z</time>
      </trkpt>
      <trkpt lat="49.32732" lon="1.17649">
        <ele>115</ele>
        <time>2013-05-05T09:33:56Z</time>
      </trkpt>
      <trkpt lat="49.32752" lon="1.17638">
        <ele>113</ele>
        <time>2013-05-05T09:34:01Z</time>
      </trkpt>
      <trkpt lat="49.32772" lon="1.17627">
        <ele>113</ele>
        <time>2013-05-05T09:34:06Z</time>
      </trkpt>
      <trkpt lat="49.32792" lon="1.17619">
        <ele>113</ele>
        <time>2013-05-05T09:34:11Z</time>
      </trkpt>
      <trkpt lat="49.32813" lon="1.17612">
        <ele>113</ele>
        <time>2013-05-05T09:34:16Z</time>
      </trkpt>
      <trkpt lat="49.32833" lon="1.17604">
        <ele>113</ele>
        <time>2013-05-05T09:34:21Z</time>
      </trkpt>
      <trkpt lat="49.32853" lon="1.17596">
        <ele>111</ele>
        <time>2013-05-05T09:34:26Z</time>
      </trkpt>
      <trkpt lat="49.32871" lon="1.17591">
        <ele>111</ele>
        <time>2013-05-05T09:34:30Z</time>
      </trkpt>
      <trkpt lat="49.3289" lon="1.17589">
        <ele>111</ele>
        <time>2013-05-05T09:34:34Z</time>
      </trkpt>
      <trkpt lat="49.3291" lon="1.17594">
        <ele>111</ele>
        <time>2013-05-05T09:34:38Z</time>
      </trkpt>
      <trkpt lat="49.32928" lon="1.17602">
        <ele>110</ele>
        <time>2013-05-05T09:34:42Z</time>
      </trkpt>
      <trkpt lat="49.32946" lon="1.17613">
        <ele>110</ele>
        <time>2013-05-05T09:34:46Z</time>
      </trkpt>
      <trkpt lat="49.32964" lon="1.17619">
        <ele>110</ele>
        <time>2013-05-05T09:34:50Z</time>
      </trkpt>
      <trkpt lat="49.32981" lon="1.17629">
        <ele>110</ele>
        <time>2013-05-05T09:34:54Z</time>
      </trkpt>
      <trkpt lat="49.32999" lon="1.17638">
        <ele>110</ele>
        <time>2013-05-05T09:34:58Z</time>
      </trkpt>
      <trkpt lat="49.33016" lon="1.1765">
        <ele>109</ele>
        <time>2013-05-05T09:35:02Z</time>
      </trkpt>
      <trkpt lat="49.33032" lon="1.17664">
        <ele>109</ele>
        <time>2013-05-05T09:35:06Z</time>
      </trkpt>
      <trkpt lat="49.33048" lon="1.17681">
        <ele>106</ele>
        <time>2013-05-05T09:35:10Z</time>
      </trkpt>
      <trkpt lat="49.33064" lon="1.17699">
        <ele>106</ele>
        <time>2013-05-05T09:35:14Z</time>
      </trkpt>
      <trkpt lat="49.3308" lon="1.17714">
        <ele>106</ele>
        <time>2013-05-05T09:35:18Z</time>
      </trkpt>
      <trkpt lat="49.33101" lon="1.17723">
        <ele>110</ele>
        <time>2013-05-05T09:35:23Z</time>
      </trkpt>
      <trkpt lat="49.33123" lon="1.17729">
        <ele>110</ele>
        <time>2013-05-05T09:35:28Z</time>
      </trkpt>
      <trkpt lat="49.33142" lon="1.17732">
        <ele>110</ele>
        <time>2013-05-05T09:35:33Z</time>
      </trkpt>
      <trkpt lat="49.3316" lon="1.17734">
        <ele>110</ele>
        <time>2013-05-05T09:35:38Z</time>
      </trkpt>
      <trkpt lat="49.33181" lon="1.17738">
        <ele>118</ele>
        <time>2013-05-05T09:35:44Z</time>
      </trkpt>
      <trkpt lat="49.332" lon="1.17742">
        <ele>118</ele>
        <time>2013-05-05T09:35:49Z</time>
      </trkpt>
      <trkpt lat="49.33219" lon="1.17748">
        <ele>118</ele>
        <time>2013-05-05T09:35:54Z</time>
      </trkpt>
      <trkpt lat="49.33237" lon="1.17753">
        <ele>118</ele>
        <time>2013-05-05T09:35:59Z</time>
      </trkpt>
      <trkpt lat="49.33257" lon="1.17756">
        <ele>122</ele>
        <time>2013-05-05T09:36:05Z</time>
      </trkpt>
      <trkpt lat="49.33277" lon="1.1776">
        <ele>122</ele>
        <time>2013-05-05T09:36:11Z</time>
      </trkpt>
      <trkpt lat="49.33297" lon="1.17764">
        <ele>122</ele>
        <time>2013-05-05T09:36:17Z</time>
      </trkpt>
      <trkpt lat="49.33317" lon="1.17769">
        <ele>122</ele>
        <time>2013-05-05T09:36:23Z</time>
      </trkpt>
      <trkpt lat="49.33337" lon="1.1778">
        <ele>122</ele>
        <time>2013-05-05T09:36:29Z</time>
      </trkpt>
      <trkpt lat="49.33354" lon="1.17795">
        <ele>122</ele>
        <time>2013-05-05T09:36:34Z</time>
      </trkpt>
      <trkpt lat="49.3337" lon="1.17812">
        <ele>122</ele>
        <time>2013-05-05T09:36:39Z</time>
      </trkpt>
      <trkpt lat="49.33386" lon="1.1783">
        <ele>122</ele>
        <time>2013-05-05T09:36:44Z</time>
      </trkpt>
      <trkpt lat="49.33401" lon="1.17849">
        <ele>121</ele>
        <time>2013-05-05T09:36:49Z</time>
      </trkpt>
      <trkpt lat="49.33415" lon="1.17867">
        <ele>121</ele>
        <time>2013-05-05T09:36:54Z</time>
      </trkpt>
      <trkpt lat="49.33432" lon="1.17886">
        <ele>122</ele>
        <time>2013-05-05T09:36:59Z</time>
      </trkpt>
      <trkpt lat="49.33447" lon="1.17903">
        <ele>122</ele>
        <time>2013-05-05T09:37:03Z</time>
      </trkpt>
      <trkpt lat="49.33464" lon="1.1792">
        <ele>124</ele>
        <time>2013-05-05T09:37:07Z</time>
      </trkpt>
      <trkpt lat="49.33482" lon="1.17938">
        <ele>124</ele>
        <time>2013-05-05T09:37:12Z</time>
      </trkpt>
      <trkpt lat="49.33498" lon="1.17955">
        <ele>124</ele>
        <time>2013-05-05T09:37:16Z</time>
      </trkpt>
      <trkpt lat="49.33517" lon="1.17971">
        <ele>125</ele>
        <time>2013-05-05T09:37:21Z</time>
      </trkpt>
      <trkpt lat="49.33535" lon="1.17986">
        <ele>125</ele>
        <time>2013-05-05T09:37:25Z</time>
      </trkpt>
      <trkpt lat="49.33552" lon="1.17998">
        <ele>125</ele>
        <time>2013-05-05T09:37:29Z</time>
      </trkpt>
      <trkpt lat="49.33568" lon="1.18014">
        <ele>125</ele>
        <time>2013-05-05T09:37:33Z</time>
      </trkpt>
      <trkpt lat="49.33588" lon="1.1803">
        <ele>124</ele>
        <time>2013-05-05T09:37:38Z</time>
      </trkpt>
      <trkpt lat="49.33604" lon="1.18045">
        <ele>124</ele>
        <time>2013-05-05T09:37:42Z</time>
      </trkpt>
      <trkpt lat="49.33622" lon="1.18055">
        <ele>124</ele>
        <time>2013-05-05T09:37:46Z</time>
      </trkpt>
      <trkpt lat="49.33642" lon="1.1807">
        <ele>124</ele>
        <time>2013-05-05T09:37:51Z</time>
      </trkpt>
      <trkpt lat="49.33662" lon="1.18063">
        <ele>124</ele>
        <time>2013-05-05T09:37:56Z</time>
      </trkpt>
      <trkpt lat="49.33682" lon="1.18055">
        <ele>126</ele>
        <time>2013-05-05T09:38:00Z</time>
      </trkpt>
      <trkpt lat="49.33702" lon="1.18047">
        <ele>126</ele>
        <time>2013-05-05T09:38:04Z</time>
      </trkpt>
      <trkpt lat="49.33722" lon="1.1804">
        <ele>126</ele>
        <time>2013-05-05T09:38:08Z</time>
      </trkpt>
      <trkpt lat="49.33742" lon="1.18034">
        <ele>126</ele>
        <time>2013-05-05T09:38:12Z</time>
      </trkpt>
      <trkpt lat="49.3376" lon="1.18025">
        <ele>127</ele>
        <time>2013-05-05T09:38:16Z</time>
      </trkpt>
      <trkpt lat="49.33779" lon="1.18018">
        <ele>127</ele>
        <time>2013-05-05T09:38:20Z</time>
      </trkpt>
      <trkpt lat="49.33797" lon="1.18009">
        <ele>127</ele>
        <time>2013-05-05T09:38:24Z</time>
      </trkpt>
      <trkpt lat="49.33816" lon="1.18004">
        <ele>127</ele>
        <time>2013-05-05T09:38:28Z</time>
      </trkpt>
      <trkpt lat="49.33834" lon="1.17994">
        <ele>129</ele>
        <time>2013-05-05T09:38:32Z</time>
      </trkpt>
      <trkpt lat="49.33855" lon="1.17985">
        <ele>129</ele>
        <time>2013-05-05T09:38:36Z</time>
      </trkpt>
      <trkpt lat="49.33875" lon="1.17978">
        <ele>129</ele>
        <time>2013-05-05T09:38:40Z</time>
      </trkpt>
      <trkpt lat="49.33895" lon="1.17968">
        <ele>129</ele>
        <time>2013-05-05T09:38:44Z</time>
      </trkpt>
      <trkpt lat="49.33914" lon="1.1796">
        <ele>129</ele>
        <time>2013-05-05T09:38:48Z</time>
      </trkpt>
      <trkpt lat="49.33932" lon="1.17951">
        <ele>130</ele>
        <time>2013-05-05T09:38:52Z</time>
      </trkpt>
      <trkpt lat="49.33951" lon="1.17943">
        <ele>130</ele>
        <time>2013-05-05T09:38:56Z</time>
      </trkpt>
      <trkpt lat="49.3397" lon="1.17936">
        <ele>130</ele>
        <time>2013-05-05T09:39:00Z</time>
      </trkpt>
      <trkpt lat="49.33988" lon="1.17929">
        <ele>130</ele>
        <time>2013-05-05T09:39:04Z</time>
      </trkpt>
      <trkpt lat="49.34006" lon="1.1792">
        <ele>131</ele>
        <time>2013-05-05T09:39:08Z</time>
      </trkpt>
      <trkpt lat="49.34024" lon="1.17912">
        <ele>130</ele>
        <time>2013-05-05T09:39:12Z</time>
      </trkpt>
      <trkpt lat="49.34044" lon="1.17903">
        <ele>130</ele>
        <time>2013-05-05T09:39:17Z</time>
      </trkpt>
      <trkpt lat="49.34064" lon="1.17894">
        <ele>130</ele>
        <time>2013-05-05T09:39:22Z</time>
      </trkpt>
      <trkpt lat="49.34083" lon="1.17885">
        <ele>131</ele>
        <time>2013-05-05T09:39:27Z</time>
      </trkpt>
      <trkpt lat="49.34104" lon="1.17877">
        <ele>131</ele>
        <time>2013-05-05T09:39:32Z</time>
      </trkpt>
      <trkpt lat="49.34124" lon="1.17873">
        <ele>131</ele>
        <time>2013-05-05T09:39:37Z</time>
      </trkpt>
      <trkpt lat="49.34146" lon="1.17871">
        <ele>131</ele>
        <time>2013-05-05T09:39:42Z</time>
      </trkpt>
      <trkpt lat="49.34165" lon="1.1787">
        <ele>131</ele>
        <time>2013-05-05T09:39:46Z</time>
      </trkpt>
      <trkpt lat="49.34187" lon="1.17867">
        <ele>132</ele>
        <time>2013-05-05T09:39:51Z</time>
      </trkpt>
      <trkpt lat="49.34208" lon="1.17862">
        <ele>132</ele>
        <time>2013-05-05T09:39:56Z</time>
      </trkpt>
      <trkpt lat="49.34226" lon="1.1786">
        <ele>132</ele>
        <time>2013-05-05T09:40:00Z</time>
      </trkpt>
      <trkpt lat="49.34247" lon="1.17857">
        <ele>132</ele>
        <time>2013-05-05T09:40:05Z</time>
      </trkpt>
      <trkpt lat="49.34269" lon="1.17856">
        <ele>134</ele>
        <time>2013-05-05T09:40:10Z</time>
      </trkpt>
      <trkpt lat="49.34288" lon="1.17854">
        <ele>134</ele>
        <time>2013-05-05T09:40:14Z</time>
      </trkpt>
      <trkpt lat="49.34308" lon="1.17854">
        <ele>134</ele>
        <time>2013-05-05T09:40:19Z</time>
      </trkpt>
      <trkpt lat="49.34329" lon="1.17856">
        <ele>134</ele>
        <time>2013-05-05T09:40:24Z</time>
      </trkpt>
      <trkpt lat="49.3435" lon="1.17857">
        <ele>134</ele>
        <time>2013-05-05T09:40:29Z</time>
      </trkpt>
      <trkpt lat="49.34371" lon="1.17858">
        <ele>134</ele>
        <time>2013-05-05T09:40:34Z</time>
      </trkpt>
      <trkpt lat="49.34393" lon="1.17859">
        <ele>134</ele>
        <time>2013-05-05T09:40:39Z</time>
      </trkpt>
      <trkpt lat="49.34411" lon="1.17861">
        <ele>134</ele>
        <time>2013-05-05T09:40:43Z</time>
      </trkpt>
      <trkpt lat="49.34431" lon="1.17861">
        <ele>135</ele>
        <time>2013-05-05T09:40:48Z</time>
      </trkpt>
      <trkpt lat="49.3445" lon="1.17861">
        <ele>135</ele>
        <time>2013-05-05T09:40:52Z</time>
      </trkpt>
      <trkpt lat="49.34471" lon="1.17858">
        <ele>135</ele>
        <time>2013-05-05T09:40:57Z</time>
      </trkpt>
      <trkpt lat="49.34492" lon="1.17857">
        <ele>135</ele>
        <time>2013-05-05T09:41:02Z</time>
      </trkpt>
      <trkpt lat="49.34511" lon="1.17855">
        <ele>137</ele>
        <time>2013-05-05T09:41:06Z</time>
      </trkpt>
      <trkpt lat="49.3453" lon="1.17854">
        <ele>137</ele>
        <time>2013-05-05T09:41:10Z</time>
      </trkpt>
      <trkpt lat="49.34549" lon="1.17853">
        <ele>137</ele>
        <time>2013-05-05T09:41:14Z</time>
      </trkpt>
      <trkpt lat="49.34568" lon="1.17853">
        <ele>137</ele>
        <time>2013-05-05T09:41:18Z</time>
      </trkpt>
      <trkpt lat="49.34589" lon="1.17852">
        <ele>136</ele>
        <time>2013-05-05T09:41:22Z</time>
      </trkpt>
      <trkpt lat="49.34609" lon="1.17852">
        <ele>136</ele>
        <time>2013-05-05T09:41:26Z</time>
      </trkpt>
      <trkpt lat="49.3463" lon="1.17846">
        <ele>136</ele>
        <time>2013-05-05T09:41:30Z</time>
      </trkpt>
      <trkpt lat="49.3465" lon="1.17841">
        <ele>136</ele>
        <time>2013-05-05T09:41:34Z</time>
      </trkpt>
      <trkpt lat="49.34672" lon="1.17837">
        <ele>135</ele>
        <time>2013-05-05T09:41:38Z</time>
      </trkpt>
      <trkpt lat="49.34693" lon="1.17832">
        <ele>133</ele>
        <time>2013-05-05T09:41:42Z</time>
      </trkpt>
      <trkpt lat="49.34712" lon="1.17827">
        <ele>133</ele>
        <time>2013-05-05T09:41:46Z</time>
      </trkpt>
      <trkpt lat="49.34734" lon="1.1782">
        <ele>133</ele>
        <time>2013-05-05T09:41:50Z</time>
      </trkpt>
      <trkpt lat="49.34755" lon="1.17814">
        <ele>135</ele>
        <time>2013-05-05T09:41:54Z</time>
      </trkpt>
      <trkpt lat="49.34775" lon="1.1781">
        <ele>135</ele>
        <time>2013-05-05T09:41:58Z</time>
      </trkpt>
      <trkpt lat="49.34795" lon="1.17804">
        <ele>135</ele>
        <time>2013-05-05T09:42:02Z</time>
      </trkpt>
      <trkpt lat="49.34815" lon="1.17804">
        <ele>135</ele>
        <time>2013-05-05T09:42:06Z</time>
      </trkpt>
      <trkpt lat="49.34825" lon="1.17829">
        <ele>135</ele>
        <time>2013-05-05T09:42:10Z</time>
      </trkpt>
      <trkpt lat="49.34833" lon="1.17855">
        <ele>135</ele>
        <time>2013-05-05T09:42:14Z</time>
      </trkpt>
      <trkpt lat="49.3484" lon="1.17889">
        <ele>139</ele>
        <time>2013-05-05T09:42:19Z</time>
      </trkpt>
      <trkpt lat="49.34843" lon="1.17919">
        <ele>142</ele>
        <time>2013-05-05T09:42:25Z</time>
      </trkpt>
      <trkpt lat="49.34847" lon="1.17946">
        <ele>142</ele>
        <time>2013-05-05T09:42:30Z</time>
      </trkpt>
      <trkpt lat="49.34853" lon="1.17975">
        <ele>142</ele>
        <time>2013-05-05T09:42:35Z</time>
      </trkpt>
      <trkpt lat="49.34857" lon="1.18006">
        <ele>141</ele>
        <time>2013-05-05T09:42:39Z</time>
      </trkpt>
      <trkpt lat="49.34868" lon="1.18032">
        <ele>141</ele>
        <time>2013-05-05T09:42:43Z</time>
      </trkpt>
      <trkpt lat="49.34881" lon="1.1806">
        <ele>141</ele>
        <time>2013-05-05T09:42:47Z</time>
      </trkpt>
      <trkpt lat="49.34892" lon="1.18089">
        <ele>138</ele>
        <time>2013-05-05T09:42:51Z</time>
      </trkpt>
      <trkpt lat="49.3491" lon="1.1811">
        <ele>138</ele>
        <time>2013-05-05T09:42:56Z</time>
      </trkpt>
      <trkpt lat="49.34928" lon="1.18129">
        <ele>140</ele>
        <time>2013-05-05T09:43:01Z</time>
      </trkpt>
      <trkpt lat="49.34946" lon="1.18143">
        <ele>140</ele>
        <time>2013-05-05T09:43:06Z</time>
      </trkpt>
      <trkpt lat="49.34965" lon="1.18156">
        <ele>140</ele>
        <time>2013-05-05T09:43:11Z</time>
      </trkpt>
      <trkpt lat="49.34984" lon="1.18166">
        <ele>140</ele>
        <time>2013-05-05T09:43:16Z</time>
      </trkpt>
      <trkpt lat="49.35002" lon="1.18175">
        <ele>140</ele>
        <time>2013-05-05T09:43:21Z</time>
      </trkpt>
      <trkpt lat="49.35021" lon="1.18184">
        <ele>140</ele>
        <time>2013-05-05T09:43:26Z</time>
      </trkpt>
      <trkpt lat="49.35039" lon="1.18193">
        <ele>140</ele>
        <time>2013-05-05T09:43:31Z</time>
      </trkpt>
      <trkpt lat="49.35057" lon="1.18202">
        <ele>140</ele>
        <time>2013-05-05T09:43:36Z</time>
      </trkpt>
      <trkpt lat="49.35076" lon="1.18209">
        <ele>140</ele>
        <time>2013-05-05T09:43:41Z</time>
      </trkpt>
      <trkpt lat="49.35094" lon="1.18215">
        <ele>142</ele>
        <time>2013-05-05T09:43:46Z</time>
      </trkpt>
      <trkpt lat="49.35112" lon="1.18213">
        <ele>142</ele>
        <time>2013-05-05T09:43:51Z</time>
      </trkpt>
      <trkpt lat="49.3513" lon="1.1821">
        <ele>142</ele>
        <time>2013-05-05T09:43:56Z</time>
      </trkpt>
      <trkpt lat="49.35148" lon="1.18206">
        <ele>142</ele>
        <time>2013-05-05T09:44:03Z</time>
      </trkpt>
      <trkpt lat="49.35168" lon="1.18202">
        <ele>144</ele>
        <time>2013-05-05T09:44:09Z</time>
      </trkpt>
      <trkpt lat="49.35189" lon="1.18195">
        <ele>144</ele>
        <time>2013-05-05T09:44:14Z</time>
      </trkpt>
      <trkpt lat="49.35209" lon="1.18186">
        <ele>144</ele>
        <time>2013-05-05T09:44:19Z</time>
      </trkpt>
      <trkpt lat="49.35227" lon="1.18174">
        <ele>144</ele>
        <time>2013-05-05T09:44:25Z</time>
      </trkpt>
      <trkpt lat="49.35248" lon="1.18165">
        <ele>145</ele>
        <time>2013-05-05T09:44:30Z</time>
      </trkpt>
      <trkpt lat="49.35265" lon="1.18151">
        <ele>146</ele>
        <time>2013-05-05T09:44:34Z</time>
      </trkpt>
      <trkpt lat="49.3528" lon="1.18137">
        <ele>146</ele>
        <time>2013-05-05T09:44:38Z</time>
      </trkpt>
      <trkpt lat="49.353" lon="1.18122">
        <ele>146</ele>
        <time>2013-05-05T09:44:43Z</time>
      </trkpt>
      <trkpt lat="49.35315" lon="1.18108">
        <ele>146</ele>
        <time>2013-05-05T09:44:47Z</time>
      </trkpt>
      <trkpt lat="49.35335" lon="1.18093">
        <ele>146</ele>
        <time>2013-05-05T09:44:52Z</time>
      </trkpt>
      <trkpt lat="49.35354" lon="1.18081">
        <ele>146</ele>
        <time>2013-05-05T09:44:57Z</time>
      </trkpt>
      <trkpt lat="49.35374" lon="1.18075">
        <ele>146</ele>
        <time>2013-05-05T09:45:02Z</time>
      </trkpt>
      <trkpt lat="49.35392" lon="1.18071">
        <ele>146</ele>
        <time>2013-05-05T09:45:07Z</time>
      </trkpt>
      <trkpt lat="49.35413" lon="1.18065">
        <ele>146</ele>
        <time>2013-05-05T09:45:12Z</time>
      </trkpt>
      <trkpt lat="49.35433" lon="1.18058">
        <ele>145</ele>
        <time>2013-05-05T09:45:17Z</time>
      </trkpt>
      <trkpt lat="49.35451" lon="1.18049">
        <ele>145</ele>
        <time>2013-05-05T09:45:21Z</time>
      </trkpt>
      <trkpt lat="49.3547" lon="1.18037">
        <ele>145</ele>
        <time>2013-05-05T09:45:26Z</time>
      </trkpt>
      <trkpt lat="49.35486" lon="1.18023">
        <ele>145</ele>
        <time>2013-05-05T09:45:31Z</time>
      </trkpt>
      <trkpt lat="49.35504" lon="1.18015">
        <ele>144</ele>
        <time>2013-05-05T09:45:35Z</time>
      </trkpt>
      <trkpt lat="49.35523" lon="1.18007">
        <ele>144</ele>
        <time>2013-05-05T09:45:39Z</time>
      </trkpt>
      <trkpt lat="49.35541" lon="1.17999">
        <ele>144</ele>
        <time>2013-05-05T09:45:43Z</time>
      </trkpt>
      <trkpt lat="49.35559" lon="1.17984">
        <ele>144</ele>
        <time>2013-05-05T09:45:49Z</time>
      </trkpt>
      <trkpt lat="49.35563" lon="1.17956">
        <ele>144</ele>
        <time>2013-05-05T09:45:54Z</time>
      </trkpt>
      <trkpt lat="49.35558" lon="1.17923">
        <ele>144</ele>
        <time>2013-05-05T09:45:59Z</time>
      </trkpt>
      <trkpt lat="49.35552" lon="1.17891">
        <ele>144</ele>
        <time>2013-05-05T09:46:04Z</time>
      </trkpt>
      <trkpt lat="49.3555" lon="1.17857">
        <ele>144</ele>
        <time>2013-05-05T09:46:09Z</time>
      </trkpt>
      <trkpt lat="49.35548" lon="1.17826">
        <ele>144</ele>
        <time>2013-05-05T09:46:14Z</time>
      </trkpt>
      <trkpt lat="49.35545" lon="1.17792">
        <ele>144</ele>
        <time>2013-05-05T09:46:19Z</time>
      </trkpt>
      <trkpt lat="49.35543" lon="1.17762">
        <ele>144</ele>
        <time>2013-05-05T09:46:23Z</time>
      </trkpt>
      <trkpt lat="49.35539" lon="1.17732">
        <ele>142</ele>
        <time>2013-05-05T09:46:27Z</time>
      </trkpt>
      <trkpt lat="49.3554" lon="1.17699">
        <ele>142</ele>
        <time>2013-05-05T09:46:34Z</time>
      </trkpt>
      <trkpt lat="49.35541" lon="1.17667">
        <ele>142</ele>
        <time>2013-05-05T09:46:38Z</time>
      </trkpt>
      <trkpt lat="49.35542" lon="1.17635">
        <ele>140</ele>
        <time>2013-05-05T09:46:42Z</time>
      </trkpt>
      <trkpt lat="49.35541" lon="1.17604">
        <ele>140</ele>
        <time>2013-05-05T09:46:46Z</time>
      </trkpt>
      <trkpt lat="49.35542" lon="1.17571">
        <ele>139</ele>
        <time>2013-05-05T09:46:50Z</time>
      </trkpt>
      <trkpt lat="49.3554" lon="1.17541">
        <ele>139</ele>
        <time>2013-05-05T09:46:54Z</time>
      </trkpt>
      <trkpt lat="49.3554" lon="1.17511">
        <ele>139</ele>
        <time>2013-05-05T09:47:00Z</time>
      </trkpt>
      <trkpt lat="49.35556" lon="1.17495">
        <ele>139</ele>
        <time>2013-05-05T09:47:08Z</time>
      </trkpt>
      <trkpt lat="49.35554" lon="1.17462">
        <ele>139</ele>
        <time>2013-05-05T09:47:15Z</time>
      </trkpt>
      <trkpt lat="49.35547" lon="1.1743">
        <ele>139</ele>
        <time>2013-05-05T09:47:20Z</time>
      </trkpt>
      <trkpt lat="49.35541" lon="1.17397">
        <ele>137</ele>
        <time>2013-05-05T09:47:24Z</time>
      </trkpt>
      <trkpt lat="49.35534" lon="1.17367">
        <ele>137</ele>
        <time>2013-05-05T09:47:28Z</time>
      </trkpt>
      <trkpt lat="49.35528" lon="1.1734">
        <ele>137</ele>
        <time>2013-05-05T09:47:32Z</time>
      </trkpt>
      <trkpt lat="49.35521" lon="1.17311">
        <ele>138</ele>
        <time>2013-05-05T09:47:36Z</time>
      </trkpt>
      <trkpt lat="49.3552" lon="1.17282">
        <ele>138</ele>
        <time>2013-05-05T09:47:41Z</time>
      </trkpt>
      <trkpt lat="49.35526" lon="1.17256">
        <ele>138</ele>
        <time>2013-05-05T09:47:58Z</time>
      </trkpt>
      <trkpt lat="49.35527" lon="1.17228">
        <ele>141</ele>
        <time>2013-05-05T09:55:42Z</time>
      </trkpt>
      <trkpt lat="49.35533" lon="1.17201">
        <ele>141</ele>
        <time>2013-05-05T09:55:47Z</time>
      </trkpt>
      <trkpt lat="49.3554" lon="1.17174">
        <ele>141</ele>
        <time>2013-05-05T09:55:52Z</time>
      </trkpt>
      <trkpt lat="49.35552" lon="1.17149">
        <ele>143</ele>
        <time>2013-05-05T09:55:58Z</time>
      </trkpt>
      <trkpt lat="49.35566" lon="1.17124">
        <ele>143</ele>
        <time>2013-05-05T09:56:04Z</time>
      </trkpt>
      <trkpt lat="49.35575" lon="1.171">
        <ele>143</ele>
        <time>2013-05-05T09:56:09Z</time>
      </trkpt>
      <trkpt lat="49.3558" lon="1.1707">
        <ele>141</ele>
        <time>2013-05-05T09:56:15Z</time>
      </trkpt>
      <trkpt lat="49.35572" lon="1.17039">
        <ele>141</ele>
        <time>2013-05-05T09:56:21Z</time>
      </trkpt>
      <trkpt lat="49.35563" lon="1.17014">
        <ele>141</ele>
        <time>2013-05-05T09:56:25Z</time>
      </trkpt>
      <trkpt lat="49.35553" lon="1.16989">
        <ele>138</ele>
        <time>2013-05-05T09:56:29Z</time>
      </trkpt>
      <trkpt lat="49.35539" lon="1.16964">
        <ele>138</ele>
        <time>2013-05-05T09:56:33Z</time>
      </trkpt>
      <trkpt lat="49.35527" lon="1.16937">
        <ele>138</ele>
        <time>2013-05-05T09:56:37Z</time>
      </trkpt>
      <trkpt lat="49.35519" lon="1.16906">
        <ele>136</ele>
        <time>2013-05-05T09:56:41Z</time>
      </trkpt>
      <trkpt lat="49.35511" lon="1.16877">
        <ele>136</ele>
        <time>2013-05-05T09:56:45Z</time>
      </trkpt>
      <trkpt lat="49.35504" lon="1.16846">
        <ele>136</ele>
        <time>2013-05-05T09:56:49Z</time>
      </trkpt>
      <trkpt lat="49.35498" lon="1.16818">
        <ele>134</ele>
        <time>2013-05-05T09:56:53Z</time>
      </trkpt>
      <trkpt lat="49.35491" lon="1.16792">
        <ele>134</ele>
        <time>2013-05-05T09:56:57Z</time>
      </trkpt>
      <trkpt lat="49.35483" lon="1.16765">
        <ele>134</ele>
        <time>2013-05-05T09:57:01Z</time>
      </trkpt>
      <trkpt lat="49.35474" lon="1.16733">
        <ele>136</ele>
        <time>2013-05-05T09:57:06Z</time>
      </trkpt>
      <trkpt lat="49.35473" lon="1.16704">
        <ele>136</ele>
        <time>2013-05-05T09:57:10Z</time>
      </trkpt>
      <trkpt lat="49.35475" lon="1.16674">
        <ele>136</ele>
        <time>2013-05-05T09:57:14Z</time>
      </trkpt>
      <trkpt lat="49.35476" lon="1.16646">
        <ele>134</ele>
        <time>2013-05-05T09:57:18Z</time>
      </trkpt>
      <trkpt lat="49.3548" lon="1.16614">
        <ele>134</ele>
        <time>2013-05-05T09:57:23Z</time>
      </trkpt>
      <trkpt lat="49.35478" lon="1.16575">
        <ele>128</ele>
        <time>2013-05-05T09:57:28Z</time>
      </trkpt>
      <trkpt lat="49.3547" lon="1.16542">
        <ele>128</ele>
        <time>2013-05-05T09:57:33Z</time>
      </trkpt>
      <trkpt lat="49.35454" lon="1.16523">
        <ele>128</ele>
        <time>2013-05-05T09:57:36Z</time>
      </trkpt>
      <trkpt lat="49.35434" lon="1.16517">
        <ele>128</ele>
        <time>2013-05-05T09:57:40Z</time>
      </trkpt>
      <trkpt lat="49.35414" lon="1.16518">
        <ele>121</ele>
        <time>2013-05-05T09:57:43Z</time>
      </trkpt>
      <trkpt lat="49.35399" lon="1.16501">
        <ele>121</ele>
        <time>2013-05-05T09:57:48Z</time>
      </trkpt>
      <trkpt lat="49.35387" lon="1.16477">
        <ele>114</ele>
        <time>2013-05-05T09:57:51Z</time>
      </trkpt>
      <trkpt lat="49.35372" lon="1.16458">
        <ele>114</ele>
        <time>2013-05-05T09:57:54Z</time>
      </trkpt>
      <trkpt lat="49.35356" lon="1.16438">
        <ele>114</ele>
        <time>2013-05-05T09:57:57Z</time>
      </trkpt>
      <trkpt lat="49.35348" lon="1.16413">
        <ele>107</ele>
        <time>2013-05-05T09:58:02Z</time>
      </trkpt>
      <trkpt lat="49.3536" lon="1.16389">
        <ele>107</ele>
        <time>2013-05-05T09:58:06Z</time>
      </trkpt>
      <trkpt lat="49.35375" lon="1.16368">
        <ele>107</ele>
        <time>2013-05-05T09:58:11Z</time>
      </trkpt>
      <trkpt lat="49.354" lon="1.16344">
        <ele>107</ele>
        <time>2013-05-05T09:58:16Z</time>
      </trkpt>
      <trkpt lat="49.35418" lon="1.16333">
        <ele>108</ele>
        <time>2013-05-05T09:58:20Z</time>
      </trkpt>
      <trkpt lat="49.35439" lon="1.16333">
        <ele>108</ele>
        <time>2013-05-05T09:58:25Z</time>
      </trkpt>
      <trkpt lat="49.35457" lon="1.16322">
        <ele>108</ele>
        <time>2013-05-05T09:58:30Z</time>
      </trkpt>
      <trkpt lat="49.35474" lon="1.16311">
        <ele>108</ele>
        <time>2013-05-05T09:58:35Z</time>
      </trkpt>
      <trkpt lat="49.35492" lon="1.16299">
        <ele>108</ele>
        <time>2013-05-05T09:58:41Z</time>
      </trkpt>
      <trkpt lat="49.35509" lon="1.16287">
        <ele>117</ele>
        <time>2013-05-05T09:58:47Z</time>
      </trkpt>
      <trkpt lat="49.35525" lon="1.1627">
        <ele>117</ele>
        <time>2013-05-05T09:58:54Z</time>
      </trkpt>
      <trkpt lat="49.35541" lon="1.16253">
        <ele>117</ele>
        <time>2013-05-05T09:59:01Z</time>
      </trkpt>
      <trkpt lat="49.35558" lon="1.16238">
        <ele>113</ele>
        <time>2013-05-05T09:59:09Z</time>
      </trkpt>
      <trkpt lat="49.35577" lon="1.16229">
        <ele>113</ele>
        <time>2013-05-05T09:59:20Z</time>
      </trkpt>
      <trkpt lat="49.35596" lon="1.16222">
        <ele>122</ele>
        <time>2013-05-05T09:59:30Z</time>
      </trkpt>
      <trkpt lat="49.35612" lon="1.16208">
        <ele>122</ele>
        <time>2013-05-05T09:59:39Z</time>
      </trkpt>
      <trkpt lat="49.35625" lon="1.16189">
        <ele>122</ele>
        <time>2013-05-05T09:59:47Z</time>
      </trkpt>
      <trkpt lat="49.35642" lon="1.16176">
        <ele>122</ele>
        <time>2013-05-05T09:59:55Z</time>
      </trkpt>
      <trkpt lat="49.35658" lon="1.1616">
        <ele>116</ele>
        <time>2013-05-05T10:00:04Z</time>
      </trkpt>
      <trkpt lat="49.35675" lon="1.16144">
        <ele>125</ele>
        <time>2013-05-05T10:00:15Z</time>
      </trkpt>
      <trkpt lat="49.35694" lon="1.16138">
        <ele>125</ele>
        <time>2013-05-05T10:00:23Z</time>
      </trkpt>
      <trkpt lat="49.35712" lon="1.16125">
        <ele>125</ele>
        <time>2013-05-05T10:00:29Z</time>
      </trkpt>
      <trkpt lat="49.35727" lon="1.16109">
        <ele>125</ele>
        <time>2013-05-05T10:00:35Z</time>
      </trkpt>
      <trkpt lat="49.35743" lon="1.16093">
        <ele>125</ele>
        <time>2013-05-05T10:00:41Z</time>
      </trkpt>
      <trkpt lat="49.35758" lon="1.16075">
        <ele>126</ele>
        <time>2013-05-05T10:00:48Z</time>
      </trkpt>
      <trkpt lat="49.35778" lon="1.16067">
        <ele>126</ele>
        <time>2013-05-05T10:00:55Z</time>
      </trkpt>
      <trkpt lat="49.35795" lon="1.16051">
        <ele>126</ele>
        <time>2013-05-05T10:01:01Z</time>
      </trkpt>
      <trkpt lat="49.35806" lon="1.16029">
        <ele>126</ele>
        <time>2013-05-05T10:01:07Z</time>
      </trkpt>
      <trkpt lat="49.35817" lon="1.16006">
        <ele>126</ele>
        <time>2013-05-05T10:01:11Z</time>
      </trkpt>
      <trkpt lat="49.35831" lon="1.15986">
        <ele>122</ele>
        <time>2013-05-05T10:01:16Z</time>
      </trkpt>
      <trkpt lat="49.35837" lon="1.15959">
        <ele>128</ele>
        <time>2013-05-05T10:01:22Z</time>
      </trkpt>
      <trkpt lat="49.35845" lon="1.15934">
        <ele>128</ele>
        <time>2013-05-05T10:01:26Z</time>
      </trkpt>
      <trkpt lat="49.35853" lon="1.15904">
        <ele>119</ele>
        <time>2013-05-05T10:01:30Z</time>
      </trkpt>
      <trkpt lat="49.3586" lon="1.15872">
        <ele>119</ele>
        <time>2013-05-05T10:01:34Z</time>
      </trkpt>
      <trkpt lat="49.35871" lon="1.15847">
        <ele>119</ele>
        <time>2013-05-05T10:01:36Z</time>
      </trkpt>
      <trkpt lat="49.35884" lon="1.1582">
        <ele>114</ele>
        <time>2013-05-05T10:01:41Z</time>
      </trkpt>
      <trkpt lat="49.359" lon="1.15802">
        <ele>114</ele>
        <time>2013-05-05T10:01:47Z</time>
      </trkpt>
      <trkpt lat="49.35898" lon="1.15769">
        <ele>114</ele>
        <time>2013-05-05T10:01:58Z</time>
      </trkpt>
      <trkpt lat="49.3589" lon="1.15742">
        <ele>107</ele>
        <time>2013-05-05T10:02:02Z</time>
      </trkpt>
      <trkpt lat="49.3588" lon="1.15714">
        <ele>107</ele>
        <time>2013-05-05T10:02:07Z</time>
      </trkpt>
      <trkpt lat="49.35868" lon="1.15687">
        <ele>107</ele>
        <time>2013-05-05T10:02:12Z</time>
      </trkpt>
      <trkpt lat="49.35874" lon="1.15655">
        <ele>101</ele>
        <time>2013-05-05T10:02:17Z</time>
      </trkpt>
      <trkpt lat="49.35864" lon="1.15622">
        <ele>101</ele>
        <time>2013-05-05T10:02:23Z</time>
      </trkpt>
      <trkpt lat="49.35853" lon="1.15593">
        <ele>101</ele>
        <time>2013-05-05T10:02:26Z</time>
      </trkpt>
      <trkpt lat="49.35841" lon="1.15561">
        <ele>98</ele>
        <time>2013-05-05T10:02:30Z</time>
      </trkpt>
      <trkpt lat="49.35828" lon="1.15541">
        <ele>89</ele>
        <time>2013-05-05T10:02:32Z</time>
      </trkpt>
      <trkpt lat="49.35815" lon="1.15512">
        <ele>89</ele>
        <time>2013-05-05T10:02:35Z</time>
      </trkpt>
      <trkpt lat="49.35797" lon="1.15483">
        <ele>86</ele>
        <time>2013-05-05T10:02:38Z</time>
      </trkpt>
      <trkpt lat="49.35782" lon="1.1546">
        <ele>86</ele>
        <time>2013-05-05T10:02:41Z</time>
      </trkpt>
      <trkpt lat="49.35773" lon="1.15436">
        <ele>86</ele>
        <time>2013-05-05T10:02:44Z</time>
      </trkpt>
      <trkpt lat="49.35768" lon="1.15409">
        <ele>83</ele>
        <time>2013-05-05T10:02:47Z</time>
      </trkpt>
      <trkpt lat="49.3576" lon="1.15372">
        <ele>83</ele>
        <time>2013-05-05T10:02:51Z</time>
      </trkpt>
      <trkpt lat="49.35753" lon="1.15347">
        <ele>83</ele>
        <time>2013-05-05T10:02:54Z</time>
      </trkpt>
      <trkpt lat="49.35753" lon="1.15317">
        <ele>82</ele>
        <time>2013-05-05T10:02:59Z</time>
      </trkpt>
      <trkpt lat="49.35759" lon="1.15291">
        <ele>82</ele>
        <time>2013-05-05T10:03:05Z</time>
      </trkpt>
      <trkpt lat="49.35752" lon="1.15262">
        <ele>82</ele>
        <time>2013-05-05T10:03:11Z</time>
      </trkpt>
      <trkpt lat="49.3576" lon="1.15236">
        <ele>80</ele>
        <time>2013-05-05T10:03:20Z</time>
      </trkpt>
      <trkpt lat="49.35781" lon="1.15233">
        <ele>80</ele>
        <time>2013-05-05T10:03:25Z</time>
      </trkpt>
      <trkpt lat="49.35798" lon="1.15223">
        <ele>80</ele>
        <time>2013-05-05T10:03:30Z</time>
      </trkpt>
      <trkpt lat="49.35817" lon="1.15211">
        <ele>80</ele>
        <time>2013-05-05T10:03:36Z</time>
      </trkpt>
      <trkpt lat="49.35835" lon="1.15198">
        <ele>84</ele>
        <time>2013-05-05T10:03:42Z</time>
      </trkpt>
      <trkpt lat="49.35852" lon="1.15184">
        <ele>84</ele>
        <time>2013-05-05T10:03:48Z</time>
      </trkpt>
      <trkpt lat="49.35869" lon="1.1517">
        <ele>84</ele>
        <time>2013-05-05T10:03:54Z</time>
      </trkpt>
      <trkpt lat="49.35884" lon="1.15156">
        <ele>82</ele>
        <time>2013-05-05T10:04:00Z</time>
      </trkpt>
      <trkpt lat="49.35905" lon="1.15153">
        <ele>82</ele>
        <time>2013-05-05T10:04:07Z</time>
      </trkpt>
      <trkpt lat="49.35925" lon="1.1516">
        <ele>83</ele>
        <time>2013-05-05T10:04:13Z</time>
      </trkpt>
      <trkpt lat="49.35942" lon="1.15165">
        <ele>83</ele>
        <time>2013-05-05T10:04:19Z</time>
      </trkpt>
      <trkpt lat="49.35962" lon="1.15158">
        <ele>83</ele>
        <time>2013-05-05T10:04:25Z</time>
      </trkpt>
      <trkpt lat="49.35979" lon="1.15145">
        <ele>83</ele>
        <time>2013-05-05T10:04:31Z</time>
      </trkpt>
      <trkpt lat="49.35995" lon="1.15132">
        <ele>83</ele>
        <time>2013-05-05T10:04:37Z</time>
      </trkpt>
      <trkpt lat="49.36014" lon="1.1513">
        <ele>89</ele>
        <time>2013-05-05T10:04:45Z</time>
      </trkpt>
      <trkpt lat="49.36032" lon="1.15138">
        <ele>89</ele>
        <time>2013-05-05T10:04:54Z</time>
      </trkpt>
      <trkpt lat="49.3605" lon="1.15151">
        <ele>89</ele>
        <time>2013-05-05T10:05:04Z</time>
      </trkpt>
      <trkpt lat="49.36054" lon="1.1518">
        <ele>91</ele>
        <time>2013-05-05T10:05:19Z</time>
      </trkpt>
      <trkpt lat="49.36068" lon="1.15199">
        <ele>91</ele>
        <time>2013-05-05T10:05:34Z</time>
      </trkpt>
      <trkpt lat="49.36084" lon="1.15214">
        <ele>101</ele>
        <time>2013-05-05T10:05:49Z</time>
      </trkpt>
      <trkpt lat="49.36101" lon="1.15221">
        <ele>101</ele>
        <time>2013-05-05T10:06:09Z</time>
      </trkpt>
      <trkpt lat="49.36117" lon="1.15234">
        <ele>101</ele>
        <time>2013-05-05T10:06:24Z</time>
      </trkpt>
      <trkpt lat="49.36132" lon="1.1525">
        <ele>101</ele>
        <time>2013-05-05T10:06:36Z</time>
      </trkpt>
      <trkpt lat="49.36147" lon="1.15268">
        <ele>105</ele>
        <time>2013-05-05T10:06:46Z</time>
      </trkpt>
      <trkpt lat="49.36163" lon="1.15283">
        <ele>105</ele>
        <time>2013-05-05T10:06:58Z</time>
      </trkpt>
      <trkpt lat="49.36178" lon="1.153">
        <ele>112</ele>
        <time>2013-05-05T10:07:11Z</time>
      </trkpt>
      <trkpt lat="49.36192" lon="1.15316">
        <ele>112</ele>
        <time>2013-05-05T10:07:24Z</time>
      </trkpt>
      <trkpt lat="49.36211" lon="1.15325">
        <ele>112</ele>
        <time>2013-05-05T10:07:35Z</time>
      </trkpt>
      <trkpt lat="49.36229" lon="1.15337">
        <ele>114</ele>
        <time>2013-05-05T10:07:47Z</time>
      </trkpt>
      <trkpt lat="49.36247" lon="1.15349">
        <ele>114</ele>
        <time>2013-05-05T10:08:02Z</time>
      </trkpt>
      <trkpt lat="49.36266" lon="1.15357">
        <ele>121</ele>
        <time>2013-05-05T10:08:12Z</time>
      </trkpt>
      <trkpt lat="49.36284" lon="1.15368">
        <ele>121</ele>
        <time>2013-05-05T10:08:25Z</time>
      </trkpt>
      <trkpt lat="49.36302" lon="1.15376">
        <ele>121</ele>
        <time>2013-05-05T10:08:36Z</time>
      </trkpt>
      <trkpt lat="49.36319" lon="1.15388">
        <ele>121</ele>
        <time>2013-05-05T10:08:46Z</time>
      </trkpt>
      <trkpt lat="49.36336" lon="1.15397">
        <ele>128</ele>
        <time>2013-05-05T10:08:55Z</time>
      </trkpt>
      <trkpt lat="49.36354" lon="1.1541">
        <ele>128</ele>
        <time>2013-05-05T10:09:05Z</time>
      </trkpt>
      <trkpt lat="49.36372" lon="1.15416">
        <ele>128</ele>
        <time>2013-05-05T10:09:16Z</time>
      </trkpt>
      <trkpt lat="49.36387" lon="1.15433">
        <ele>131</ele>
        <time>2013-05-05T10:09:28Z</time>
      </trkpt>
      <trkpt lat="49.364" lon="1.15453">
        <ele>131</ele>
        <time>2013-05-05T10:09:37Z</time>
      </trkpt>
      <trkpt lat="49.36415" lon="1.15468">
        <ele>131</ele>
        <time>2013-05-05T10:09:46Z</time>
      </trkpt>
      <trkpt lat="49.36434" lon="1.15472">
        <ele>137</ele>
        <time>2013-05-05T10:09:56Z</time>
      </trkpt>
      <trkpt lat="49.36444" lon="1.15445">
        <ele>137</ele>
        <time>2013-05-05T10:10:05Z</time>
      </trkpt>
      <trkpt lat="49.36459" lon="1.15426">
        <ele>137</ele>
        <time>2013-05-05T10:10:12Z</time>
      </trkpt>
      <trkpt lat="49.36476" lon="1.15411">
        <ele>135</ele>
        <time>2013-05-05T10:10:19Z</time>
      </trkpt>
      <trkpt lat="49.36493" lon="1.15402">
        <ele>135</ele>
        <time>2013-05-05T10:10:26Z</time>
      </trkpt>
      <trkpt lat="49.3651" lon="1.15396">
        <ele>138</ele>
        <time>2013-05-05T10:10:33Z</time>
      </trkpt>
      <trkpt lat="49.36527" lon="1.15383">
        <ele>138</ele>
        <time>2013-05-05T10:10:43Z</time>
      </trkpt>
      <trkpt lat="49.36524" lon="1.15352">
        <ele>138</ele>
        <time>2013-05-05T10:10:56Z</time>
      </trkpt>
      <trkpt lat="49.36529" lon="1.15322">
        <ele>139</ele>
        <time>2013-05-05T10:11:02Z</time>
      </trkpt>
      <trkpt lat="49.36542" lon="1.15297">
        <ele>139</ele>
        <time>2013-05-05T10:11:06Z</time>
      </trkpt>
      <trkpt lat="49.36559" lon="1.15276">
        <ele>139</ele>
        <time>2013-05-05T10:11:10Z</time>
      </trkpt>
      <trkpt lat="49.36572" lon="1.15255">
        <ele>139</ele>
        <time>2013-05-05T10:11:14Z</time>
      </trkpt>
      <trkpt lat="49.36583" lon="1.15232">
        <ele>138</ele>
        <time>2013-05-05T10:11:18Z</time>
      </trkpt>
      <trkpt lat="49.36599" lon="1.15197">
        <ele>137</ele>
        <time>2013-05-05T10:11:22Z</time>
      </trkpt>
      <trkpt lat="49.3661" lon="1.15166">
        <ele>134</ele>
        <time>2013-05-05T10:11:28Z</time>
      </trkpt>
      <trkpt lat="49.36628" lon="1.15154">
        <ele>134</ele>
        <time>2013-05-05T10:11:34Z</time>
      </trkpt>
      <trkpt lat="49.36645" lon="1.15137">
        <ele>134</ele>
        <time>2013-05-05T10:11:43Z</time>
      </trkpt>
      <trkpt lat="49.36654" lon="1.15112">
        <ele>134</ele>
        <time>2013-05-05T10:11:50Z</time>
      </trkpt>
      <trkpt lat="49.36662" lon="1.15088">
        <ele>134</ele>
        <time>2013-05-05T10:11:59Z</time>
      </trkpt>
      <trkpt lat="49.36675" lon="1.15065">
        <ele>123</ele>
        <time>2013-05-05T10:12:08Z</time>
      </trkpt>
      <trkpt lat="49.36686" lon="1.15044">
        <ele>123</ele>
        <time>2013-05-05T10:12:18Z</time>
      </trkpt>
      <trkpt lat="49.36699" lon="1.15022">
        <ele>123</ele>
        <time>2013-05-05T10:12:32Z</time>
      </trkpt>
      <trkpt lat="49.36713" lon="1.15002">
        <ele>123</ele>
        <time>2013-05-05T10:12:47Z</time>
      </trkpt>
      <trkpt lat="49.36725" lon="1.14982">
        <ele>123</ele>
        <time>2013-05-05T10:12:58Z</time>
      </trkpt>
      <trkpt lat="49.36736" lon="1.14959">
        <ele>123</ele>
        <time>2013-05-05T10:13:12Z</time>
      </trkpt>
      <trkpt lat="49.36748" lon="1.14938">
        <ele>123</ele>
        <time>2013-05-05T10:13:25Z</time>
      </trkpt>
      <trkpt lat="49.36759" lon="1.14915">
        <ele>132</ele>
        <time>2013-05-05T10:13:33Z</time>
      </trkpt>
      <trkpt lat="49.36771" lon="1.14889">
        <ele>132</ele>
        <time>2013-05-05T10:13:39Z</time>
      </trkpt>
      <trkpt lat="49.36785" lon="1.1487">
        <ele>132</ele>
        <time>2013-05-05T10:13:46Z</time>
      </trkpt>
      <trkpt lat="49.36801" lon="1.14854">
        <ele>132</ele>
        <time>2013-05-05T10:13:53Z</time>
      </trkpt>
      <trkpt lat="49.36817" lon="1.14834">
        <ele>132</ele>
        <time>2013-05-05T10:14:00Z</time>
      </trkpt>
      <trkpt lat="49.36834" lon="1.14819">
        <ele>128</ele>
        <time>2013-05-05T10:14:06Z</time>
      </trkpt>
      <trkpt lat="49.3685" lon="1.14802">
        <ele>128</ele>
        <time>2013-05-05T10:14:13Z</time>
      </trkpt>
      <trkpt lat="49.36863" lon="1.14783">
        <ele>128</ele>
        <time>2013-05-05T10:14:18Z</time>
      </trkpt>
      <trkpt lat="49.3688" lon="1.14762">
        <ele>128</ele>
        <time>2013-05-05T10:14:22Z</time>
      </trkpt>
      <trkpt lat="49.36901" lon="1.14772">
        <ele>128</ele>
        <time>2013-05-05T10:14:26Z</time>
      </trkpt>
      <trkpt lat="49.36917" lon="1.14785">
        <ele>129</ele>
        <time>2013-05-05T10:14:30Z</time>
      </trkpt>
      <trkpt lat="49.36937" lon="1.14794">
        <ele>129</ele>
        <time>2013-05-05T10:14:35Z</time>
      </trkpt>
      <trkpt lat="49.36958" lon="1.14796">
        <ele>129</ele>
        <time>2013-05-05T10:14:41Z</time>
      </trkpt>
      <trkpt lat="49.36978" lon="1.14797">
        <ele>129</ele>
        <time>2013-05-05T10:14:47Z</time>
      </trkpt>
      <trkpt lat="49.36997" lon="1.148">
        <ele>129</ele>
        <time>2013-05-05T10:14:53Z</time>
      </trkpt>
      <trkpt lat="49.37014" lon="1.1481">
        <ele>132</ele>
        <time>2013-05-05T10:14:59Z</time>
      </trkpt>
      <trkpt lat="49.37033" lon="1.1482">
        <ele>132</ele>
        <time>2013-05-05T10:15:06Z</time>
      </trkpt>
      <trkpt lat="49.37042" lon="1.14847">
        <ele>135</ele>
        <time>2013-05-05T10:15:15Z</time>
      </trkpt>
      <trkpt lat="49.37041" lon="1.14875">
        <ele>135</ele>
        <time>2013-05-05T10:15:21Z</time>
      </trkpt>
      <trkpt lat="49.37038" lon="1.14904">
        <ele>135</ele>
        <time>2013-05-05T10:15:27Z</time>
      </trkpt>
      <trkpt lat="49.37032" lon="1.14935">
        <ele>137</ele>
        <time>2013-05-05T10:15:33Z</time>
      </trkpt>
      <trkpt lat="49.37035" lon="1.14967">
        <ele>137</ele>
        <time>2013-05-05T10:15:39Z</time>
      </trkpt>
      <trkpt lat="49.37043" lon="1.14993">
        <ele>137</ele>
        <time>2013-05-05T10:15:44Z</time>
      </trkpt>
      <trkpt lat="49.37053" lon="1.1502">
        <ele>139</ele>
        <time>2013-05-05T10:15:50Z</time>
      </trkpt>
      <trkpt lat="49.37065" lon="1.15045">
        <ele>139</ele>
        <time>2013-05-05T10:15:56Z</time>
      </trkpt>
      <trkpt lat="49.37081" lon="1.15065">
        <ele>139</ele>
        <time>2013-05-05T10:16:02Z</time>
      </trkpt>
      <trkpt lat="49.37099" lon="1.15083">
        <ele>140</ele>
        <time>2013-05-05T10:16:08Z</time>
      </trkpt>
      <trkpt lat="49.37114" lon="1.15105">
        <ele>141</ele>
        <time>2013-05-05T10:16:15Z</time>
      </trkpt>
      <trkpt lat="49.37126" lon="1.15128">
        <ele>141</ele>
        <time>2013-05-05T10:16:20Z</time>
      </trkpt>
      <trkpt lat="49.37144" lon="1.15142">
        <ele>141</ele>
        <time>2013-05-05T10:16:25Z</time>
      </trkpt>
      <trkpt lat="49.37159" lon="1.15157">
        <ele>141</ele>
        <time>2013-05-05T10:16:30Z</time>
      </trkpt>
      <trkpt lat="49.37177" lon="1.15174">
        <ele>143</ele>
        <time>2013-05-05T10:16:34Z</time>
      </trkpt>
      <trkpt lat="49.37196" lon="1.15189">
        <ele>143</ele>
        <time>2013-05-05T10:16:39Z</time>
      </trkpt>
      <trkpt lat="49.37211" lon="1.15212">
        <ele>143</ele>
        <time>2013-05-05T10:16:45Z</time>
      </trkpt>
      <trkpt lat="49.37226" lon="1.15236">
        <ele>143</ele>
        <time>2013-05-05T10:16:51Z</time>
      </trkpt>
      <trkpt lat="49.37238" lon="1.15257">
        <ele>144</ele>
        <time>2013-05-05T10:16:56Z</time>
      </trkpt>
      <trkpt lat="49.37249" lon="1.15285">
        <ele>144</ele>
        <time>2013-05-05T10:17:01Z</time>
      </trkpt>
      <trkpt lat="49.37251" lon="1.15313">
        <ele>143</ele>
        <time>2013-05-05T10:17:06Z</time>
      </trkpt>
      <trkpt lat="49.37238" lon="1.15334">
        <ele>145</ele>
        <time>2013-05-05T10:17:11Z</time>
      </trkpt>
      <trkpt lat="49.37221" lon="1.15354">
        <ele>145</ele>
        <time>2013-05-05T10:17:16Z</time>
      </trkpt>
      <trkpt lat="49.37206" lon="1.15372">
        <ele>145</ele>
        <time>2013-05-05T10:17:20Z</time>
      </trkpt>
      <trkpt lat="49.3719" lon="1.15388">
        <ele>145</ele>
        <time>2013-05-05T10:17:24Z</time>
      </trkpt>
      <trkpt lat="49.37175" lon="1.15404">
        <ele>145</ele>
        <time>2013-05-05T10:17:28Z</time>
      </trkpt>
      <trkpt lat="49.3716" lon="1.15421">
        <ele>143</ele>
        <time>2013-05-05T10:17:32Z</time>
      </trkpt>
      <trkpt lat="49.37144" lon="1.1544">
        <ele>143</ele>
        <time>2013-05-05T10:17:37Z</time>
      </trkpt>
      <trkpt lat="49.37128" lon="1.15459">
        <ele>143</ele>
        <time>2013-05-05T10:17:42Z</time>
      </trkpt>
      <trkpt lat="49.37112" lon="1.1548">
        <ele>143</ele>
        <time>2013-05-05T10:17:47Z</time>
      </trkpt>
      <trkpt lat="49.37097" lon="1.15498">
        <ele>143</ele>
        <time>2013-05-05T10:17:51Z</time>
      </trkpt>
      <trkpt lat="49.37081" lon="1.15517">
        <ele>140</ele>
        <time>2013-05-05T10:17:55Z</time>
      </trkpt>
      <trkpt lat="49.37064" lon="1.15535">
        <ele>140</ele>
        <time>2013-05-05T10:17:59Z</time>
      </trkpt>
      <trkpt lat="49.37053" lon="1.15558">
        <ele>140</ele>
        <time>2013-05-05T10:18:05Z</time>
      </trkpt>
      <trkpt lat="49.37072" lon="1.15568">
        <ele>140</ele>
        <time>2013-05-05T10:18:12Z</time>
      </trkpt>
      <trkpt lat="49.37091" lon="1.15566">
        <ele>142</ele>
        <time>2013-05-05T10:18:18Z</time>
      </trkpt>
      <trkpt lat="49.3711" lon="1.15567">
        <ele>142</ele>
        <time>2013-05-05T10:18:24Z</time>
      </trkpt>
      <trkpt lat="49.37129" lon="1.1557">
        <ele>142</ele>
        <time>2013-05-05T10:18:30Z</time>
      </trkpt>
      <trkpt lat="49.37147" lon="1.15573">
        <ele>142</ele>
        <time>2013-05-05T10:18:36Z</time>
      </trkpt>
      <trkpt lat="49.37167" lon="1.15581">
        <ele>144</ele>
        <time>2013-05-05T10:18:42Z</time>
      </trkpt>
      <trkpt lat="49.37186" lon="1.15588">
        <ele>144</ele>
        <time>2013-05-05T10:18:48Z</time>
      </trkpt>
      <trkpt lat="49.37207" lon="1.15595">
        <ele>144</ele>
        <time>2013-05-05T10:18:54Z</time>
      </trkpt>
      <trkpt lat="49.37225" lon="1.15603">
        <ele>144</ele>
        <time>2013-05-05T10:19:00Z</time>
      </trkpt>
      <trkpt lat="49.37244" lon="1.15613">
        <ele>144</ele>
        <time>2013-05-05T10:19:06Z</time>
      </trkpt>
      <trkpt lat="49.37262" lon="1.15626">
        <ele>148</ele>
        <time>2013-05-05T10:19:12Z</time>
      </trkpt>
      <trkpt lat="49.37278" lon="1.15643">
        <ele>148</ele>
        <time>2013-05-05T10:19:18Z</time>
      </trkpt>
      <trkpt lat="49.37291" lon="1.15665">
        <ele>148</ele>
        <time>2013-05-05T10:19:52Z</time>
      </trkpt>
      <trkpt lat="49.37304" lon="1.15688">
        <ele>148</ele>
        <time>2013-05-05T10:19:59Z</time>
      </trkpt>
      <trkpt lat="49.37313" lon="1.15714">
        <ele>148</ele>
        <time>2013-05-05T10:20:06Z</time>
      </trkpt>
      <trkpt lat="49.37323" lon="1.1574">
        <ele>148</ele>
        <time>2013-05-05T10:20:12Z</time>
      </trkpt>
      <trkpt lat="49.37342" lon="1.15736">
        <ele>150</ele>
        <time>2013-05-05T10:20:18Z</time>
      </trkpt>
      <trkpt lat="49.37359" lon="1.15722">
        <ele>150</ele>
        <time>2013-05-05T10:20:23Z</time>
      </trkpt>
      <trkpt lat="49.37379" lon="1.15712">
        <ele>150</ele>
        <time>2013-05-05T10:20:30Z</time>
      </trkpt>
      <trkpt lat="49.37398" lon="1.15697">
        <ele>150</ele>
        <time>2013-05-05T10:20:36Z</time>
      </trkpt>
      <trkpt lat="49.37415" lon="1.15687">
        <ele>150</ele>
        <time>2013-05-05T10:20:40Z</time>
      </trkpt>
      <trkpt lat="49.37432" lon="1.15673">
        <ele>149</ele>
        <time>2013-05-05T10:20:44Z</time>
      </trkpt>
      <trkpt lat="49.37449" lon="1.15661">
        <ele>149</ele>
        <time>2013-05-05T10:20:48Z</time>
      </trkpt>
      <trkpt lat="49.37468" lon="1.15651">
        <ele>149</ele>
        <time>2013-05-05T10:20:52Z</time>
      </trkpt>
      <trkpt lat="49.37486" lon="1.15645">
        <ele>149</ele>
        <time>2013-05-05T10:20:54Z</time>
      </trkpt>
      <trkpt lat="49.37509" lon="1.1564">
        <ele>147</ele>
        <time>2013-05-05T10:20:58Z</time>
      </trkpt>
      <trkpt lat="49.37532" lon="1.15645">
        <ele>147</ele>
        <time>2013-05-05T10:21:02Z</time>
      </trkpt>
      <trkpt lat="49.37552" lon="1.15646">
        <ele>147</ele>
        <time>2013-05-05T10:21:07Z</time>
      </trkpt>
      <trkpt lat="49.37573" lon="1.15655">
        <ele>147</ele>
        <time>2013-05-05T10:21:11Z</time>
      </trkpt>
      <trkpt lat="49.37595" lon="1.15663">
        <ele>145</ele>
        <time>2013-05-05T10:21:15Z</time>
      </trkpt>
      <trkpt lat="49.37615" lon="1.15671">
        <ele>148</ele>
        <time>2013-05-05T10:21:19Z</time>
      </trkpt>
      <trkpt lat="49.37636" lon="1.15679">
        <ele>148</ele>
        <time>2013-05-05T10:21:23Z</time>
      </trkpt>
      <trkpt lat="49.37656" lon="1.15686">
        <ele>148</ele>
        <time>2013-05-05T10:21:27Z</time>
      </trkpt>
      <trkpt lat="49.3767" lon="1.15709">
        <ele>145</ele>
        <time>2013-05-05T10:21:31Z</time>
      </trkpt>
      <trkpt lat="49.37677" lon="1.15741">
        <ele>145</ele>
        <time>2013-05-05T10:21:35Z</time>
      </trkpt>
      <trkpt lat="49.37684" lon="1.15772">
        <ele>145</ele>
        <time>2013-05-05T10:21:39Z</time>
      </trkpt>
      <trkpt lat="49.3769" lon="1.15799">
        <ele>145</ele>
        <time>2013-05-05T10:21:43Z</time>
      </trkpt>
      <trkpt lat="49.37697" lon="1.15828">
        <ele>145</ele>
        <time>2013-05-05T10:21:48Z</time>
      </trkpt>
      <trkpt lat="49.37704" lon="1.1586">
        <ele>147</ele>
        <time>2013-05-05T10:21:52Z</time>
      </trkpt>
      <trkpt lat="49.3771" lon="1.1589">
        <ele>147</ele>
        <time>2013-05-05T10:21:56Z</time>
      </trkpt>
      <trkpt lat="49.37718" lon="1.1592">
        <ele>149</ele>
        <time>2013-05-05T10:22:00Z</time>
      </trkpt>
      <trkpt lat="49.37724" lon="1.15949">
        <ele>149</ele>
        <time>2013-05-05T10:22:04Z</time>
      </trkpt>
      <trkpt lat="49.37729" lon="1.15977">
        <ele>149</ele>
        <time>2013-05-05T10:22:08Z</time>
      </trkpt>
      <trkpt lat="49.37735" lon="1.16003">
        <ele>151</ele>
        <time>2013-05-05T10:22:12Z</time>
      </trkpt>
      <trkpt lat="49.37741" lon="1.1603">
        <ele>151</ele>
        <time>2013-05-05T10:22:16Z</time>
      </trkpt>
      <trkpt lat="49.37747" lon="1.16057">
        <ele>151</ele>
        <time>2013-05-05T10:22:20Z</time>
      </trkpt>
      <trkpt lat="49.37753" lon="1.16086">
        <ele>149</ele>
        <time>2013-05-05T10:22:25Z</time>
      </trkpt>
      <trkpt lat="49.37758" lon="1.16117">
        <ele>149</ele>
        <time>2013-05-05T10:22:31Z</time>
      </trkpt>
      <trkpt lat="49.37777" lon="1.16118">
        <ele>149</ele>
        <time>2013-05-05T10:22:40Z</time>
      </trkpt>
      <trkpt lat="49.37789" lon="1.16087">
        <ele>149</ele>
        <time>2013-05-05T10:22:44Z</time>
      </trkpt>
      <trkpt lat="49.37802" lon="1.16059">
        <ele>147</ele>
        <time>2013-05-05T10:22:48Z</time>
      </trkpt>
      <trkpt lat="49.37818" lon="1.16039">
        <ele>147</ele>
        <time>2013-05-05T10:22:52Z</time>
      </trkpt>
      <trkpt lat="49.37834" lon="1.16017">
        <ele>148</ele>
        <time>2013-05-05T10:22:57Z</time>
      </trkpt>
      <trkpt lat="49.3785" lon="1.15997">
        <ele>145</ele>
        <time>2013-05-05T10:23:02Z</time>
      </trkpt>
      <trkpt lat="49.37864" lon="1.15979">
        <ele>145</ele>
        <time>2013-05-05T10:23:05Z</time>
      </trkpt>
      <trkpt lat="49.37883" lon="1.15957">
        <ele>145</ele>
        <time>2013-05-05T10:23:09Z</time>
      </trkpt>
      <trkpt lat="49.379" lon="1.15933">
        <ele>145</ele>
        <time>2013-05-05T10:23:13Z</time>
      </trkpt>
      <trkpt lat="49.37916" lon="1.15913">
        <ele>144</ele>
        <time>2013-05-05T10:23:17Z</time>
      </trkpt>
      <trkpt lat="49.37931" lon="1.15892">
        <ele>146</ele>
        <time>2013-05-05T10:23:21Z</time>
      </trkpt>
      <trkpt lat="49.37946" lon="1.1587">
        <ele>146</ele>
        <time>2013-05-05T10:23:26Z</time>
      </trkpt>
      <trkpt lat="49.37962" lon="1.15848">
        <ele>146</ele>
        <time>2013-05-05T10:23:31Z</time>
      </trkpt>
      <trkpt lat="49.37979" lon="1.15827">
        <ele>144</ele>
        <time>2013-05-05T10:23:36Z</time>
      </trkpt>
      <trkpt lat="49.37995" lon="1.15805">
        <ele>144</ele>
        <time>2013-05-05T10:23:41Z</time>
      </trkpt>
      <trkpt lat="49.38012" lon="1.15785">
        <ele>146</ele>
        <time>2013-05-05T10:23:46Z</time>
      </trkpt>
      <trkpt lat="49.38032" lon="1.15773">
        <ele>146</ele>
        <time>2013-05-05T10:23:51Z</time>
      </trkpt>
      <trkpt lat="49.38052" lon="1.15767">
        <ele>146</ele>
        <time>2013-05-05T10:23:57Z</time>
      </trkpt>
      <trkpt lat="49.38073" lon="1.15768">
        <ele>146</ele>
        <time>2013-05-05T10:24:04Z</time>
      </trkpt>
      <trkpt lat="49.38092" lon="1.15768">
        <ele>148</ele>
        <time>2013-05-05T10:24:09Z</time>
      </trkpt>
      <trkpt lat="49.3811" lon="1.15768">
        <ele>148</ele>
        <time>2013-05-05T10:24:14Z</time>
      </trkpt>
      <trkpt lat="49.3813" lon="1.15768">
        <ele>148</ele>
        <time>2013-05-05T10:24:20Z</time>
      </trkpt>
      <trkpt lat="49.38151" lon="1.15766">
        <ele>148</ele>
        <time>2013-05-05T10:24:26Z</time>
      </trkpt>
      <trkpt lat="49.3817" lon="1.15768">
        <ele>148</ele>
        <time>2013-05-05T10:24:31Z</time>
      </trkpt>
      <trkpt lat="49.3819" lon="1.15776">
        <ele>148</ele>
        <time>2013-05-05T10:24:35Z</time>
      </trkpt>
      <trkpt lat="49.38213" lon="1.15776">
        <ele>148</ele>
        <time>2013-05-05T10:24:39Z</time>
      </trkpt>
      <trkpt lat="49.38235" lon="1.15775">
        <ele>148</ele>
        <time>2013-05-05T10:24:44Z</time>
      </trkpt>
      <trkpt lat="49.38258" lon="1.15774">
        <ele>151</ele>
        <time>2013-05-05T10:24:49Z</time>
      </trkpt>
      <trkpt lat="49.38279" lon="1.15771">
        <ele>151</ele>
        <time>2013-05-05T10:24:54Z</time>
      </trkpt>
      <trkpt lat="49.38297" lon="1.15765">
        <ele>151</ele>
        <time>2013-05-05T10:24:59Z</time>
      </trkpt>
      <trkpt lat="49.38317" lon="1.1576">
        <ele>151</ele>
        <time>2013-05-05T10:25:04Z</time>
      </trkpt>
      <trkpt lat="49.38337" lon="1.15755">
        <ele>151</ele>
        <time>2013-05-05T10:25:09Z</time>
      </trkpt>
      <trkpt lat="49.38358" lon="1.15759">
        <ele>151</ele>
        <time>2013-05-05T10:25:14Z</time>
      </trkpt>
      <trkpt lat="49.38378" lon="1.15766">
        <ele>151</ele>
        <time>2013-05-05T10:25:19Z</time>
      </trkpt>
      <trkpt lat="49.38402" lon="1.15774">
        <ele>151</ele>
        <time>2013-05-05T10:25:24Z</time>
      </trkpt>
      <trkpt lat="49.3842" lon="1.15779">
        <ele>148</ele>
        <time>2013-05-05T10:25:28Z</time>
      </trkpt>
      <trkpt lat="49.38441" lon="1.15784">
        <ele>148</ele>
        <time>2013-05-05T10:25:33Z</time>
      </trkpt>
      <trkpt lat="49.38459" lon="1.15788">
        <ele>148</ele>
        <time>2013-05-05T10:25:37Z</time>
      </trkpt>
      <trkpt lat="49.38478" lon="1.15791">
        <ele>148</ele>
        <time>2013-05-05T10:25:41Z</time>
      </trkpt>
      <trkpt lat="49.38498" lon="1.15801">
        <ele>148</ele>
        <time>2013-05-05T10:25:46Z</time>
      </trkpt>
      <trkpt lat="49.38519" lon="1.15809">
        <ele>145</ele>
        <time>2013-05-05T10:25:51Z</time>
      </trkpt>
      <trkpt lat="49.3854" lon="1.15816">
        <ele>145</ele>
        <time>2013-05-05T10:25:56Z</time>
      </trkpt>
      <trkpt lat="49.38559" lon="1.15825">
        <ele>145</ele>
        <time>2013-05-05T10:26:01Z</time>
      </trkpt>
      <trkpt lat="49.3858" lon="1.15835">
        <ele>147</ele>
        <time>2013-05-05T10:26:06Z</time>
      </trkpt>
      <trkpt lat="49.38599" lon="1.15841">
        <ele>144</ele>
        <time>2013-05-05T10:26:10Z</time>
      </trkpt>
      <trkpt lat="49.3862" lon="1.1585">
        <ele>144</ele>
        <time>2013-05-05T10:26:14Z</time>
      </trkpt>
      <trkpt lat="49.38641" lon="1.15856">
        <ele>144</ele>
        <time>2013-05-05T10:26:19Z</time>
      </trkpt>
      <trkpt lat="49.3866" lon="1.15855">
        <ele>144</ele>
        <time>2013-05-05T10:26:25Z</time>
      </trkpt>
      <trkpt lat="49.3868" lon="1.15856">
        <ele>141</ele>
        <time>2013-05-05T10:26:33Z</time>
      </trkpt>
      <trkpt lat="49.38693" lon="1.15874">
        <ele>141</ele>
        <time>2013-05-05T10:26:38Z</time>
      </trkpt>
      <trkpt lat="49.38708" lon="1.15893">
        <ele>141</ele>
        <time>2013-05-05T10:26:42Z</time>
      </trkpt>
      <trkpt lat="49.38723" lon="1.15911">
        <ele>141</ele>
        <time>2013-05-05T10:26:46Z</time>
      </trkpt>
      <trkpt lat="49.3874" lon="1.15931">
        <ele>142</ele>
        <time>2013-05-05T10:26:51Z</time>
      </trkpt>
      <trkpt lat="49.38757" lon="1.1595">
        <ele>117</ele>
        <time>2013-05-05T10:26:56Z</time>
      </trkpt>
      <trkpt lat="49.38774" lon="1.15964">
        <ele>117</ele>
        <time>2013-05-05T10:27:01Z</time>
      </trkpt>
      <trkpt lat="49.38791" lon="1.15982">
        <ele>117</ele>
        <time>2013-05-05T10:27:07Z</time>
      </trkpt>
      <trkpt lat="49.38809" lon="1.15991">
        <ele>117</ele>
        <time>2013-05-05T10:27:13Z</time>
      </trkpt>
      <trkpt lat="49.38828" lon="1.16013">
        <ele>123</ele>
        <time>2013-05-05T10:27:20Z</time>
      </trkpt>
      <trkpt lat="49.38841" lon="1.16035">
        <ele>101</ele>
        <time>2013-05-05T10:27:25Z</time>
      </trkpt>
      <trkpt lat="49.38852" lon="1.16059">
        <ele>101</ele>
        <time>2013-05-05T10:27:31Z</time>
      </trkpt>
      <trkpt lat="49.38863" lon="1.16085">
        <ele>109</ele>
        <time>2013-05-05T10:27:40Z</time>
      </trkpt>
      <trkpt lat="49.3887" lon="1.16114">
        <ele>109</ele>
        <time>2013-05-05T10:27:48Z</time>
      </trkpt>
      <trkpt lat="49.38887" lon="1.1613">
        <ele>109</ele>
        <time>2013-05-05T10:27:56Z</time>
      </trkpt>
      <trkpt lat="49.38903" lon="1.16146">
        <ele>109</ele>
        <time>2013-05-05T10:28:05Z</time>
      </trkpt>
      <trkpt lat="49.38915" lon="1.16168">
        <ele>116</ele>
        <time>2013-05-05T10:28:17Z</time>
      </trkpt>
      <trkpt lat="49.3893" lon="1.16185">
        <ele>107</ele>
        <time>2013-05-05T10:28:30Z</time>
      </trkpt>
      <trkpt lat="49.38942" lon="1.16207">
        <ele>107</ele>
        <time>2013-05-05T10:28:40Z</time>
      </trkpt>
      <trkpt lat="49.38958" lon="1.16225">
        <ele>107</ele>
        <time>2013-05-05T10:28:49Z</time>
      </trkpt>
      <trkpt lat="49.38968" lon="1.16248">
        <ele>107</ele>
        <time>2013-05-05T10:28:56Z</time>
      </trkpt>
      <trkpt lat="49.38978" lon="1.16273">
        <ele>112</ele>
        <time>2013-05-05T10:29:04Z</time>
      </trkpt>
      <trkpt lat="49.38994" lon="1.16291">
        <ele>112</ele>
        <time>2013-05-05T10:29:17Z</time>
      </trkpt>
      <trkpt lat="49.39012" lon="1.16302">
        <ele>116</ele>
        <time>2013-05-05T10:29:30Z</time>
      </trkpt>
      <trkpt lat="49.39005" lon="1.16274">
        <ele>116</ele>
        <time>2013-05-05T10:30:05Z</time>
      </trkpt>
      <trkpt lat="49.38996" lon="1.16248">
        <ele>107</ele>
        <time>2013-05-05T10:30:15Z</time>
      </trkpt>
      <trkpt lat="49.38985" lon="1.16225">
        <ele>107</ele>
        <time>2013-05-05T10:30:25Z</time>
      </trkpt>
      <trkpt lat="49.38976" lon="1.162">
        <ele>107</ele>
        <time>2013-05-05T10:30:37Z</time>
      </trkpt>
      <trkpt lat="49.38971" lon="1.16173">
        <ele>107</ele>
        <time>2013-05-05T10:30:50Z</time>
      </trkpt>
      <trkpt lat="49.38962" lon="1.16149">
        <ele>117</ele>
        <time>2013-05-05T10:31:04Z</time>
      </trkpt>
      <trkpt lat="49.38947" lon="1.16131">
        <ele>117</ele>
        <time>2013-05-05T10:31:16Z</time>
      </trkpt>
      <trkpt lat="49.38932" lon="1.16112">
        <ele>117</ele>
        <time>2013-05-05T10:31:31Z</time>
      </trkpt>
      <trkpt lat="49.38923" lon="1.16084">
        <ele>117</ele>
        <time>2013-05-05T10:31:42Z</time>
      </trkpt>
      <trkpt lat="49.38917" lon="1.16055">
        <ele>125</ele>
        <time>2013-05-05T10:31:51Z</time>
      </trkpt>
      <trkpt lat="49.38915" lon="1.16026">
        <ele>101</ele>
        <time>2013-05-05T10:32:03Z</time>
      </trkpt>
      <trkpt lat="49.38915" lon="1.15995">
        <ele>97</ele>
        <time>2013-05-05T10:32:16Z</time>
      </trkpt>
      <trkpt lat="49.38913" lon="1.15968">
        <ele>97</ele>
        <time>2013-05-05T10:32:31Z</time>
      </trkpt>
      <trkpt lat="49.38924" lon="1.15944">
        <ele>123</ele>
        <time>2013-05-05T10:32:42Z</time>
      </trkpt>
      <trkpt lat="49.38933" lon="1.15919">
        <ele>123</ele>
        <time>2013-05-05T10:33:29Z</time>
      </trkpt>
      <trkpt lat="49.38941" lon="1.15894">
        <ele>119</ele>
        <time>2013-05-05T10:33:55Z</time>
      </trkpt>
      <trkpt lat="49.3896" lon="1.15881">
        <ele>119</ele>
        <time>2013-05-05T10:34:13Z</time>
      </trkpt>
      <trkpt lat="49.38979" lon="1.15879">
        <ele>119</ele>
        <time>2013-05-05T10:34:37Z</time>
      </trkpt>
      <trkpt lat="49.38997" lon="1.1588">
        <ele>119</ele>
        <time>2013-05-05T10:35:20Z</time>
      </trkpt>
      <trkpt lat="49.39015" lon="1.15865">
        <ele>140</ele>
        <time>2013-05-05T10:35:29Z</time>
      </trkpt>
      <trkpt lat="49.39032" lon="1.15851">
        <ele>140</ele>
        <time>2013-05-05T10:35:37Z</time>
      </trkpt>
      <trkpt lat="49.39048" lon="1.15838">
        <ele>140</ele>
        <time>2013-05-05T10:35:45Z</time>
      </trkpt>
      <trkpt lat="49.39067" lon="1.15824">
        <ele>142</ele>
        <time>2013-05-05T10:35:53Z</time>
      </trkpt>
      <trkpt lat="49.39083" lon="1.15812">
        <ele>142</ele>
        <time>2013-05-05T10:35:59Z</time>
      </trkpt>
      <trkpt lat="49.391" lon="1.15798">
        <ele>145</ele>
        <time>2013-05-05T10:36:05Z</time>
      </trkpt>
      <trkpt lat="49.39118" lon="1.15784">
        <ele>145</ele>
        <time>2013-05-05T10:36:12Z</time>
      </trkpt>
      <trkpt lat="49.39135" lon="1.1577">
        <ele>145</ele>
        <time>2013-05-05T10:36:20Z</time>
      </trkpt>
      <trkpt lat="49.39151" lon="1.15759">
        <ele>145</ele>
        <time>2013-05-05T10:36:27Z</time>
      </trkpt>
      <trkpt lat="49.3917" lon="1.15743">
        <ele>146</ele>
        <time>2013-05-05T10:36:59Z</time>
      </trkpt>
      <trkpt lat="49.39186" lon="1.15727">
        <ele>146</ele>
        <time>2013-05-05T10:37:06Z</time>
      </trkpt>
      <trkpt lat="49.39204" lon="1.15712">
        <ele>146</ele>
        <time>2013-05-05T10:37:13Z</time>
      </trkpt>
      <trkpt lat="49.3922" lon="1.15701">
        <ele>146</ele>
        <time>2013-05-05T10:37:19Z</time>
      </trkpt>
      <trkpt lat="49.39236" lon="1.15687">
        <ele>146</ele>
        <time>2013-05-05T10:37:25Z</time>
      </trkpt>
      <trkpt lat="49.39252" lon="1.15672">
        <ele>150</ele>
        <time>2013-05-05T10:37:31Z</time>
      </trkpt>
      <trkpt lat="49.39267" lon="1.1565">
        <ele>151</ele>
        <time>2013-05-05T10:37:37Z</time>
      </trkpt>
      <trkpt lat="49.3928" lon="1.15629">
        <ele>151</ele>
        <time>2013-05-05T10:37:43Z</time>
      </trkpt>
      <trkpt lat="49.39295" lon="1.15609">
        <ele>151</ele>
        <time>2013-05-05T10:37:49Z</time>
      </trkpt>
      <trkpt lat="49.39312" lon="1.15592">
        <ele>151</ele>
        <time>2013-05-05T10:37:55Z</time>
      </trkpt>
      <trkpt lat="49.39327" lon="1.15573">
        <ele>150</ele>
        <time>2013-05-05T10:38:01Z</time>
      </trkpt>
      <trkpt lat="49.39342" lon="1.15556">
        <ele>154</ele>
        <time>2013-05-05T10:38:07Z</time>
      </trkpt>
      <trkpt lat="49.39358" lon="1.15539">
        <ele>154</ele>
        <time>2013-05-05T10:38:13Z</time>
      </trkpt>
      <trkpt lat="49.39374" lon="1.15521">
        <ele>154</ele>
        <time>2013-05-05T10:38:19Z</time>
      </trkpt>
      <trkpt lat="49.39391" lon="1.15503">
        <ele>154</ele>
        <time>2013-05-05T10:38:25Z</time>
      </trkpt>
      <trkpt lat="49.39409" lon="1.15484">
        <ele>153</ele>
        <time>2013-05-05T10:38:31Z</time>
      </trkpt>
      <trkpt lat="49.39426" lon="1.15466">
        <ele>155</ele>
        <time>2013-05-05T10:38:37Z</time>
      </trkpt>
      <trkpt lat="49.39443" lon="1.15451">
        <ele>155</ele>
        <time>2013-05-05T10:38:43Z</time>
      </trkpt>
      <trkpt lat="49.39462" lon="1.1544">
        <ele>155</ele>
        <time>2013-05-05T10:38:53Z</time>
      </trkpt>
      <trkpt lat="49.39478" lon="1.15423">
        <ele>155</ele>
        <time>2013-05-05T10:38:59Z</time>
      </trkpt>
      <trkpt lat="49.39494" lon="1.15408">
        <ele>154</ele>
        <time>2013-05-05T10:39:04Z</time>
      </trkpt>
      <trkpt lat="49.39511" lon="1.1539">
        <ele>155</ele>
        <time>2013-05-05T10:39:10Z</time>
      </trkpt>
      <trkpt lat="49.39528" lon="1.15375">
        <ele>155</ele>
        <time>2013-05-05T10:39:16Z</time>
      </trkpt>
      <trkpt lat="49.39547" lon="1.15364">
        <ele>155</ele>
        <time>2013-05-05T10:39:22Z</time>
      </trkpt>
      <trkpt lat="49.39565" lon="1.15351">
        <ele>155</ele>
        <time>2013-05-05T10:39:28Z</time>
      </trkpt>
      <trkpt lat="49.39583" lon="1.15336">
        <ele>155</ele>
        <time>2013-05-05T10:39:36Z</time>
      </trkpt>
      <trkpt lat="49.39601" lon="1.1532">
        <ele>154</ele>
        <time>2013-05-05T10:39:43Z</time>
      </trkpt>
      <trkpt lat="49.3962" lon="1.15306">
        <ele>154</ele>
        <time>2013-05-05T10:39:49Z</time>
      </trkpt>
      <trkpt lat="49.39636" lon="1.1529">
        <ele>154</ele>
        <time>2013-05-05T10:39:54Z</time>
      </trkpt>
      <trkpt lat="49.39654" lon="1.15272">
        <ele>154</ele>
        <time>2013-05-05T10:39:59Z</time>
      </trkpt>
      <trkpt lat="49.39671" lon="1.15254">
        <ele>153</ele>
        <time>2013-05-05T10:40:04Z</time>
      </trkpt>
      <trkpt lat="49.39686" lon="1.15238">
        <ele>150</ele>
        <time>2013-05-05T10:40:08Z</time>
      </trkpt>
      <trkpt lat="49.39706" lon="1.1522">
        <ele>150</ele>
        <time>2013-05-05T10:40:13Z</time>
      </trkpt>
      <trkpt lat="49.39723" lon="1.15202">
        <ele>150</ele>
        <time>2013-05-05T10:40:18Z</time>
      </trkpt>
      <trkpt lat="49.39738" lon="1.15185">
        <ele>150</ele>
        <time>2013-05-05T10:40:22Z</time>
      </trkpt>
      <trkpt lat="49.39757" lon="1.15166">
        <ele>148</ele>
        <time>2013-05-05T10:40:27Z</time>
      </trkpt>
      <trkpt lat="49.39773" lon="1.15143">
        <ele>148</ele>
        <time>2013-05-05T10:40:32Z</time>
      </trkpt>
      <trkpt lat="49.39789" lon="1.15123">
        <ele>148</ele>
        <time>2013-05-05T10:40:38Z</time>
      </trkpt>
      <trkpt lat="49.39792" lon="1.15094">
        <ele>148</ele>
        <time>2013-05-05T10:40:45Z</time>
      </trkpt>
      <trkpt lat="49.39777" lon="1.15078">
        <ele>145</ele>
        <time>2013-05-05T10:40:51Z</time>
      </trkpt>
      <trkpt lat="49.39763" lon="1.15056">
        <ele>145</ele>
        <time>2013-05-05T10:40:56Z</time>
      </trkpt>
      <trkpt lat="49.39751" lon="1.15031">
        <ele>145</ele>
        <time>2013-05-05T10:41:01Z</time>
      </trkpt>
      <trkpt lat="49.39736" lon="1.15006">
        <ele>146</ele>
        <time>2013-05-05T10:41:06Z</time>
      </trkpt>
      <trkpt lat="49.39724" lon="1.14981">
        <ele>144</ele>
        <time>2013-05-05T10:41:10Z</time>
      </trkpt>
      <trkpt lat="49.39711" lon="1.14957">
        <ele>144</ele>
        <time>2013-05-05T10:41:15Z</time>
      </trkpt>
      <trkpt lat="49.39696" lon="1.14942">
        <ele>144</ele>
        <time>2013-05-05T10:41:21Z</time>
      </trkpt>
      <trkpt lat="49.39683" lon="1.14922">
        <ele>144</ele>
        <time>2013-05-05T10:41:26Z</time>
      </trkpt>
      <trkpt lat="49.3967" lon="1.14901">
        <ele>144</ele>
        <time>2013-05-05T10:41:30Z</time>
      </trkpt>
      <trkpt lat="49.39656" lon="1.14881">
        <ele>145</ele>
        <time>2013-05-05T10:41:34Z</time>
      </trkpt>
      <trkpt lat="49.39643" lon="1.14861">
        <ele>145</ele>
        <time>2013-05-05T10:41:38Z</time>
      </trkpt>
      <trkpt lat="49.39646" lon="1.14833">
        <ele>143</ele>
        <time>2013-05-05T10:41:48Z</time>
      </trkpt>
      <trkpt lat="49.39662" lon="1.14818">
        <ele>143</ele>
        <time>2013-05-05T10:41:57Z</time>
      </trkpt>
      <trkpt lat="49.39661" lon="1.14786">
        <ele>143</ele>
        <time>2013-05-05T10:42:08Z</time>
      </trkpt>
      <trkpt lat="49.39665" lon="1.14755">
        <ele>143</ele>
        <time>2013-05-05T10:42:14Z</time>
      </trkpt>
      <trkpt lat="49.39669" lon="1.14727">
        <ele>131</ele>
        <time>2013-05-05T10:42:18Z</time>
      </trkpt>
      <trkpt lat="49.39676" lon="1.14691">
        <ele>131</ele>
        <time>2013-05-05T10:42:23Z</time>
      </trkpt>
      <trkpt lat="49.39674" lon="1.1466">
        <ele>126</ele>
        <time>2013-05-05T10:42:27Z</time>
      </trkpt>
      <trkpt lat="49.3967" lon="1.14626">
        <ele>126</ele>
        <time>2013-05-05T10:42:31Z</time>
      </trkpt>
      <trkpt lat="49.39665" lon="1.14589">
        <ele>142</ele>
        <time>2013-05-05T10:42:33Z</time>
      </trkpt>
      <trkpt lat="49.39675" lon="1.14565">
        <ele>124</ele>
        <time>2013-05-05T10:42:36Z</time>
      </trkpt>
      <trkpt lat="49.39676" lon="1.14531">
        <ele>124</ele>
        <time>2013-05-05T10:42:40Z</time>
      </trkpt>
      <trkpt lat="49.39678" lon="1.14502">
        <ele>124</ele>
        <time>2013-05-05T10:42:43Z</time>
      </trkpt>
      <trkpt lat="49.39687" lon="1.14475">
        <ele>118</ele>
        <time>2013-05-05T10:42:47Z</time>
      </trkpt>
      <trkpt lat="49.39687" lon="1.14447">
        <ele>118</ele>
        <time>2013-05-05T10:42:53Z</time>
      </trkpt>
      <trkpt lat="49.39692" lon="1.14416">
        <ele>106</ele>
        <time>2013-05-05T10:42:57Z</time>
      </trkpt>
      <trkpt lat="49.39698" lon="1.14379">
        <ele>106</ele>
        <time>2013-05-05T10:42:59Z</time>
      </trkpt>
      <trkpt lat="49.39704" lon="1.14342">
        <ele>106</ele>
        <time>2013-05-05T10:43:02Z</time>
      </trkpt>
      <trkpt lat="49.39702" lon="1.14302">
        <ele>98</ele>
        <time>2013-05-05T10:43:05Z</time>
      </trkpt>
      <trkpt lat="49.397" lon="1.14264">
        <ele>98</ele>
        <time>2013-05-05T10:43:08Z</time>
      </trkpt>
      <trkpt lat="49.39702" lon="1.14223">
        <ele>91</ele>
        <time>2013-05-05T10:43:11Z</time>
      </trkpt>
      <trkpt lat="49.39701" lon="1.14188">
        <ele>91</ele>
        <time>2013-05-05T10:43:14Z</time>
      </trkpt>
      <trkpt lat="49.39704" lon="1.14155">
        <ele>84</ele>
        <time>2013-05-05T10:43:16Z</time>
      </trkpt>
      <trkpt lat="49.39698" lon="1.14122">
        <ele>84</ele>
        <time>2013-05-05T10:43:18Z</time>
      </trkpt>
      <trkpt lat="49.39691" lon="1.14096">
        <ele>84</ele>
        <time>2013-05-05T10:43:21Z</time>
      </trkpt>
      <trkpt lat="49.39676" lon="1.14077">
        <ele>81</ele>
        <time>2013-05-05T10:43:26Z</time>
      </trkpt>
      <trkpt lat="49.39662" lon="1.14058">
        <ele>90</ele>
        <time>2013-05-05T10:43:31Z</time>
      </trkpt>
      <trkpt lat="49.39655" lon="1.14028">
        <ele>90</ele>
        <time>2013-05-05T10:43:35Z</time>
      </trkpt>
      <trkpt lat="49.39655" lon="1.13995">
        <ele>90</ele>
        <time>2013-05-05T10:43:39Z</time>
      </trkpt>
      <trkpt lat="49.39662" lon="1.13969">
        <ele>90</ele>
        <time>2013-05-05T10:43:42Z</time>
      </trkpt>
      <trkpt lat="49.39674" lon="1.1394">
        <ele>77</ele>
        <time>2013-05-05T10:43:45Z</time>
      </trkpt>
      <trkpt lat="49.39686" lon="1.13909">
        <ele>80</ele>
        <time>2013-05-05T10:43:48Z</time>
      </trkpt>
      <trkpt lat="49.39696" lon="1.13877">
        <ele>80</ele>
        <time>2013-05-05T10:43:51Z</time>
      </trkpt>
      <trkpt lat="49.39703" lon="1.13849">
        <ele>80</ele>
        <time>2013-05-05T10:43:54Z</time>
      </trkpt>
      <trkpt lat="49.39718" lon="1.13829">
        <ele>92</ele>
        <time>2013-05-05T10:43:57Z</time>
      </trkpt>
      <trkpt lat="49.39734" lon="1.13811">
        <ele>92</ele>
        <time>2013-05-05T10:44:00Z</time>
      </trkpt>
      <trkpt lat="49.39752" lon="1.138">
        <ele>79</ele>
        <time>2013-05-05T10:44:03Z</time>
      </trkpt>
      <trkpt lat="49.39772" lon="1.1379">
        <ele>79</ele>
        <time>2013-05-05T10:44:07Z</time>
      </trkpt>
      <trkpt lat="49.3979" lon="1.13776">
        <ele>79</ele>
        <time>2013-05-05T10:44:13Z</time>
      </trkpt>
      <trkpt lat="49.39807" lon="1.13764">
        <ele>79</ele>
        <time>2013-05-05T10:44:23Z</time>
      </trkpt>
      <trkpt lat="49.39822" lon="1.13748">
        <ele>90</ele>
        <time>2013-05-05T10:44:32Z</time>
      </trkpt>
      <trkpt lat="49.39843" lon="1.13733">
        <ele>73</ele>
        <time>2013-05-05T10:44:38Z</time>
      </trkpt>
      <trkpt lat="49.3986" lon="1.1372">
        <ele>73</ele>
        <time>2013-05-05T10:44:42Z</time>
      </trkpt>
      <trkpt lat="49.39879" lon="1.13709">
        <ele>73</ele>
        <time>2013-05-05T10:44:46Z</time>
      </trkpt>
      <trkpt lat="49.39893" lon="1.13687">
        <ele>73</ele>
        <time>2013-05-05T10:44:51Z</time>
      </trkpt>
      <trkpt lat="49.39893" lon="1.13657">
        <ele>82</ele>
        <time>2013-05-05T10:44:56Z</time>
      </trkpt>
      <trkpt lat="49.399" lon="1.13628">
        <ele>82</ele>
        <time>2013-05-05T10:45:05Z</time>
      </trkpt>
      <trkpt lat="49.39909" lon="1.13601">
        <ele>82</ele>
        <time>2013-05-05T10:45:17Z</time>
      </trkpt>
      <trkpt lat="49.39922" lon="1.13582">
        <ele>72</ele>
        <time>2013-05-05T10:45:25Z</time>
      </trkpt>
      <trkpt lat="49.39939" lon="1.13568">
        <ele>72</ele>
        <time>2013-05-05T10:45:33Z</time>
      </trkpt>
      <trkpt lat="49.39957" lon="1.1356">
        <ele>72</ele>
        <time>2013-05-05T10:45:42Z</time>
      </trkpt>
      <trkpt lat="49.39973" lon="1.13549">
        <ele>72</ele>
        <time>2013-05-05T10:45:49Z</time>
      </trkpt>
      <trkpt lat="49.39984" lon="1.13523">
        <ele>72</ele>
        <time>2013-05-05T10:45:56Z</time>
      </trkpt>
      <trkpt lat="49.39987" lon="1.13492">
        <ele>77</ele>
        <time>2013-05-05T10:46:03Z</time>
      </trkpt>
      <trkpt lat="49.3998" lon="1.13466">
        <ele>77</ele>
        <time>2013-05-05T10:46:10Z</time>
      </trkpt>
      <trkpt lat="49.39961" lon="1.13462">
        <ele>77</ele>
        <time>2013-05-05T10:46:19Z</time>
      </trkpt>
      <trkpt lat="49.39943" lon="1.13458">
        <ele>77</ele>
        <time>2013-05-05T10:46:29Z</time>
      </trkpt>
      <trkpt lat="49.39925" lon="1.13448">
        <ele>77</ele>
        <time>2013-05-05T10:46:39Z</time>
      </trkpt>
      <trkpt lat="49.39909" lon="1.13435">
        <ele>95</ele>
        <time>2013-05-05T10:46:49Z</time>
      </trkpt>
      <trkpt lat="49.39903" lon="1.13408">
        <ele>93</ele>
        <time>2013-05-05T10:47:03Z</time>
      </trkpt>
      <trkpt lat="49.39904" lon="1.13379">
        <ele>93</ele>
        <time>2013-05-05T10:47:14Z</time>
      </trkpt>
      <trkpt lat="49.39904" lon="1.1335">
        <ele>93</ele>
        <time>2013-05-05T10:47:21Z</time>
      </trkpt>
      <trkpt lat="49.39911" lon="1.1332">
        <ele>83</ele>
        <time>2013-05-05T10:47:27Z</time>
      </trkpt>
      <trkpt lat="49.39913" lon="1.13291">
        <ele>83</ele>
        <time>2013-05-05T10:47:34Z</time>
      </trkpt>
      <trkpt lat="49.39895" lon="1.13283">
        <ele>83</ele>
        <time>2013-05-05T10:47:53Z</time>
      </trkpt>
      <trkpt lat="49.39879" lon="1.133">
        <ele>83</ele>
        <time>2013-05-05T10:48:04Z</time>
      </trkpt>
      <trkpt lat="49.39861" lon="1.13306">
        <ele>83</ele>
        <time>2013-05-05T10:48:19Z</time>
      </trkpt>
      <trkpt lat="49.39846" lon="1.13321">
        <ele>83</ele>
        <time>2013-05-05T10:49:00Z</time>
      </trkpt>
      <trkpt lat="49.39832" lon="1.1334">
        <ele>126</ele>
        <time>2013-05-05T10:50:25Z</time>
      </trkpt>
      <trkpt lat="49.39826" lon="1.13368">
        <ele>126</ele>
        <time>2013-05-05T10:50:40Z</time>
      </trkpt>
      <trkpt lat="49.39817" lon="1.13394">
        <ele>126</ele>
        <time>2013-05-05T10:50:55Z</time>
      </trkpt>
      <trkpt lat="49.3981" lon="1.13419">
        <ele>121</ele>
        <time>2013-05-05T10:51:08Z</time>
      </trkpt>
      <trkpt lat="49.39793" lon="1.13431">
        <ele>121</ele>
        <time>2013-05-05T10:51:21Z</time>
      </trkpt>
      <trkpt lat="49.39776" lon="1.13438">
        <ele>121</ele>
        <time>2013-05-05T10:52:25Z</time>
      </trkpt>
      <trkpt lat="49.39757" lon="1.1344">
        <ele>121</ele>
        <time>2013-05-05T10:52:52Z</time>
      </trkpt>
      <trkpt lat="49.39738" lon="1.13443">
        <ele>133</ele>
        <time>2013-05-05T10:53:10Z</time>
      </trkpt>
      <trkpt lat="49.39721" lon="1.13455">
        <ele>133</ele>
        <time>2013-05-05T10:53:31Z</time>
      </trkpt>
      <trkpt lat="49.39703" lon="1.13472">
        <ele>133</ele>
        <time>2013-05-05T10:54:50Z</time>
      </trkpt>
      <trkpt lat="49.39685" lon="1.13485">
        <ele>133</ele>
        <time>2013-05-05T10:54:59Z</time>
      </trkpt>
      <trkpt lat="49.3967" lon="1.135">
        <ele>127</ele>
        <time>2013-05-05T10:55:10Z</time>
      </trkpt>
      <trkpt lat="49.39654" lon="1.13513">
        <ele>137</ele>
        <time>2013-05-05T10:55:20Z</time>
      </trkpt>
      <trkpt lat="49.39639" lon="1.13532">
        <ele>137</ele>
        <time>2013-05-05T10:55:29Z</time>
      </trkpt>
      <trkpt lat="49.39626" lon="1.13555">
        <ele>137</ele>
        <time>2013-05-05T10:55:39Z</time>
      </trkpt>
      <trkpt lat="49.3961" lon="1.13576">
        <ele>137</ele>
        <time>2013-05-05T10:55:46Z</time>
      </trkpt>
      <trkpt lat="49.39597" lon="1.13598">
        <ele>132</ele>
        <time>2013-05-05T10:55:52Z</time>
      </trkpt>
      <trkpt lat="49.39583" lon="1.1362">
        <ele>141</ele>
        <time>2013-05-05T10:55:59Z</time>
      </trkpt>
      <trkpt lat="49.39569" lon="1.1364">
        <ele>141</ele>
        <time>2013-05-05T10:56:05Z</time>
      </trkpt>
      <trkpt lat="49.39553" lon="1.13658">
        <ele>141</ele>
        <time>2013-05-05T10:56:10Z</time>
      </trkpt>
      <trkpt lat="49.39535" lon="1.13674">
        <ele>138</ele>
        <time>2013-05-05T10:56:16Z</time>
      </trkpt>
      <trkpt lat="49.39519" lon="1.13693">
        <ele>138</ele>
        <time>2013-05-05T10:56:22Z</time>
      </trkpt>
      <trkpt lat="49.39504" lon="1.13709">
        <ele>138</ele>
        <time>2013-05-05T10:56:27Z</time>
      </trkpt>
      <trkpt lat="49.39489" lon="1.13728">
        <ele>141</ele>
        <time>2013-05-05T10:56:34Z</time>
      </trkpt>
      <trkpt lat="49.39475" lon="1.13751">
        <ele>140</ele>
        <time>2013-05-05T10:56:41Z</time>
      </trkpt>
      <trkpt lat="49.39461" lon="1.13774">
        <ele>140</ele>
        <time>2013-05-05T10:56:47Z</time>
      </trkpt>
      <trkpt lat="49.3945" lon="1.13796">
        <ele>140</ele>
        <time>2013-05-05T10:56:53Z</time>
      </trkpt>
      <trkpt lat="49.3944" lon="1.13822">
        <ele>140</ele>
        <time>2013-05-05T10:57:00Z</time>
      </trkpt>
      <trkpt lat="49.39429" lon="1.13847">
        <ele>140</ele>
        <time>2013-05-05T10:57:07Z</time>
      </trkpt>
      <trkpt lat="49.39421" lon="1.13873">
        <ele>140</ele>
        <time>2013-05-05T10:57:14Z</time>
      </trkpt>
      <trkpt lat="49.39411" lon="1.13896">
        <ele>142</ele>
        <time>2013-05-05T10:57:21Z</time>
      </trkpt>
      <trkpt lat="49.394" lon="1.13917">
        <ele>143</ele>
        <time>2013-05-05T10:57:28Z</time>
      </trkpt>
      <trkpt lat="49.39385" lon="1.13936">
        <ele>143</ele>
        <time>2013-05-05T10:57:36Z</time>
      </trkpt>
      <trkpt lat="49.39367" lon="1.13949">
        <ele>143</ele>
        <time>2013-05-05T10:57:45Z</time>
      </trkpt>
      <trkpt lat="49.39351" lon="1.13963">
        <ele>143</ele>
        <time>2013-05-05T10:57:53Z</time>
      </trkpt>
      <trkpt lat="49.39337" lon="1.13983">
        <ele>143</ele>
        <time>2013-05-05T10:58:01Z</time>
      </trkpt>
      <trkpt lat="49.39326" lon="1.14006">
        <ele>152</ele>
        <time>2013-05-05T10:58:20Z</time>
      </trkpt>
      <trkpt lat="49.39316" lon="1.14032">
        <ele>152</ele>
        <time>2013-05-05T10:58:29Z</time>
      </trkpt>
      <trkpt lat="49.39307" lon="1.1406">
        <ele>152</ele>
        <time>2013-05-05T10:58:36Z</time>
      </trkpt>
      <trkpt lat="49.393" lon="1.14086">
        <ele>151</ele>
        <time>2013-05-05T10:58:43Z</time>
      </trkpt>
      <trkpt lat="49.39293" lon="1.14113">
        <ele>151</ele>
        <time>2013-05-05T10:58:49Z</time>
      </trkpt>
      <trkpt lat="49.39286" lon="1.1414">
        <ele>151</ele>
        <time>2013-05-05T10:58:55Z</time>
      </trkpt>
      <trkpt lat="49.39278" lon="1.14169">
        <ele>149</ele>
        <time>2013-05-05T10:59:02Z</time>
      </trkpt>
      <trkpt lat="49.3927" lon="1.14199">
        <ele>149</ele>
        <time>2013-05-05T10:59:09Z</time>
      </trkpt>
      <trkpt lat="49.39265" lon="1.14227">
        <ele>149</ele>
        <time>2013-05-05T10:59:16Z</time>
      </trkpt>
      <trkpt lat="49.39257" lon="1.14257">
        <ele>147</ele>
        <time>2013-05-05T10:59:22Z</time>
      </trkpt>
      <trkpt lat="49.39249" lon="1.14285">
        <ele>152</ele>
        <time>2013-05-05T10:59:27Z</time>
      </trkpt>
      <trkpt lat="49.39241" lon="1.14312">
        <ele>152</ele>
        <time>2013-05-05T10:59:32Z</time>
      </trkpt>
      <trkpt lat="49.39232" lon="1.14336">
        <ele>153</ele>
        <time>2013-05-05T10:59:37Z</time>
      </trkpt>
      <trkpt lat="49.39224" lon="1.14364">
        <ele>153</ele>
        <time>2013-05-05T10:59:42Z</time>
      </trkpt>
      <trkpt lat="49.39209" lon="1.14388">
        <ele>153</ele>
        <time>2013-05-05T10:59:47Z</time>
      </trkpt>
      <trkpt lat="49.39193" lon="1.1441">
        <ele>153</ele>
        <time>2013-05-05T10:59:52Z</time>
      </trkpt>
      <trkpt lat="49.39176" lon="1.1443">
        <ele>152</ele>
        <time>2013-05-05T10:59:57Z</time>
      </trkpt>
      <trkpt lat="49.39161" lon="1.14451">
        <ele>149</ele>
        <time>2013-05-05T11:00:02Z</time>
      </trkpt>
      <trkpt lat="49.39141" lon="1.14459">
        <ele>149</ele>
        <time>2013-05-05T11:00:07Z</time>
      </trkpt>
      <trkpt lat="49.39119" lon="1.14461">
        <ele>149</ele>
        <time>2013-05-05T11:00:12Z</time>
      </trkpt>
      <trkpt lat="49.39101" lon="1.14465">
        <ele>149</ele>
        <time>2013-05-05T11:00:16Z</time>
      </trkpt>
      <trkpt lat="49.39082" lon="1.14463">
        <ele>145</ele>
        <time>2013-05-05T11:00:20Z</time>
      </trkpt>
      <trkpt lat="49.3906" lon="1.14465">
        <ele>145</ele>
        <time>2013-05-05T11:00:25Z</time>
      </trkpt>
      <trkpt lat="49.39041" lon="1.14453">
        <ele>145</ele>
        <time>2013-05-05T11:00:29Z</time>
      </trkpt>
      <trkpt lat="49.3903" lon="1.14423">
        <ele>145</ele>
        <time>2013-05-05T11:00:33Z</time>
      </trkpt>
      <trkpt lat="49.39019" lon="1.14395">
        <ele>143</ele>
        <time>2013-05-05T11:00:37Z</time>
      </trkpt>
      <trkpt lat="49.39008" lon="1.14367">
        <ele>143</ele>
        <time>2013-05-05T11:00:41Z</time>
      </trkpt>
      <trkpt lat="49.38998" lon="1.14337">
        <ele>146</ele>
        <time>2013-05-05T11:00:45Z</time>
      </trkpt>
      <trkpt lat="49.38987" lon="1.1431">
        <ele>144</ele>
        <time>2013-05-05T11:00:49Z</time>
      </trkpt>
      <trkpt lat="49.38978" lon="1.14278">
        <ele>144</ele>
        <time>2013-05-05T11:00:53Z</time>
      </trkpt>
      <trkpt lat="49.3897" lon="1.14248">
        <ele>143</ele>
        <time>2013-05-05T11:00:57Z</time>
      </trkpt>
      <trkpt lat="49.38961" lon="1.14217">
        <ele>143</ele>
        <time>2013-05-05T11:01:01Z</time>
      </trkpt>
      <trkpt lat="49.3895" lon="1.14189">
        <ele>143</ele>
        <time>2013-05-05T11:01:04Z</time>
      </trkpt>
      <trkpt lat="49.38941" lon="1.14164">
        <ele>141</ele>
        <time>2013-05-05T11:01:07Z</time>
      </trkpt>
      <trkpt lat="49.38933" lon="1.14135">
        <ele>141</ele>
        <time>2013-05-05T11:01:10Z</time>
      </trkpt>
      <trkpt lat="49.38923" lon="1.14111">
        <ele>141</ele>
        <time>2013-05-05T11:01:13Z</time>
      </trkpt>
      <trkpt lat="49.38916" lon="1.14079">
        <ele>142</ele>
        <time>2013-05-05T11:01:17Z</time>
      </trkpt>
      <trkpt lat="49.38908" lon="1.14049">
        <ele>142</ele>
        <time>2013-05-05T11:01:21Z</time>
      </trkpt>
      <trkpt lat="49.38897" lon="1.14025">
        <ele>142</ele>
        <time>2013-05-05T11:01:27Z</time>
      </trkpt>
      <trkpt lat="49.3888" lon="1.14037">
        <ele>142</ele>
        <time>2013-05-05T11:01:31Z</time>
      </trkpt>
      <trkpt lat="49.3886" lon="1.14052">
        <ele>142</ele>
        <time>2013-05-05T11:01:35Z</time>
      </trkpt>
      <trkpt lat="49.38855" lon="1.14079">
        <ele>142</ele>
        <time>2013-05-05T11:01:44Z</time>
      </trkpt>
      <trkpt lat="49.38871" lon="1.14096">
        <ele>142</ele>
        <time>2013-05-05T11:02:43Z</time>
      </trkpt>
      <trkpt lat="49.38872" lon="1.14165">
        <ele>142</ele>
        <time>2013-05-05T11:03:53Z</time>
      </trkpt>
    </trkseg>
  </trk>
</gpx>